Wetterdaten: Dienstag, 25.04.2017
Datum Zeit Temp. A. Pool Temp. Feuchte A. Luftdruck Regen Wind Richtung Richtung Sonnenschein ET UV Solar Taupunkt Windchill Windben Empfang
25.04.2017 00:00 6,0 C 0,0 C 86 % 1010,1 hPa 0,0 l/m 1,8 km/h (1 Bft) O-NO 77 0 min 0,000 mm 0,0 UV-I 0 W/m 3,8 C 6,0 C 3,2 km/h (1 Bft) 100,00 %
25.04.2017 00:02 6,0 C 0,0 C 85 % 1010,0 hPa 0,0 l/m 0,0 km/h (0 Bft) O-NO 77 0 min 0,000 mm 0,0 UV-I 0 W/m 3,7 C 6,0 C 0,0 km/h (0 Bft) 97,73 %
25.04.2017 00:04 5,9 C 0,0 C 85 % 1010,0 hPa 0,0 l/m 0,0 km/h (0 Bft) O-NO 77 0 min 0,000 mm 0,0 UV-I 0 W/m 3,6 C 5,9 C 0,0 km/h (0 Bft) 95,65 %
25.04.2017 00:06 5,9 C 0,0 C 86 % 1010,0 hPa 0,0 l/m 1,3 km/h (1 Bft) O-NO 77 0 min 0,000 mm 0,0 UV-I 0 W/m 3,7 C 5,9 C 3,2 km/h (1 Bft) 100,00 %
25.04.2017 00:08 5,9 C 0,0 C 86 % 1009,9 hPa 0,0 l/m 1,4 km/h (1 Bft) O-NO 77 0 min 0,000 mm 0,0 UV-I 0 W/m 3,7 C 5,9 C 3,2 km/h (1 Bft) 100,00 %
25.04.2017 00:10 5,9 C 0,0 C 86 % 1009,9 hPa 0,0 l/m 0,0 km/h (0 Bft) O-NO 77 0 min 0,000 mm 0,0 UV-I 0 W/m 3,7 C 5,9 C 0,0 km/h (0 Bft) 100,00 %
25.04.2017 00:12 5,8 C 0,0 C 86 % 1010,0 hPa 0,0 l/m 0,9 km/h (0 Bft) O-NO 77 0 min 0,000 mm 0,0 UV-I 0 W/m 3,6 C 5,8 C 3,2 km/h (1 Bft) 100,00 %
25.04.2017 00:14 5,8 C 0,0 C 86 % 1009,9 hPa 0,0 l/m 1,8 km/h (1 Bft) O-NO 77 0 min 0,000 mm 0,0 UV-I 0 W/m 3,6 C 5,8 C 3,2 km/h (1 Bft) 97,37 %
25.04.2017 00:16 5,8 C 0,0 C 87 % 1009,9 hPa 0,0 l/m 1,4 km/h (1 Bft) O-NO 77 0 min 0,000 mm 0,0 UV-I 0 W/m 3,8 C 5,8 C 3,2 km/h (1 Bft) 96,23 %
25.04.2017 00:18 5,8 C 0,0 C 87 % 1009,9 hPa 0,0 l/m 1,9 km/h (1 Bft) O-NO 77 0 min 0,000 mm 0,0 UV-I 0 W/m 3,8 C 5,8 C 3,2 km/h (1 Bft) 100,00 %
25.04.2017 00:20 5,8 C 0,0 C 88 % 1009,9 hPa 0,0 l/m 2,6 km/h (1 Bft) O-NO 77 0 min 0,000 mm 0,0 UV-I 0 W/m 4,0 C 5,8 C 3,2 km/h (1 Bft) 94,00 %
25.04.2017 00:22 5,8 C 0,0 C 88 % 1009,9 hPa 0,0 l/m 0,9 km/h (0 Bft) O-NO 77 0 min 0,000 mm 0,0 UV-I 0 W/m 4,0 C 5,8 C 3,2 km/h (1 Bft) 100,00 %
25.04.2017 00:24 5,8 C 0,0 C 88 % 1009,7 hPa 0,0 l/m 1,4 km/h (1 Bft) O-NO 77 0 min 0,000 mm 0,0 UV-I 0 W/m 4,0 C 5,8 C 3,2 km/h (1 Bft) 95,24 %
25.04.2017 00:26 5,7 C 0,0 C 87 % 1009,7 hPa 0,0 l/m 5,1 km/h (1 Bft) O 80 0 min 0,000 mm 0,0 UV-I 0 W/m 3,7 C 5,7 C 6,4 km/h (2 Bft) 98,00 %
25.04.2017 00:28 5,4 C 0,0 C 86 % 1009,7 hPa 0,0 l/m 2,5 km/h (1 Bft) O-NO 65 0 min 0,000 mm 0,0 UV-I 0 W/m 3,3 C 5,4 C 4,8 km/h (1 Bft) 95,74 %
25.04.2017 00:30 5,3 C 0,0 C 87 % 1009,7 hPa 0,0 l/m 2,0 km/h (1 Bft) NW 310 0 min 0,000 mm 0,0 UV-I 0 W/m 3,3 C 5,3 C 4,8 km/h (1 Bft) 98,11 %
25.04.2017 00:32 5,3 C 0,0 C 89 % 1009,7 hPa 0,0 l/m 0,0 km/h (0 Bft) NW 310 0 min 0,000 mm 0,0 UV-I 0 W/m 3,6 C 5,3 C 1,6 km/h (1 Bft) 97,37 %
25.04.2017 00:34 5,3 C 0,0 C 88 % 1009,6 hPa 0,0 l/m 1,2 km/h (1 Bft) NW 310 0 min 0,000 mm 0,0 UV-I 0 W/m 3,5 C 5,3 C 4,8 km/h (1 Bft) 97,87 %
25.04.2017 00:36 5,4 C 0,0 C 89 % 1009,7 hPa 0,0 l/m 2,2 km/h (1 Bft) NW 310 0 min 0,000 mm 0,0 UV-I 0 W/m 3,7 C 5,4 C 4,8 km/h (1 Bft) 100,00 %
25.04.2017 00:38 5,4 C 0,0 C 89 % 1009,7 hPa 0,0 l/m 2,2 km/h (1 Bft) NW 307 0 min 0,000 mm 0,0 UV-I 0 W/m 3,7 C 5,4 C 4,8 km/h (1 Bft) 94,74 %
25.04.2017 00:40 5,4 C 0,0 C 88 % 1009,8 hPa 0,0 l/m 1,6 km/h (1 Bft) NW 307 0 min 0,000 mm 0,0 UV-I 0 W/m 3,6 C 5,4 C 3,2 km/h (1 Bft) 98,11 %
25.04.2017 00:42 5,3 C 0,0 C 88 % 1009,7 hPa 0,0 l/m 0,6 km/h (0 Bft) NW 306 0 min 0,000 mm 0,0 UV-I 0 W/m 3,5 C 5,3 C 3,2 km/h (1 Bft) 97,87 %
25.04.2017 00:44 5,2 C 0,0 C 88 % 1009,7 hPa 0,0 l/m 1,4 km/h (1 Bft) NW 307 0 min 0,000 mm 0,0 UV-I 0 W/m 3,4 C 5,2 C 3,2 km/h (1 Bft) 97,56 %
25.04.2017 00:46 5,0 C 0,0 C 89 % 1009,7 hPa 0,0 l/m 1,3 km/h (1 Bft) NW 306 0 min 0,000 mm 0,0 UV-I 0 W/m 3,3 C 5,0 C 4,8 km/h (1 Bft) 100,00 %
25.04.2017 00:48 5,0 C 0,0 C 89 % 1009,6 hPa 0,0 l/m 2,4 km/h (1 Bft) NW 304 0 min 0,000 mm 0,0 UV-I 0 W/m 3,3 C 5,0 C 4,8 km/h (1 Bft) 97,37 %
25.04.2017 00:50 5,1 C 0,0 C 89 % 1009,6 hPa 0,0 l/m 2,6 km/h (1 Bft) NW 304 0 min 0,000 mm 0,0 UV-I 0 W/m 3,4 C 5,1 C 3,2 km/h (1 Bft) 98,00 %
25.04.2017 00:52 5,0 C 0,0 C 89 % 1009,7 hPa 0,0 l/m 0,1 km/h (0 Bft) NW 304 0 min 0,000 mm 0,0 UV-I 0 W/m 3,3 C 5,0 C 1,6 km/h (1 Bft) 96,23 %
25.04.2017 00:54 4,9 C 0,0 C 89 % 1009,7 hPa 0,0 l/m 0,1 km/h (0 Bft) NW 304 0 min 0,000 mm 0,0 UV-I 0 W/m 3,2 C 4,9 C 1,6 km/h (1 Bft) 97,14 %
25.04.2017 00:56 4,9 C 0,0 C 90 % 1009,6 hPa 0,0 l/m 0,7 km/h (0 Bft) NW 304 0 min 0,000 mm 0,0 UV-I 0 W/m 3,4 C 4,9 C 1,6 km/h (1 Bft) 98,00 %
25.04.2017 00:58 4,9 C 0,0 C 90 % 1009,5 hPa 0,0 l/m 0,0 km/h (0 Bft) NW 304 0 min 0,000 mm 0,0 UV-I 0 W/m 3,4 C 4,9 C 0,0 km/h (0 Bft) 100,00 %
25.04.2017 01:00 4,8 C 0,0 C 90 % 1009,6 hPa 0,0 l/m 0,0 km/h (0 Bft) NW 304 0 min 0,000 mm 0,0 UV-I 0 W/m 3,3 C 4,8 C 0,0 km/h (0 Bft) 100,00 %
25.04.2017 01:02 4,9 C 0,0 C 90 % 1009,5 hPa 0,0 l/m 0,0 km/h (0 Bft) NW 304 0 min 0,000 mm 0,0 UV-I 0 W/m 3,4 C 4,9 C 0,0 km/h (0 Bft) 100,00 %
25.04.2017 01:04 5,1 C 0,0 C 90 % 1009,5 hPa 0,0 l/m 0,0 km/h (0 Bft) NW 304 0 min 0,000 mm 0,0 UV-I 0 W/m 3,6 C 5,1 C 0,0 km/h (0 Bft) 100,00 %
25.04.2017 01:06 5,2 C 0,0 C 90 % 1009,5 hPa 0,0 l/m 0,0 km/h (0 Bft) NW 304 0 min 0,000 mm 0,0 UV-I 0 W/m 3,7 C 5,2 C 0,0 km/h (0 Bft) 98,11 %
25.04.2017 01:08 5,2 C 0,0 C 90 % 1009,5 hPa 0,0 l/m 1,0 km/h (0 Bft) NW 304 0 min 0,000 mm 0,0 UV-I 0 W/m 3,7 C 5,2 C 3,2 km/h (1 Bft) 94,29 %
25.04.2017 01:10 5,2 C 0,0 C 89 % 1009,5 hPa 0,0 l/m 0,5 km/h (0 Bft) NW 304 0 min 0,000 mm 0,0 UV-I 0 W/m 3,5 C 5,2 C 1,6 km/h (1 Bft) 98,00 %
25.04.2017 01:12 5,2 C 0,0 C 89 % 1009,5 hPa 0,0 l/m 0,8 km/h (0 Bft) NW 304 0 min 0,000 mm 0,0 UV-I 0 W/m 3,5 C 5,2 C 4,8 km/h (1 Bft) 95,74 %
25.04.2017 01:14 5,1 C 0,0 C 89 % 1009,5 hPa 0,0 l/m 2,8 km/h (1 Bft) NW 304 0 min 0,000 mm 0,0 UV-I 0 W/m 3,4 C 5,1 C 4,8 km/h (1 Bft) 98,11 %
25.04.2017 01:16 5,0 C 0,0 C 89 % 1009,5 hPa 0,0 l/m 0,6 km/h (0 Bft) NW 304 0 min 0,000 mm 0,0 UV-I 0 W/m 3,3 C 5,0 C 3,2 km/h (1 Bft) 97,87 %
25.04.2017 01:18 4,9 C 0,0 C 89 % 1009,5 hPa 0,0 l/m 1,1 km/h (1 Bft) NW 304 0 min 0,000 mm 0,0 UV-I 0 W/m 3,2 C 4,9 C 3,2 km/h (1 Bft) 97,87 %
25.04.2017 01:20 4,8 C 0,0 C 89 % 1009,4 hPa 0,0 l/m 1,0 km/h (0 Bft) W-NW 303 0 min 0,000 mm 0,0 UV-I 0 W/m 3,1 C 4,8 C 3,2 km/h (1 Bft) 98,00 %
25.04.2017 01:22 4,7 C 0,0 C 89 % 1009,5 hPa 0,0 l/m 0,7 km/h (0 Bft) W-NW 303 0 min 0,000 mm 0,0 UV-I 0 W/m 3,0 C 4,7 C 1,6 km/h (1 Bft) 97,56 %
25.04.2017 01:24 4,6 C 0,0 C 89 % 1009,4 hPa 0,0 l/m 1,4 km/h (1 Bft) W-NW 303 0 min 0,000 mm 0,0 UV-I 0 W/m 2,9 C 4,6 C 3,2 km/h (1 Bft) 95,74 %
25.04.2017 01:26 4,6 C 0,0 C 90 % 1009,4 hPa 0,0 l/m 2,2 km/h (1 Bft) W-NW 302 0 min 0,000 mm 0,0 UV-I 0 W/m 3,1 C 4,6 C 3,2 km/h (1 Bft) 100,00 %
25.04.2017 01:28 4,6 C 0,0 C 90 % 1009,4 hPa 0,0 l/m 1,0 km/h (0 Bft) W-NW 302 0 min 0,000 mm 0,0 UV-I 0 W/m 3,1 C 4,6 C 1,6 km/h (1 Bft) 94,00 %
25.04.2017 01:30 4,6 C 0,0 C 90 % 1009,3 hPa 0,0 l/m 0,1 km/h (0 Bft) W-NW 302 0 min 0,000 mm 0,0 UV-I 0 W/m 3,1 C 4,6 C 1,6 km/h (1 Bft) 95,74 %
25.04.2017 01:32 4,7 C 0,0 C 91 % 1009,4 hPa 0,0 l/m 0,7 km/h (0 Bft) W-NW 302 0 min 0,000 mm 0,0 UV-I 0 W/m 3,4 C 4,7 C 3,2 km/h (1 Bft) 97,56 %
25.04.2017 01:34 4,8 C 0,0 C 91 % 1009,3 hPa 0,0 l/m 2,0 km/h (1 Bft) W-NW 302 0 min 0,000 mm 0,0 UV-I 0 W/m 3,5 C 4,8 C 3,2 km/h (1 Bft) 98,11 %
25.04.2017 01:36 4,8 C 0,0 C 90 % 1009,2 hPa 0,0 l/m 3,5 km/h (1 Bft) O-NO 78 0 min 0,000 mm 0,0 UV-I 0 W/m 3,3 C 4,8 C 4,8 km/h (1 Bft) 90,57 %
25.04.2017 01:38 4,7 C 0,0 C 90 % 1009,2 hPa 0,0 l/m 3,5 km/h (1 Bft) O 80 0 min 0,000 mm 0,0 UV-I 0 W/m 3,2 C 4,7 C 6,4 km/h (2 Bft) 100,00 %
25.04.2017 01:40 4,7 C 0,0 C 91 % 1009,2 hPa 0,0 l/m 0,9 km/h (0 Bft) O 80 0 min 0,000 mm 0,0 UV-I 0 W/m 3,4 C 4,7 C 4,8 km/h (1 Bft) 92,00 %
25.04.2017 01:42 4,7 C 0,0 C 90 % 1009,2 hPa 0,0 l/m 1,3 km/h (1 Bft) O 80 0 min 0,000 mm 0,0 UV-I 0 W/m 3,2 C 4,7 C 3,2 km/h (1 Bft) 96,23 %
25.04.2017 01:44 4,7 C 0,0 C 91 % 1009,2 hPa 0,0 l/m 1,3 km/h (1 Bft) O 80 0 min 0,000 mm 0,0 UV-I 0 W/m 3,4 C 4,7 C 3,2 km/h (1 Bft) 95,65 %
25.04.2017 01:46 4,7 C 0,0 C 91 % 1009,1 hPa 0,0 l/m 0,0 km/h (0 Bft) O 80 0 min 0,000 mm 0,0 UV-I 0 W/m 3,4 C 4,7 C 0,0 km/h (0 Bft) 96,00 %
25.04.2017 01:48 4,7 C 0,0 C 91 % 1009,2 hPa 0,0 l/m 1,3 km/h (1 Bft) O 80 0 min 0,000 mm 0,0 UV-I 0 W/m 3,4 C 4,7 C 3,2 km/h (1 Bft) 97,44 %
25.04.2017 01:50 4,7 C 0,0 C 91 % 1009,1 hPa 0,0 l/m 0,1 km/h (0 Bft) O 80 0 min 0,000 mm 0,0 UV-I 0 W/m 3,4 C 4,7 C 1,6 km/h (1 Bft) 96,00 %
25.04.2017 01:52 4,7 C 0,0 C 91 % 1009,1 hPa 0,0 l/m 0,6 km/h (0 Bft) O 80 0 min 0,000 mm 0,0 UV-I 0 W/m 3,4 C 4,7 C 1,6 km/h (1 Bft) 94,34 %
25.04.2017 01:54 4,7 C 0,0 C 90 % 1009,0 hPa 0,0 l/m 0,2 km/h (0 Bft) O 80 0 min 0,000 mm 0,0 UV-I 0 W/m 3,2 C 4,7 C 1,6 km/h (1 Bft) 97,37 %
25.04.2017 01:56 4,5 C 0,0 C 90 % 1009,1 hPa 0,0 l/m 0,9 km/h (0 Bft) O 80 0 min 0,000 mm 0,0 UV-I 0 W/m 3,0 C 4,5 C 3,2 km/h (1 Bft) 90,57 %
25.04.2017 01:58 4,3 C 0,0 C 90 % 1009,1 hPa 0,0 l/m 2,2 km/h (1 Bft) O 80 0 min 0,000 mm 0,0 UV-I 0 W/m 2,8 C 4,3 C 3,2 km/h (1 Bft) 94,74 %
25.04.2017 02:00 4,2 C 0,0 C 91 % 1009,1 hPa 0,0 l/m 0,7 km/h (0 Bft) O 80 0 min 0,000 mm 0,0 UV-I 0 W/m 2,9 C 4,2 C 1,6 km/h (1 Bft) 92,00 %
25.04.2017 02:02 4,2 C 0,0 C 91 % 1008,9 hPa 0,0 l/m 0,2 km/h (0 Bft) O 80 0 min 0,000 mm 0,0 UV-I 0 W/m 2,9 C 4,2 C 1,6 km/h (1 Bft) 95,12 %
25.04.2017 02:04 4,2 C 0,0 C 92 % 1009,0 hPa 0,0 l/m 1,0 km/h (0 Bft) O 80 0 min 0,000 mm 0,0 UV-I 0 W/m 3,0 C 4,2 C 1,6 km/h (1 Bft) 96,43 %
25.04.2017 02:06 4,2 C 0,0 C 91 % 1008,9 hPa 0,0 l/m 1,7 km/h (1 Bft) O 80 0 min 0,000 mm 0,0 UV-I 0 W/m 2,9 C 4,2 C 4,8 km/h (1 Bft) 95,12 %
25.04.2017 02:08 4,2 C 0,0 C 91 % 1008,9 hPa 0,0 l/m 0,7 km/h (0 Bft) O 80 0 min 0,000 mm 0,0 UV-I 0 W/m 2,9 C 4,2 C 3,2 km/h (1 Bft) 98,21 %
25.04.2017 02:10 4,2 C 0,0 C 91 % 1008,9 hPa 0,0 l/m 0,0 km/h (0 Bft) O 80 0 min 0,000 mm 0,0 UV-I 0 W/m 2,9 C 4,2 C 0,0 km/h (0 Bft) 92,11 %
25.04.2017 02:12 4,2 C 0,0 C 92 % 1008,8 hPa 0,0 l/m 0,5 km/h (0 Bft) O 80 0 min 0,000 mm 0,0 UV-I 0 W/m 3,0 C 4,2 C 1,6 km/h (1 Bft) 96,23 %
25.04.2017 02:14 4,2 C 0,0 C 92 % 1008,8 hPa 0,0 l/m 0,2 km/h (0 Bft) O 80 0 min 0,000 mm 0,0 UV-I 0 W/m 3,0 C 4,2 C 1,6 km/h (1 Bft) 97,56 %
25.04.2017 02:16 4,2 C 0,0 C 92 % 1008,8 hPa 0,0 l/m 1,4 km/h (1 Bft) O 80 0 min 0,000 mm 0,0 UV-I 0 W/m 3,0 C 4,2 C 3,2 km/h (1 Bft) 96,00 %
25.04.2017 02:18 4,3 C 0,0 C 92 % 1008,7 hPa 0,0 l/m 2,5 km/h (1 Bft) O 80 0 min 0,000 mm 0,0 UV-I 0 W/m 3,1 C 4,3 C 4,8 km/h (1 Bft) 96,23 %
25.04.2017 02:20 4,2 C 0,0 C 91 % 1008,7 hPa 0,0 l/m 3,3 km/h (1 Bft) O 80 0 min 0,000 mm 0,0 UV-I 0 W/m 2,9 C 4,2 C 4,8 km/h (1 Bft) 93,62 %
25.04.2017 02:22 4,1 C 0,0 C 92 % 1008,7 hPa 0,0 l/m 1,5 km/h (1 Bft) O 80 0 min 0,000 mm 0,0 UV-I 0 W/m 2,9 C 4,1 C 4,8 km/h (1 Bft) 95,45 %
25.04.2017 02:24 4,2 C 0,0 C 92 % 1008,6 hPa 0,0 l/m 2,6 km/h (1 Bft) O 80 0 min 0,000 mm 0,0 UV-I 0 W/m 3,0 C 4,2 C 4,8 km/h (1 Bft) 95,24 %
25.04.2017 02:26 4,2 C 0,0 C 92 % 1008,6 hPa 0,0 l/m 3,1 km/h (1 Bft) O 80 0 min 0,000 mm 0,0 UV-I 0 W/m 3,0 C 4,2 C 4,8 km/h (1 Bft) 94,00 %
25.04.2017 02:28 4,1 C 0,0 C 92 % 1008,6 hPa 0,0 l/m 2,5 km/h (1 Bft) O 80 0 min 0,000 mm 0,0 UV-I 0 W/m 2,9 C 4,1 C 6,4 km/h (2 Bft) 97,56 %
25.04.2017 02:30 4,1 C 0,0 C 92 % 1008,6 hPa 0,0 l/m 1,2 km/h (1 Bft) O 80 0 min 0,000 mm 0,0 UV-I 0 W/m 2,9 C 4,1 C 3,2 km/h (1 Bft) 95,74 %
25.04.2017 02:32 4,1 C 0,0 C 92 % 1008,5 hPa 0,0 l/m 3,5 km/h (1 Bft) O 80 0 min 0,000 mm 0,0 UV-I 0 W/m 2,9 C 4,1 C 4,8 km/h (1 Bft) 94,64 %
25.04.2017 02:34 4,1 C 0,0 C 92 % 1008,5 hPa 0,0 l/m 2,2 km/h (1 Bft) O 80 0 min 0,000 mm 0,0 UV-I 0 W/m 2,9 C 4,1 C 4,8 km/h (1 Bft) 97,37 %
25.04.2017 02:36 4,1 C 0,0 C 92 % 1008,5 hPa 0,0 l/m 0,0 km/h (0 Bft) O 80 0 min 0,000 mm 0,0 UV-I 0 W/m 2,9 C 4,1 C 0,0 km/h (0 Bft) 98,00 %
25.04.2017 02:38 4,1 C 0,0 C 92 % 1008,4 hPa 0,0 l/m 1,1 km/h (1 Bft) O 80 0 min 0,000 mm 0,0 UV-I 0 W/m 2,9 C 4,1 C 1,6 km/h (1 Bft) 92,68 %
25.04.2017 02:40 4,1 C 0,0 C 92 % 1008,4 hPa 0,0 l/m 0,4 km/h (0 Bft) O 80 0 min 0,000 mm 0,0 UV-I 0 W/m 2,9 C 4,1 C 1,6 km/h (1 Bft) 94,34 %
25.04.2017 02:42 4,1 C 0,0 C 92 % 1008,5 hPa 0,0 l/m 2,7 km/h (1 Bft) O 80 0 min 0,000 mm 0,0 UV-I 0 W/m 2,9 C 4,1 C 4,8 km/h (1 Bft) 94,00 %
25.04.2017 02:44 4,0 C 0,0 C 92 % 1008,4 hPa 0,0 l/m 1,2 km/h (1 Bft) O 80 0 min 0,000 mm 0,0 UV-I 0 W/m 2,8 C 4,0 C 3,2 km/h (1 Bft) 98,00 %
25.04.2017 02:46 3,9 C 0,0 C 92 % 1008,5 hPa 0,0 l/m 0,8 km/h (0 Bft) O 80 0 min 0,000 mm 0,0 UV-I 0 W/m 2,7 C 3,9 C 3,2 km/h (1 Bft) 95,12 %
25.04.2017 02:48 3,9 C 0,0 C 92 % 1008,4 hPa 0,0 l/m 2,0 km/h (1 Bft) O 80 0 min 0,000 mm 0,0 UV-I 0 W/m 2,7 C 3,9 C 3,2 km/h (1 Bft) 96,23 %
25.04.2017 02:50 3,9 C 0,0 C 92 % 1008,4 hPa 0,0 l/m 0,1 km/h (0 Bft) O 80 0 min 0,000 mm 0,0 UV-I 0 W/m 2,7 C 3,9 C 1,6 km/h (1 Bft) 100,00 %
25.04.2017 02:52 3,8 C 0,0 C 92 % 1008,5 hPa 0,0 l/m 0,9 km/h (0 Bft) O 80 0 min 0,000 mm 0,0 UV-I 0 W/m 2,6 C 3,8 C 3,2 km/h (1 Bft) 100,00 %
25.04.2017 02:54 3,8 C 0,0 C 92 % 1008,4 hPa 0,0 l/m 1,7 km/h (1 Bft) O 80 0 min 0,000 mm 0,0 UV-I 0 W/m 2,6 C 3,8 C 3,2 km/h (1 Bft) 100,00 %
25.04.2017 02:56 3,9 C 0,0 C 92 % 1008,4 hPa 0,0 l/m 0,3 km/h (0 Bft) O 80 0 min 0,000 mm 0,0 UV-I 0 W/m 2,7 C 3,9 C 1,6 km/h (1 Bft) 96,00 %
25.04.2017 02:58 3,9 C 0,0 C 92 % 1008,4 hPa 0,0 l/m 1,1 km/h (1 Bft) O 80 0 min 0,000 mm 0,0 UV-I 0 W/m 2,7 C 3,9 C 3,2 km/h (1 Bft) 100,00 %
25.04.2017 03:00 3,9 C 0,0 C 93 % 1008,4 hPa 0,0 l/m 1,9 km/h (1 Bft) O 80 0 min 0,000 mm 0,0 UV-I 0 W/m 2,9 C 3,9 C 3,2 km/h (1 Bft) 98,00 %
25.04.2017 03:02 3,9 C 0,0 C 92 % 1008,3 hPa 0,0 l/m 0,0 km/h (0 Bft) O 80 0 min 0,000 mm 0,0 UV-I 0 W/m 2,7 C 3,9 C 1,6 km/h (1 Bft) 100,00 %
25.04.2017 03:04 3,8 C 0,0 C 92 % 1008,3 hPa 0,0 l/m 1,0 km/h (0 Bft) O 80 0 min 0,000 mm 0,0 UV-I 0 W/m 2,6 C 3,8 C 3,2 km/h (1 Bft) 98,18 %
25.04.2017 03:06 3,8 C 0,0 C 92 % 1008,3 hPa 0,0 l/m 0,3 km/h (0 Bft) O 80 0 min 0,000 mm 0,0 UV-I 0 W/m 2,6 C 3,8 C 1,6 km/h (1 Bft) 100,00 %
25.04.2017 03:08 3,8 C 0,0 C 93 % 1008,3 hPa 0,0 l/m 1,2 km/h (1 Bft) O 80 0 min 0,000 mm 0,0 UV-I 0 W/m 2,8 C 3,8 C 3,2 km/h (1 Bft) 98,21 %
25.04.2017 03:10 3,8 C 0,0 C 92 % 1008,2 hPa 0,0 l/m 2,3 km/h (1 Bft) O 80 0 min 0,000 mm 0,0 UV-I 0 W/m 2,6 C 3,8 C 3,2 km/h (1 Bft) 100,00 %
25.04.2017 03:12 3,8 C 0,0 C 93 % 1008,2 hPa 0,0 l/m 0,9 km/h (0 Bft) O 80 0 min 0,000 mm 0,0 UV-I 0 W/m 2,8 C 3,8 C 1,6 km/h (1 Bft) 97,56 %
25.04.2017 03:14 3,9 C 0,0 C 93 % 1008,2 hPa 0,0 l/m 1,6 km/h (1 Bft) O 80 0 min 0,000 mm 0,0 UV-I 0 W/m 2,9 C 3,9 C 3,2 km/h (1 Bft) 98,00 %
25.04.2017 03:16 3,8 C 0,0 C 93 % 1008,2 hPa 0,0 l/m 0,5 km/h (0 Bft) O 80 0 min 0,000 mm 0,0 UV-I 0 W/m 2,8 C 3,8 C 3,2 km/h (1 Bft) 98,00 %
25.04.2017 03:18 3,8 C 0,0 C 93 % 1008,1 hPa 0,0 l/m 0,0 km/h (0 Bft) O 80 0 min 0,000 mm 0,0 UV-I 0 W/m 2,8 C 3,8 C 0,0 km/h (0 Bft) 97,37 %
25.04.2017 03:20 3,8 C 0,0 C 93 % 1008,1 hPa 0,0 l/m 1,7 km/h (1 Bft) O 80 0 min 0,000 mm 0,0 UV-I 0 W/m 2,8 C 3,8 C 3,2 km/h (1 Bft) 100,00 %
25.04.2017 03:22 3,8 C 0,0 C 93 % 1008,1 hPa 0,0 l/m 0,2 km/h (0 Bft) O 80 0 min 0,000 mm 0,0 UV-I 0 W/m 2,8 C 3,8 C 1,6 km/h (1 Bft) 97,37 %
25.04.2017 03:24 3,8 C 0,0 C 93 % 1008,1 hPa 0,0 l/m 0,1 km/h (0 Bft) O 80 0 min 0,000 mm 0,0 UV-I 0 W/m 2,8 C 3,8 C 1,6 km/h (1 Bft) 100,00 %
25.04.2017 03:26 3,8 C 0,0 C 93 % 1008,1 hPa 0,0 l/m 0,5 km/h (0 Bft) O 80 0 min 0,000 mm 0,0 UV-I 0 W/m 2,8 C 3,8 C 1,6 km/h (1 Bft) 100,00 %
25.04.2017 03:28 3,7 C 0,0 C 93 % 1008,1 hPa 0,0 l/m 1,7 km/h (1 Bft) O 80 0 min 0,000 mm 0,0 UV-I 0 W/m 2,7 C 3,7 C 3,2 km/h (1 Bft) 97,87 %
25.04.2017 03:30 3,7 C 0,0 C 93 % 1008,0 hPa 0,0 l/m 0,0 km/h (0 Bft) O 80 0 min 0,000 mm 0,0 UV-I 0 W/m 2,7 C 3,7 C 0,0 km/h (0 Bft) 98,00 %
25.04.2017 03:32 3,7 C 0,0 C 93 % 1008,0 hPa 0,0 l/m 0,0 km/h (0 Bft) O 80 0 min 0,000 mm 0,0 UV-I 0 W/m 2,7 C 3,7 C 0,0 km/h (0 Bft) 97,37 %
25.04.2017 03:34 3,7 C 0,0 C 93 % 1008,0 hPa 0,0 l/m 0,0 km/h (0 Bft) O 80 0 min 0,000 mm 0,0 UV-I 0 W/m 2,7 C 3,7 C 0,0 km/h (0 Bft) 98,00 %
25.04.2017 03:36 3,7 C 0,0 C 93 % 1007,9 hPa 0,0 l/m 1,0 km/h (0 Bft) O 80 0 min 0,000 mm 0,0 UV-I 0 W/m 2,7 C 3,7 C 3,2 km/h (1 Bft) 100,00 %
25.04.2017 03:38 3,7 C 0,0 C 93 % 1007,9 hPa 0,0 l/m 3,7 km/h (1 Bft) O 80 0 min 0,000 mm 0,0 UV-I 0 W/m 2,7 C 3,7 C 4,8 km/h (1 Bft) 96,00 %
25.04.2017 03:40 3,7 C 0,0 C 93 % 1007,9 hPa 0,0 l/m 3,8 km/h (1 Bft) O 80 0 min 0,000 mm 0,0 UV-I 0 W/m 2,7 C 3,7 C 4,8 km/h (1 Bft) 95,74 %
25.04.2017 03:42 3,6 C 0,0 C 93 % 1007,9 hPa 0,0 l/m 1,4 km/h (1 Bft) O 80 0 min 0,000 mm 0,0 UV-I 0 W/m 2,6 C 3,6 C 3,2 km/h (1 Bft) 97,44 %
25.04.2017 03:44 3,6 C 0,0 C 93 % 1007,9 hPa 0,0 l/m 0,0 km/h (0 Bft) O 80 0 min 0,000 mm 0,0 UV-I 0 W/m 2,6 C 3,6 C 0,0 km/h (0 Bft) 94,29 %
25.04.2017 03:46 3,7 C 0,0 C 93 % 1007,9 hPa 0,0 l/m 0,0 km/h (0 Bft) O 80 0 min 0,000 mm 0,0 UV-I 0 W/m 2,7 C 3,7 C 0,0 km/h (0 Bft) 96,77 %
25.04.2017 03:48 3,7 C 0,0 C 94 % 1007,9 hPa 0,0 l/m 0,0 km/h (0 Bft) O 80 0 min 0,000 mm 0,0 UV-I 0 W/m 2,8 C 3,7 C 0,0 km/h (0 Bft) 92,00 %
25.04.2017 03:50 3,8 C 0,0 C 93 % 1007,9 hPa 0,0 l/m 1,1 km/h (1 Bft) O 80 0 min 0,000 mm 0,0 UV-I 0 W/m 2,8 C 3,8 C 3,2 km/h (1 Bft) 94,74 %
25.04.2017 03:52 3,7 C 0,0 C 93 % 1007,9 hPa 0,0 l/m 1,0 km/h (0 Bft) O 80 0 min 0,000 mm 0,0 UV-I 0 W/m 2,7 C 3,7 C 3,2 km/h (1 Bft) 96,30 %
25.04.2017 03:54 3,7 C 0,0 C 93 % 1007,9 hPa 0,0 l/m 0,0 km/h (0 Bft) O 80 0 min 0,000 mm 0,0 UV-I 0 W/m 2,7 C 3,7 C 0,0 km/h (0 Bft) 96,00 %
25.04.2017 03:56 3,6 C 0,0 C 93 % 1007,9 hPa 0,0 l/m 0,0 km/h (0 Bft) O 80 0 min 0,000 mm 0,0 UV-I 0 W/m 2,6 C 3,6 C 0,0 km/h (0 Bft) 97,37 %
25.04.2017 03:58 3,6 C 0,0 C 93 % 1007,9 hPa 0,0 l/m 0,0 km/h (0 Bft) O 80 0 min 0,000 mm 0,0 UV-I 0 W/m 2,6 C 3,6 C 0,0 km/h (0 Bft) 92,00 %
25.04.2017 04:00 3,6 C 0,0 C 93 % 1007,8 hPa 0,0 l/m 0,0 km/h (0 Bft) O 80 0 min 0,000 mm 0,0 UV-I 0 W/m 2,6 C 3,6 C 1,6 km/h (1 Bft) 96,00 %
25.04.2017 04:02 3,6 C 0,0 C 93 % 1007,8 hPa 0,0 l/m 0,2 km/h (0 Bft) O 80 0 min 0,000 mm 0,0 UV-I 0 W/m 2,6 C 3,6 C 1,6 km/h (1 Bft) 92,31 %
25.04.2017 04:04 3,6 C 0,0 C 93 % 1007,8 hPa 0,0 l/m 0,0 km/h (0 Bft) O 80 0 min 0,000 mm 0,0 UV-I 0 W/m 2,6 C 3,6 C 0,0 km/h (0 Bft) 97,37 %
25.04.2017 04:06 3,6 C 0,0 C 94 % 1007,8 hPa 0,0 l/m 0,0 km/h (0 Bft) O 80 0 min 0,000 mm 0,0 UV-I 0 W/m 2,7 C 3,6 C 0,0 km/h (0 Bft) 96,23 %
25.04.2017 04:08 3,7 C 0,0 C 94 % 1007,8 hPa 0,0 l/m 0,2 km/h (0 Bft) O 80 0 min 0,000 mm 0,0 UV-I 0 W/m 2,8 C 3,7 C 1,6 km/h (1 Bft) 98,00 %
25.04.2017 04:10 3,8 C 0,0 C 94 % 1007,7 hPa 0,0 l/m 1,6 km/h (1 Bft) O 80 0 min 0,000 mm 0,0 UV-I 0 W/m 2,9 C 3,8 C 3,2 km/h (1 Bft) 94,74 %
25.04.2017 04:12 3,8 C 0,0 C 94 % 1007,8 hPa 0,0 l/m 2,3 km/h (1 Bft) O 80 0 min 0,000 mm 0,0 UV-I 0 W/m 2,9 C 3,8 C 3,2 km/h (1 Bft) 97,87 %
25.04.2017 04:14 3,7 C 0,0 C 93 % 1007,8 hPa 0,0 l/m 0,0 km/h (0 Bft) O 80 0 min 0,000 mm 0,0 UV-I 0 W/m 2,7 C 3,7 C 1,6 km/h (1 Bft) 98,00 %
25.04.2017 04:16 3,7 C 0,0 C 93 % 1007,7 hPa 0,0 l/m 0,0 km/h (0 Bft) O 80 0 min 0,000 mm 0,0 UV-I 0 W/m 2,7 C 3,7 C 0,0 km/h (0 Bft) 96,00 %
25.04.2017 04:18 3,7 C 0,0 C 93 % 1007,7 hPa 0,0 l/m 0,0 km/h (0 Bft) O 80 0 min 0,000 mm 0,0 UV-I 0 W/m 2,7 C 3,7 C 0,0 km/h (0 Bft) 100,00 %
25.04.2017 04:20 3,7 C 0,0 C 93 % 1007,8 hPa 0,0 l/m 0,3 km/h (0 Bft) O 80 0 min 0,000 mm 0,0 UV-I 0 W/m 2,7 C 3,7 C 1,6 km/h (1 Bft) 98,28 %
25.04.2017 04:22 3,8 C 0,0 C 94 % 1007,8 hPa 0,0 l/m 0,2 km/h (0 Bft) O 80 0 min 0,000 mm 0,0 UV-I 0 W/m 2,9 C 3,8 C 1,6 km/h (1 Bft) 100,00 %
25.04.2017 04:24 3,8 C 0,0 C 93 % 1007,7 hPa 0,0 l/m 0,0 km/h (0 Bft) O 80 0 min 0,000 mm 0,0 UV-I 0 W/m 2,8 C 3,8 C 0,0 km/h (0 Bft) 97,37 %
25.04.2017 04:26 3,8 C 0,0 C 93 % 1007,5 hPa 0,0 l/m 1,5 km/h (1 Bft) O 80 0 min 0,000 mm 0,0 UV-I 0 W/m 2,8 C 3,8 C 3,2 km/h (1 Bft) 98,15 %
25.04.2017 04:28 3,7 C 0,0 C 93 % 1007,5 hPa 0,0 l/m 2,6 km/h (1 Bft) O 80 0 min 0,000 mm 0,0 UV-I 0 W/m 2,7 C 3,7 C 3,2 km/h (1 Bft) 98,11 %
25.04.2017 04:30 3,6 C 0,0 C 93 % 1007,5 hPa 0,0 l/m 1,9 km/h (1 Bft) O 80 0 min 0,000 mm 0,0 UV-I 0 W/m 2,6 C 3,6 C 3,2 km/h (1 Bft) 98,00 %
25.04.2017 04:32 3,5 C 0,0 C 93 % 1007,5 hPa 0,0 l/m 0,8 km/h (0 Bft) O 80 0 min 0,000 mm 0,0 UV-I 0 W/m 2,5 C 3,5 C 1,6 km/h (1 Bft) 100,00 %
25.04.2017 04:34 3,4 C 0,0 C 93 % 1007,4 hPa 0,0 l/m 0,3 km/h (0 Bft) O 80 0 min 0,000 mm 0,0 UV-I 0 W/m 2,4 C 3,4 C 1,6 km/h (1 Bft) 96,23 %
25.04.2017 04:36 3,4 C 0,0 C 93 % 1007,4 hPa 0,0 l/m 0,0 km/h (0 Bft) O 80 0 min 0,000 mm 0,0 UV-I 0 W/m 2,4 C 3,4 C 0,0 km/h (0 Bft) 100,00 %
25.04.2017 04:38 3,4 C 0,0 C 94 % 1007,5 hPa 0,0 l/m 0,0 km/h (0 Bft) O 80 0 min 0,000 mm 0,0 UV-I 0 W/m 2,5 C 3,4 C 0,0 km/h (0 Bft) 97,56 %
25.04.2017 04:40 3,5 C 0,0 C 94 % 1007,5 hPa 0,0 l/m 0,7 km/h (0 Bft) O 80 0 min 0,000 mm 0,0 UV-I 0 W/m 2,6 C 3,5 C 3,2 km/h (1 Bft) 97,87 %
25.04.2017 04:42 3,4 C 0,0 C 94 % 1007,6 hPa 0,0 l/m 0,4 km/h (0 Bft) O 80 0 min 0,000 mm 0,0 UV-I 0 W/m 2,5 C 3,4 C 1,6 km/h (1 Bft) 96,00 %
25.04.2017 04:44 3,3 C 0,0 C 93 % 1007,5 hPa 0,0 l/m 0,0 km/h (0 Bft) O 80 0 min 0,000 mm 0,0 UV-I 0 W/m 2,3 C 3,3 C 0,0 km/h (0 Bft) 100,00 %
25.04.2017 04:46 3,3 C 0,0 C 94 % 1007,5 hPa 0,0 l/m 0,1 km/h (0 Bft) O 80 0 min 0,000 mm 0,0 UV-I 0 W/m 2,4 C 3,3 C 1,6 km/h (1 Bft) 98,11 %
25.04.2017 04:48 3,3 C 0,0 C 94 % 1007,5 hPa 0,0 l/m 0,2 km/h (0 Bft) O 80 0 min 0,000 mm 0,0 UV-I 0 W/m 2,4 C 3,3 C 1,6 km/h (1 Bft) 97,37 %
25.04.2017 04:50 3,2 C 0,0 C 94 % 1007,5 hPa 0,0 l/m 0,0 km/h (0 Bft) O 80 0 min 0,000 mm 0,0 UV-I 0 W/m 2,3 C 3,2 C 0,0 km/h (0 Bft) 98,21 %
25.04.2017 04:52 3,2 C 0,0 C 94 % 1007,5 hPa 0,0 l/m 0,0 km/h (0 Bft) O 80 0 min 0,000 mm 0,0 UV-I 0 W/m 2,3 C 3,2 C 0,0 km/h (0 Bft) 97,37 %
25.04.2017 04:54 3,3 C 0,0 C 94 % 1007,5 hPa 0,0 l/m 0,0 km/h (0 Bft) O 80 0 min 0,000 mm 0,0 UV-I 0 W/m 2,4 C 3,3 C 1,6 km/h (1 Bft) 98,00 %
25.04.2017 04:56 3,3 C 0,0 C 94 % 1007,5 hPa 0,0 l/m 0,0 km/h (0 Bft) O 80 0 min 0,000 mm 0,0 UV-I 0 W/m 2,4 C 3,3 C 0,0 km/h (0 Bft) 96,43 %
25.04.2017 04:58 3,3 C 0,0 C 94 % 1007,3 hPa 0,0 l/m 0,0 km/h (0 Bft) O 80 0 min 0,000 mm 0,0 UV-I 0 W/m 2,4 C 3,3 C 0,0 km/h (0 Bft) 100,00 %
25.04.2017 05:00 3,2 C 0,0 C 94 % 1007,3 hPa 0,0 l/m 0,1 km/h (0 Bft) O 80 0 min 0,000 mm 0,0 UV-I 0 W/m 2,3 C 3,2 C 1,6 km/h (1 Bft) 97,62 %
25.04.2017 05:02 3,1 C 0,0 C 94 % 1007,2 hPa 0,0 l/m 2,8 km/h (1 Bft) O 80 0 min 0,000 mm 0,0 UV-I 0 W/m 2,2 C 3,1 C 3,2 km/h (1 Bft) 100,00 %
25.04.2017 05:04 3,0 C 0,0 C 94 % 1007,2 hPa 0,0 l/m 2,1 km/h (1 Bft) O 80 0 min 0,000 mm 0,0 UV-I 0 W/m 2,1 C 3,0 C 3,2 km/h (1 Bft) 97,56 %
25.04.2017 05:06 3,1 C 0,0 C 94 % 1007,1 hPa 0,0 l/m 4,6 km/h (1 Bft) O 80 0 min 0,000 mm 0,0 UV-I 0 W/m 2,2 C 3,1 C 6,4 km/h (2 Bft) 98,21 %
25.04.2017 05:08 3,2 C 0,0 C 95 % 1007,0 hPa 0,0 l/m 6,5 km/h (2 Bft) O-SO 119 0 min 0,000 mm 0,0 UV-I 0 W/m 2,5 C 3,1 C 9,7 km/h (2 Bft) 100,00 %
25.04.2017 05:10 3,3 C 0,0 C 94 % 1007,0 hPa 0,0 l/m 5,0 km/h (1 Bft) O-SO 120 0 min 0,000 mm 0,0 UV-I 0 W/m 2,4 C 3,3 C 6,4 km/h (2 Bft) 98,00 %
25.04.2017 05:12 3,2 C 0,0 C 94 % 1007,0 hPa 0,0 l/m 3,0 km/h (1 Bft) O-SO 120 0 min 0,000 mm 0,0 UV-I 0 W/m 2,3 C 3,2 C 4,8 km/h (1 Bft) 95,12 %
25.04.2017 05:14 3,2 C 0,0 C 94 % 1007,0 hPa 0,0 l/m 1,4 km/h (1 Bft) O-SO 120 0 min 0,000 mm 0,0 UV-I 0 W/m 2,3 C 3,2 C 3,2 km/h (1 Bft) 98,11 %
25.04.2017 05:16 3,1 C 0,0 C 94 % 1007,1 hPa 0,0 l/m 1,4 km/h (1 Bft) O-SO 119 0 min 0,000 mm 0,0 UV-I 0 W/m 2,2 C 3,1 C 6,4 km/h (2 Bft) 96,00 %
25.04.2017 05:18 2,9 C 0,0 C 94 % 1007,1 hPa 0,0 l/m 1,9 km/h (1 Bft) O-SO 119 0 min 0,000 mm 0,0 UV-I 0 W/m 2,0 C 2,9 C 3,2 km/h (1 Bft) 94,74 %
25.04.2017 05:20 2,7 C 0,0 C 93 % 1007,1 hPa 0,0 l/m 0,0 km/h (0 Bft) O-SO 119 0 min 0,000 mm 0,0 UV-I 0 W/m 1,7 C 2,7 C 1,6 km/h (1 Bft) 96,00 %
25.04.2017 05:22 2,5 C 0,0 C 93 % 1007,2 hPa 0,0 l/m 0,8 km/h (0 Bft) O-SO 119 0 min 0,000 mm 0,0 UV-I 0 W/m 1,5 C 2,5 C 1,6 km/h (1 Bft) 95,74 %
25.04.2017 05:24 2,4 C 0,0 C 94 % 1007,3 hPa 0,0 l/m 1,6 km/h (1 Bft) O-SO 119 0 min 0,000 mm 0,0 UV-I 0 W/m 1,5 C 2,4 C 3,2 km/h (1 Bft) 95,45 %
25.04.2017 05:26 2,4 C 0,0 C 94 % 1007,2 hPa 0,0 l/m 0,1 km/h (0 Bft) O-SO 119 0 min 0,000 mm 0,0 UV-I 0 W/m 1,5 C 2,4 C 1,6 km/h (1 Bft) 98,00 %
25.04.2017 05:28 2,6 C 0,0 C 95 % 1007,1 hPa 0,0 l/m 0,0 km/h (0 Bft) O-SO 119 0 min 0,000 mm 0,0 UV-I 0 W/m 1,9 C 2,6 C 0,0 km/h (0 Bft) 95,74 %
25.04.2017 05:30 2,6 C 0,0 C 95 % 1007,1 hPa 0,0 l/m 0,8 km/h (0 Bft) O-SO 119 0 min 0,000 mm 0,0 UV-I 0 W/m 1,9 C 2,6 C 3,2 km/h (1 Bft) 95,12 %
25.04.2017 05:32 2,4 C 0,0 C 94 % 1007,0 hPa 0,0 l/m 2,4 km/h (1 Bft) O-SO 119 0 min 0,000 mm 0,0 UV-I 0 W/m 1,5 C 2,4 C 4,8 km/h (1 Bft) 96,00 %
25.04.2017 05:34 2,5 C 0,0 C 94 % 1007,0 hPa 0,0 l/m 2,5 km/h (1 Bft) O-SO 119 0 min 0,000 mm 0,0 UV-I 0 W/m 1,6 C 2,5 C 4,8 km/h (1 Bft) 98,00 %
25.04.2017 05:36 2,5 C 0,0 C 95 % 1007,1 hPa 0,0 l/m 0,0 km/h (0 Bft) O-SO 119 0 min 0,000 mm 0,0 UV-I 0 W/m 1,8 C 2,5 C 0,0 km/h (0 Bft) 96,00 %
25.04.2017 05:38 2,6 C 0,0 C 95 % 1007,0 hPa 0,0 l/m 0,0 km/h (0 Bft) O-SO 119 0 min 0,000 mm 0,0 UV-I 0 W/m 1,9 C 2,6 C 0,0 km/h (0 Bft) 97,87 %
25.04.2017 05:40 2,6 C 0,0 C 95 % 1007,0 hPa 0,0 l/m 0,0 km/h (0 Bft) O-SO 119 0 min 0,000 mm 0,0 UV-I 0 W/m 1,9 C 2,6 C 0,0 km/h (0 Bft) 91,49 %
25.04.2017 05:42 2,7 C 0,0 C 95 % 1007,0 hPa 0,0 l/m 0,1 km/h (0 Bft) O-SO 119 0 min 0,000 mm 0,0 UV-I 0 W/m 2,0 C 2,7 C 1,6 km/h (1 Bft) 97,30 %
25.04.2017 05:44 2,7 C 0,0 C 95 % 1006,9 hPa 0,0 l/m 3,8 km/h (1 Bft) O-SO 119 0 min 0,000 mm 0,0 UV-I 0 W/m 2,0 C 2,7 C 4,8 km/h (1 Bft) 94,34 %
25.04.2017 05:46 2,7 C 0,0 C 95 % 1006,8 hPa 0,0 l/m 3,9 km/h (1 Bft) O-SO 119 0 min 0,000 mm 0,0 UV-I 1 W/m 2,0 C 2,7 C 4,8 km/h (1 Bft) 95,74 %
25.04.2017 05:48 2,6 C 0,0 C 95 % 1006,8 hPa 0,0 l/m 3,7 km/h (1 Bft) O-SO 119 0 min 0,000 mm 0,0 UV-I 5 W/m 1,9 C 2,6 C 4,8 km/h (1 Bft) 95,74 %
25.04.2017 05:50 2,6 C 0,0 C 95 % 1006,8 hPa 0,0 l/m 2,4 km/h (1 Bft) O-SO 119 0 min 0,000 mm 0,0 UV-I 5 W/m 1,9 C 2,6 C 4,8 km/h (1 Bft) 92,00 %
25.04.2017 05:52 2,5 C 0,0 C 95 % 1006,8 hPa 0,0 l/m 2,3 km/h (1 Bft) O-SO 119 0 min 0,000 mm 0,0 UV-I 5 W/m 1,8 C 2,5 C 3,2 km/h (1 Bft) 92,31 %
25.04.2017 05:54 2,4 C 0,0 C 94 % 1006,8 hPa 0,0 l/m 1,0 km/h (0 Bft) O-SO 119 0 min 0,000 mm 0,0 UV-I 6 W/m 1,5 C 2,4 C 4,8 km/h (1 Bft) 94,00 %
25.04.2017 05:56 2,5 C 0,0 C 95 % 1006,8 hPa 0,0 l/m 0,1 km/h (0 Bft) O-SO 119 0 min 0,000 mm 0,0 UV-I 7 W/m 1,8 C 2,5 C 1,6 km/h (1 Bft) 96,00 %
25.04.2017 05:58 2,6 C 0,0 C 95 % 1006,7 hPa 0,0 l/m 0,0 km/h (0 Bft) O-SO 119 0 min 0,000 mm 0,0 UV-I 7 W/m 1,9 C 2,6 C 0,0 km/h (0 Bft) 85,37 %
25.04.2017 06:00 2,7 C 0,0 C 95 % 1006,8 hPa 0,0 l/m 0,0 km/h (0 Bft) O-SO 119 0 min 0,000 mm 0,0 UV-I 7 W/m 2,0 C 2,7 C 0,0 km/h (0 Bft) 92,45 %
25.04.2017 06:02 2,7 C 0,0 C 95 % 1006,9 hPa 0,0 l/m 0,0 km/h (0 Bft) O-SO 119 0 min 0,000 mm 0,0 UV-I 9 W/m 2,0 C 2,7 C 0,0 km/h (0 Bft) 93,62 %
25.04.2017 06:04 2,6 C 0,0 C 95 % 1006,9 hPa 0,0 l/m 0,0 km/h (0 Bft) O-SO 119 0 min 0,000 mm 0,0 UV-I 9 W/m 1,9 C 2,6 C 0,0 km/h (0 Bft) 96,00 %
25.04.2017 06:06 2,6 C 0,0 C 95 % 1006,8 hPa 0,0 l/m 0,0 km/h (0 Bft) O-SO 119 0 min 0,000 mm 0,0 UV-I 10 W/m 1,9 C 2,6 C 0,0 km/h (0 Bft) 89,47 %
25.04.2017 06:08 2,5 C 0,0 C 94 % 1006,8 hPa 0,0 l/m 0,0 km/h (0 Bft) O-SO 119 2 min 0,000 mm 0,0 UV-I 11 W/m 1,6 C 2,5 C 0,0 km/h (0 Bft) 95,74 %
25.04.2017 06:10 2,4 C 0,0 C 94 % 1006,8 hPa 0,0 l/m 0,0 km/h (0 Bft) O-SO 119 0 min 0,000 mm 0,0 UV-I 12 W/m 1,5 C 2,4 C 0,0 km/h (0 Bft) 92,00 %
25.04.2017 06:12 2,4 C 0,0 C 95 % 1006,8 hPa 0,0 l/m 0,0 km/h (0 Bft) O-SO 119 0 min 0,000 mm 0,0 UV-I 14 W/m 1,7 C 2,4 C 0,0 km/h (0 Bft) 96,00 %
25.04.2017 06:14 2,3 C 0,0 C 95 % 1006,8 hPa 0,0 l/m 2,1 km/h (1 Bft) O-SO 119 0 min 0,000 mm 0,0 UV-I 16 W/m 1,6 C 2,3 C 3,2 km/h (1 Bft) 93,18 %
25.04.2017 06:16 2,4 C 0,0 C 95 % 1006,8 hPa 0,0 l/m 0,3 km/h (0 Bft) O-SO 119 0 min 0,000 mm 0,0 UV-I 15 W/m 1,7 C 2,4 C 1,6 km/h (1 Bft) 89,36 %
25.04.2017 06:18 2,4 C 0,0 C 95 % 1006,8 hPa 0,0 l/m 1,0 km/h (0 Bft) O-SO 119 0 min 0,000 mm 0,0 UV-I 14 W/m 1,7 C 2,4 C 3,2 km/h (1 Bft) 100,00 %
25.04.2017 06:20 2,4 C 0,0 C 95 % 1006,8 hPa 0,0 l/m 1,5 km/h (1 Bft) O-SO 119 0 min 0,000 mm 0,0 UV-I 14 W/m 1,7 C 2,4 C 3,2 km/h (1 Bft) 96,00 %
25.04.2017 06:22 2,4 C 0,0 C 95 % 1006,8 hPa 0,0 l/m 0,0 km/h (0 Bft) O-SO 119 0 min 0,000 mm 0,0 UV-I 16 W/m 1,7 C 2,4 C 0,0 km/h (0 Bft) 93,62 %
25.04.2017 06:24 2,4 C 0,0 C 95 % 1006,8 hPa 0,0 l/m 0,0 km/h (0 Bft) O-SO 119 0 min 0,000 mm 0,0 UV-I 17 W/m 1,7 C 2,4 C 0,0 km/h (0 Bft) 94,44 %
25.04.2017 06:26 2,4 C 0,0 C 95 % 1006,9 hPa 0,0 l/m 1,3 km/h (1 Bft) O-SO 119 0 min 0,000 mm 0,0 UV-I 18 W/m 1,7 C 2,4 C 3,2 km/h (1 Bft) 98,11 %
25.04.2017 06:28 2,3 C 0,0 C 95 % 1006,8 hPa 0,0 l/m 0,0 km/h (0 Bft) O-SO 119 0 min 0,000 mm 0,0 UV-I 19 W/m 1,6 C 2,3 C 0,0 km/h (0 Bft) 98,11 %
25.04.2017 06:30 2,3 C 0,0 C 95 % 1006,9 hPa 0,0 l/m 0,0 km/h (0 Bft) O-SO 119 0 min 0,000 mm 0,0 UV-I 21 W/m 1,6 C 2,3 C 1,6 km/h (1 Bft) 95,12 %
25.04.2017 06:32 2,2 C 0,0 C 95 % 1006,9 hPa 0,0 l/m 0,2 km/h (0 Bft) O-SO 119 0 min 0,000 mm 0,0 UV-I 24 W/m 1,5 C 2,2 C 1,6 km/h (1 Bft) 98,00 %
25.04.2017 06:34 2,3 C 0,0 C 95 % 1006,9 hPa 0,0 l/m 0,0 km/h (0 Bft) O-SO 119 0 min 0,000 mm 0,0 UV-I 28 W/m 1,6 C 2,3 C 0,0 km/h (0 Bft) 100,00 %
25.04.2017 06:36 2,3 C 0,0 C 95 % 1006,8 hPa 0,0 l/m 0,0 km/h (0 Bft) O-SO 119 0 min 0,000 mm 0,0 UV-I 33 W/m 1,6 C 2,3 C 0,0 km/h (0 Bft) 100,00 %
25.04.2017 06:38 2,5 C 0,0 C 95 % 1006,9 hPa 0,0 l/m 0,0 km/h (0 Bft) O-SO 119 0 min 0,000 mm 0,0 UV-I 44 W/m 1,8 C 2,5 C 0,0 km/h (0 Bft) 100,00 %
25.04.2017 06:40 2,5 C 0,0 C 95 % 1006,8 hPa 0,0 l/m 0,0 km/h (0 Bft) O-SO 119 0 min 0,000 mm 0,0 UV-I 51 W/m 1,8 C 2,5 C 0,0 km/h (0 Bft) 100,00 %
25.04.2017 06:42 2,5 C 0,0 C 95 % 1006,7 hPa 0,0 l/m 0,6 km/h (0 Bft) O-SO 119 2 min 0,000 mm 0,0 UV-I 67 W/m 1,8 C 2,5 C 1,6 km/h (1 Bft) 94,44 %
25.04.2017 06:44 2,6 C 0,0 C 95 % 1006,7 hPa 0,0 l/m 0,9 km/h (0 Bft) O-SO 119 2 min 0,000 mm 0,0 UV-I 71 W/m 1,9 C 2,6 C 1,6 km/h (1 Bft) 98,11 %
25.04.2017 06:46 2,6 C 0,0 C 95 % 1006,8 hPa 0,0 l/m 0,1 km/h (0 Bft) O-SO 119 2 min 0,000 mm 0,0 UV-I 86 W/m 1,9 C 2,6 C 1,6 km/h (1 Bft) 97,37 %
25.04.2017 06:48 2,7 C 0,0 C 95 % 1006,8 hPa 0,0 l/m 0,1 km/h (0 Bft) O-SO 119 2 min 0,000 mm 0,0 UV-I 87 W/m 2,0 C 2,7 C 1,6 km/h (1 Bft) 100,00 %
25.04.2017 06:50 2,7 C 0,0 C 95 % 1006,9 hPa 0,0 l/m 1,1 km/h (1 Bft) O-SO 119 2 min 0,000 mm 0,0 UV-I 93 W/m 2,0 C 2,7 C 3,2 km/h (1 Bft) 97,87 %
25.04.2017 06:52 2,7 C 0,0 C 95 % 1006,9 hPa 0,0 l/m 0,0 km/h (0 Bft) O-SO 119 2 min 0,000 mm 0,0 UV-I 90 W/m 2,0 C 2,7 C 0,0 km/h (0 Bft) 96,00 %
25.04.2017 06:54 2,8 C 0,0 C 95 % 1006,9 hPa 0,0 l/m 0,0 km/h (0 Bft) O-SO 119 2 min 0,000 mm 0,0 UV-I 93 W/m 2,1 C 2,8 C 0,0 km/h (0 Bft) 93,62 %
25.04.2017 06:56 2,8 C 0,0 C 95 % 1006,9 hPa 0,0 l/m 0,0 km/h (0 Bft) O-SO 119 2 min 0,000 mm 0,0 UV-I 101 W/m 2,1 C 2,8 C 0,0 km/h (0 Bft) 94,87 %
25.04.2017 06:58 2,8 C 0,0 C 95 % 1006,9 hPa 0,0 l/m 0,0 km/h (0 Bft) O-SO 119 2 min 0,000 mm 0,0 UV-I 108 W/m 2,1 C 2,8 C 0,0 km/h (0 Bft) 98,00 %
25.04.2017 07:00 2,9 C 0,0 C 95 % 1006,9 hPa 0,0 l/m 0,0 km/h (0 Bft) O-SO 119 2 min 0,025 mm 0,0 UV-I 111 W/m 2,2 C 2,9 C 0,0 km/h (0 Bft) 100,00 %
25.04.2017 07:02 2,9 C 0,0 C 95 % 1006,9 hPa 0,0 l/m 0,0 km/h (0 Bft) O-SO 119 2 min 0,000 mm 0,0 UV-I 114 W/m 2,2 C 2,9 C 0,0 km/h (0 Bft) 97,56 %
25.04.2017 07:04 3,0 C 0,0 C 95 % 1006,9 hPa 0,0 l/m 0,0 km/h (0 Bft) O-SO 119 2 min 0,000 mm 0,0 UV-I 122 W/m 2,3 C 3,0 C 0,0 km/h (0 Bft) 91,07 %
25.04.2017 07:06 3,2 C 0,0 C 96 % 1007,0 hPa 0,0 l/m 0,8 km/h (0 Bft) O-SO 119 2 min 0,000 mm 0,0 UV-I 131 W/m 2,6 C 3,2 C 3,2 km/h (1 Bft) 97,87 %
25.04.2017 07:08 3,4 C 0,0 C 96 % 1007,0 hPa 0,0 l/m 0,2 km/h (0 Bft) O-SO 119 2 min 0,000 mm 0,0 UV-I 140 W/m 2,8 C 3,4 C 1,6 km/h (1 Bft) 97,37 %
25.04.2017 07:10 3,6 C 0,0 C 96 % 1007,0 hPa 0,0 l/m 0,0 km/h (0 Bft) O-SO 119 2 min 0,000 mm 0,0 UV-I 148 W/m 3,0 C 3,6 C 0,0 km/h (0 Bft) 100,00 %
25.04.2017 07:12 3,7 C 0,0 C 96 % 1006,9 hPa 0,0 l/m 0,0 km/h (0 Bft) O-SO 119 2 min 0,000 mm 0,0 UV-I 147 W/m 3,1 C 3,7 C 0,0 km/h (0 Bft) 94,74 %
25.04.2017 07:14 3,8 C 0,0 C 96 % 1006,9 hPa 0,0 l/m 0,0 km/h (0 Bft) O-SO 119 2 min 0,000 mm 0,0 UV-I 151 W/m 3,2 C 3,8 C 0,0 km/h (0 Bft) 94,00 %
25.04.2017 07:16 4,0 C 0,0 C 95 % 1006,9 hPa 0,0 l/m 0,0 km/h (0 Bft) O-SO 119 2 min 0,000 mm 0,0 UV-I 158 W/m 3,3 C 4,0 C 0,0 km/h (0 Bft) 96,23 %
25.04.2017 07:18 4,2 C 0,0 C 95 % 1007,0 hPa 0,0 l/m 0,0 km/h (0 Bft) O-SO 119 2 min 0,000 mm 0,0 UV-I 150 W/m 3,5 C 4,2 C 0,0 km/h (0 Bft) 95,74 %
25.04.2017 07:20 4,3 C 0,0 C 95 % 1007,1 hPa 0,0 l/m 0,9 km/h (0 Bft) O-SO 119 0 min 0,000 mm 0,0 UV-I 113 W/m 3,6 C 4,3 C 4,8 km/h (1 Bft) 97,37 %
25.04.2017 07:22 4,4 C 0,0 C 94 % 1006,9 hPa 0,0 l/m 0,6 km/h (0 Bft) O-SO 119 0 min 0,000 mm 0,0 UV-I 122 W/m 3,5 C 4,4 C 3,2 km/h (1 Bft) 97,87 %
25.04.2017 07:24 4,4 C 0,0 C 94 % 1007,0 hPa 0,0 l/m 1,8 km/h (1 Bft) O-SO 119 2 min 0,000 mm 0,0 UV-I 140 W/m 3,5 C 4,4 C 3,2 km/h (1 Bft) 100,00 %
25.04.2017 07:26 4,6 C 0,0 C 94 % 1007,0 hPa 0,0 l/m 0,0 km/h (0 Bft) O-SO 119 2 min 0,000 mm 0,0 UV-I 137 W/m 3,7 C 4,6 C 1,6 km/h (1 Bft) 97,87 %
25.04.2017 07:28 4,7 C 0,0 C 94 % 1007,0 hPa 0,0 l/m 0,6 km/h (0 Bft) O-SO 119 2 min 0,000 mm 0,0 UV-I 153 W/m 3,8 C 4,7 C 3,2 km/h (1 Bft) 97,73 %
25.04.2017 07:30 4,7 C 0,0 C 94 % 1007,1 hPa 0,0 l/m 1,1 km/h (1 Bft) O-SO 119 0 min 0,000 mm 0,0 UV-I 99 W/m 3,8 C 4,7 C 3,2 km/h (1 Bft) 97,56 %
25.04.2017 07:32 4,8 C 0,0 C 93 % 1007,1 hPa 0,0 l/m 2,2 km/h (1 Bft) O-SO 119 0 min 0,000 mm 0,0 UV-I 87 W/m 3,8 C 4,8 C 4,8 km/h (1 Bft) 98,00 %
25.04.2017 07:34 4,8 C 0,0 C 93 % 1007,2 hPa 0,0 l/m 1,8 km/h (1 Bft) O-SO 119 2 min 0,000 mm 0,0 UV-I 164 W/m 3,8 C 4,8 C 3,2 km/h (1 Bft) 98,00 %
25.04.2017 07:36 4,8 C 0,0 C 93 % 1007,1 hPa 0,0 l/m 1,3 km/h (1 Bft) O-SO 119 2 min 0,000 mm 0,0 UV-I 250 W/m 3,8 C 4,8 C 3,2 km/h (1 Bft) 100,00 %
25.04.2017 07:38 4,9 C 0,0 C 92 % 1007,2 hPa 0,0 l/m 0,0 km/h (0 Bft) O-SO 119 2 min 0,000 mm 0,0 UV-I 262 W/m 3,7 C 4,9 C 1,6 km/h (1 Bft) 100,00 %
25.04.2017 07:40 4,9 C 0,0 C 92 % 1007,2 hPa 0,0 l/m 1,2 km/h (1 Bft) O-SO 119 2 min 0,000 mm 0,0 UV-I 254 W/m 3,7 C 4,9 C 3,2 km/h (1 Bft) 97,44 %
25.04.2017 07:42 5,1 C 0,0 C 92 % 1007,1 hPa 0,0 l/m 1,3 km/h (1 Bft) O-SO 119 2 min 0,000 mm 0,0 UV-I 277 W/m 3,9 C 5,1 C 3,2 km/h (1 Bft) 100,00 %
25.04.2017 07:44 5,3 C 0,0 C 92 % 1007,1 hPa 0,0 l/m 0,5 km/h (0 Bft) O-SO 119 2 min 0,000 mm 0,0 UV-I 289 W/m 4,1 C 5,3 C 1,6 km/h (1 Bft) 98,39 %
25.04.2017 07:46 5,6 C 0,0 C 91 % 1007,0 hPa 0,0 l/m 0,8 km/h (0 Bft) O-SO 119 2 min 0,000 mm 0,0 UV-I 293 W/m 4,2 C 5,6 C 3,2 km/h (1 Bft) 92,68 %
25.04.2017 07:48 5,8 C 0,0 C 92 % 1007,0 hPa 0,0 l/m 5,0 km/h (1 Bft) O-SO 117 2 min 0,000 mm 0,0 UV-I 297 W/m 4,6 C 5,8 C 9,7 km/h (2 Bft) 97,87 %
25.04.2017 07:50 6,0 C 0,0 C 91 % 1007,1 hPa 0,0 l/m 1,4 km/h (1 Bft) O-SO 117 2 min 0,000 mm 0,0 UV-I 302 W/m 4,6 C 6,0 C 3,2 km/h (1 Bft) 92,68 %
25.04.2017 07:52 6,1 C 0,0 C 89 % 1007,1 hPa 0,0 l/m 1,0 km/h (0 Bft) O-SO 114 2 min 0,000 mm 0,0 UV-I 279 W/m 4,4 C 6,1 C 4,8 km/h (1 Bft) 100,00 %
25.04.2017 07:54 6,2 C 0,0 C 89 % 1007,2 hPa 0,0 l/m 0,8 km/h (0 Bft) O-SO 114 2 min 0,000 mm 0,0 UV-I 337 W/m 4,5 C 6,2 C 3,2 km/h (1 Bft) 100,00 %
25.04.2017 07:56 6,3 C 0,0 C 90 % 1007,3 hPa 0,0 l/m 0,7 km/h (0 Bft) O-SO 114 2 min 0,000 mm 0,0 UV-I 336 W/m 4,8 C 6,3 C 3,2 km/h (1 Bft) 98,00 %
25.04.2017 07:58 6,4 C 0,0 C 89 % 1007,3 hPa 0,0 l/m 0,1 km/h (0 Bft) O-SO 114 2 min 0,000 mm 0,0 UV-I 251 W/m 4,7 C 6,4 C 1,6 km/h (1 Bft) 100,00 %
25.04.2017 08:00 6,4 C 0,0 C 88 % 1007,3 hPa 0,0 l/m 0,4 km/h (0 Bft) O-SO 114 0 min 0,000 mm 0,0 UV-I 165 W/m 4,6 C 6,4 C 1,6 km/h (1 Bft) 93,62 %
25.04.2017 08:02 6,3 C 0,0 C 89 % 1007,3 hPa 0,0 l/m 1,5 km/h (1 Bft) O-SO 114 0 min 0,077 mm 0,0 UV-I 127 W/m 4,6 C 6,3 C 3,2 km/h (1 Bft) 96,00 %
25.04.2017 08:04 6,3 C 0,0 C 89 % 1007,2 hPa 0,0 l/m 0,5 km/h (0 Bft) O-SO 114 0 min 0,000 mm 0,0 UV-I 119 W/m 4,6 C 6,3 C 1,6 km/h (1 Bft) 95,74 %
25.04.2017 08:06 6,3 C 0,0 C 90 % 1007,3 hPa 0,0 l/m 0,0 km/h (0 Bft) O-SO 114 0 min 0,000 mm 0,4 UV-I 188 W/m 4,8 C 6,3 C 0,0 km/h (0 Bft) 95,74 %
25.04.2017 08:08 6,4 C 0,0 C 90 % 1007,3 hPa 0,0 l/m 0,4 km/h (0 Bft) O-SO 114 0 min 0,000 mm 0,5 UV-I 189 W/m 4,9 C 6,4 C 1,6 km/h (1 Bft) 98,00 %
25.04.2017 08:10 6,5 C 0,0 C 89 % 1007,3 hPa 0,0 l/m 2,6 km/h (1 Bft) O-SO 114 2 min 0,000 mm 0,6 UV-I 348 W/m 4,8 C 6,5 C 4,8 km/h (1 Bft) 97,56 %
25.04.2017 08:12 6,7 C 0,0 C 88 % 1007,2 hPa 0,0 l/m 2,5 km/h (1 Bft) O-SO 114 2 min 0,000 mm 0,6 UV-I 303 W/m 4,9 C 6,7 C 4,8 km/h (1 Bft) 97,56 %
25.04.2017 08:14 6,9 C 0,0 C 87 % 1007,2 hPa 0,0 l/m 5,2 km/h (1 Bft) O-NO 60 2 min 0,000 mm 0,6 UV-I 334 W/m 4,9 C 6,9 C 8,0 km/h (2 Bft) 98,21 %
25.04.2017 08:16 7,1 C 0,0 C 86 % 1007,3 hPa 0,0 l/m 2,1 km/h (1 Bft) O-NO 60 2 min 0,000 mm 0,6 UV-I 302 W/m 4,9 C 7,1 C 4,8 km/h (1 Bft) 97,22 %
25.04.2017 08:18 7,3 C 0,0 C 86 % 1007,3 hPa 0,0 l/m 2,4 km/h (1 Bft) O-NO 60 2 min 0,000 mm 0,7 UV-I 337 W/m 5,1 C 7,3 C 6,4 km/h (2 Bft) 96,23 %
25.04.2017 08:20 7,5 C 0,0 C 85 % 1007,3 hPa 0,0 l/m 5,6 km/h (1 Bft) O-SO 115 2 min 0,000 mm 0,7 UV-I 357 W/m 5,1 C 7,5 C 8,0 km/h (2 Bft) 95,74 %
25.04.2017 08:22 7,8 C 0,0 C 86 % 1007,1 hPa 0,0 l/m 11,7 km/h (2 Bft) O-SO 110 2 min 0,000 mm 0,7 UV-I 373 W/m 5,6 C 4,1 C 14,5 km/h (3 Bft) 95,12 %
25.04.2017 08:24 8,0 C 0,0 C 85 % 1007,1 hPa 0,0 l/m 9,7 km/h (2 Bft) O 101 2 min 0,000 mm 0,7 UV-I 381 W/m 5,6 C 5,6 C 14,5 km/h (3 Bft) 96,43 %
25.04.2017 08:26 8,2 C 0,0 C 84 % 1007,1 hPa 0,0 l/m 8,6 km/h (2 Bft) O 86 2 min 0,000 mm 0,7 UV-I 362 W/m 5,7 C 6,5 C 12,9 km/h (3 Bft) 97,56 %
25.04.2017 08:28 8,4 C 0,0 C 82 % 1007,1 hPa 0,0 l/m 8,0 km/h (2 Bft) O 94 2 min 0,000 mm 0,8 UV-I 377 W/m 5,5 C 7,2 C 14,5 km/h (3 Bft) 95,74 %
25.04.2017 08:30 8,6 C 0,0 C 80 % 1007,1 hPa 0,0 l/m 5,6 km/h (1 Bft) O 84 2 min 0,000 mm 0,8 UV-I 438 W/m 5,3 C 8,6 C 9,7 km/h (2 Bft) 98,00 %
25.04.2017 08:32 8,7 C 0,0 C 80 % 1006,9 hPa 0,0 l/m 8,3 km/h (2 Bft) O-SO 113 2 min 0,000 mm 0,9 UV-I 447 W/m 5,4 C 7,3 C 14,5 km/h (3 Bft) 95,74 %
25.04.2017 08:34 8,8 C 0,0 C 79 % 1007,1 hPa 0,0 l/m 5,5 km/h (1 Bft) O-SO 105 2 min 0,000 mm 0,9 UV-I 452 W/m 5,4 C 8,8 C 9,7 km/h (2 Bft) 90,00 %
25.04.2017 08:36 8,8 C 0,0 C 78 % 1007,2 hPa 0,0 l/m 1,6 km/h (1 Bft) O-SO 105 2 min 0,000 mm 0,8 UV-I 390 W/m 5,2 C 8,8 C 4,8 km/h (1 Bft) 100,00 %
25.04.2017 08:38 8,8 C 0,0 C 77 % 1007,3 hPa 0,0 l/m 0,5 km/h (0 Bft) O-SO 105 2 min 0,000 mm 0,8 UV-I 314 W/m 5,0 C 8,8 C 1,6 km/h (1 Bft) 94,34 %
25.04.2017 08:40 8,9 C 0,0 C 78 % 1007,4 hPa 0,0 l/m 1,4 km/h (1 Bft) O-SO 105 2 min 0,000 mm 0,9 UV-I 389 W/m 5,3 C 8,9 C 3,2 km/h (1 Bft) 92,68 %
25.04.2017 08:42 9,1 C 0,0 C 77 % 1007,3 hPa 0,0 l/m 2,3 km/h (1 Bft) O-NO 77 2 min 0,000 mm 0,9 UV-I 430 W/m 5,3 C 9,1 C 4,8 km/h (1 Bft) 94,34 %
25.04.2017 08:44 9,3 C 0,0 C 77 % 1007,5 hPa 0,0 l/m 3,1 km/h (1 Bft) O-NO 77 2 min 0,000 mm 1,0 UV-I 462 W/m 5,5 C 9,3 C 4,8 km/h (1 Bft) 100,00 %
25.04.2017 08:46 9,5 C 0,0 C 77 % 1007,5 hPa 0,0 l/m 3,5 km/h (1 Bft) O-NO 76 2 min 0,000 mm 1,0 UV-I 513 W/m 5,7 C 9,5 C 4,8 km/h (1 Bft) 94,64 %
25.04.2017 08:48 9,6 C 0,0 C 78 % 1007,4 hPa 0,0 l/m 2,9 km/h (1 Bft) NO 40 2 min 0,000 mm 0,9 UV-I 465 W/m 6,0 C 9,6 C 6,4 km/h (2 Bft) 93,62 %
25.04.2017 08:50 9,7 C 0,0 C 75 % 1007,4 hPa 0,0 l/m 5,9 km/h (2 Bft) O-NO 57 2 min 0,000 mm 0,8 UV-I 456 W/m 5,5 C 9,7 C 8,0 km/h (2 Bft) 92,68 %
25.04.2017 08:52 9,7 C 0,0 C 76 % 1007,3 hPa 0,0 l/m 6,3 km/h (2 Bft) NO 48 2 min 0,000 mm 0,8 UV-I 379 W/m 5,7 C 9,7 C 9,7 km/h (2 Bft) 97,87 %
25.04.2017 08:54 9,7 C 0,0 C 78 % 1007,3 hPa 0,0 l/m 5,6 km/h (1 Bft) NO 38 0 min 0,000 mm 0,8 UV-I 257 W/m 6,1 C 9,7 C 8,0 km/h (2 Bft) 92,45 %
25.04.2017 08:56 9,6 C 0,0 C 79 % 1007,4 hPa 0,0 l/m 7,3 km/h (2 Bft) NO 40 0 min 0,000 mm 0,8 UV-I 255 W/m 6,1 C 8,9 C 8,0 km/h (2 Bft) 95,24 %
25.04.2017 08:58 9,4 C 0,0 C 78 % 1007,5 hPa 0,0 l/m 3,9 km/h (1 Bft) N-NO 26 0 min 0,000 mm 0,8 UV-I 257 W/m 5,8 C 9,4 C 4,8 km/h (1 Bft) 96,36 %
25.04.2017 09:00 9,3 C 0,0 C 78 % 1007,5 hPa 0,0 l/m 2,1 km/h (1 Bft) N-NO 26 0 min 0,152 mm 0,8 UV-I 258 W/m 5,7 C 9,3 C 4,8 km/h (1 Bft) 92,31 %
25.04.2017 09:02 9,3 C 0,0 C 79 % 1007,4 hPa 0,0 l/m 3,5 km/h (1 Bft) N-NO 33 0 min 0,000 mm 0,8 UV-I 246 W/m 5,8 C 9,3 C 4,8 km/h (1 Bft) 92,73 %
25.04.2017 09:04 9,4 C 0,0 C 80 % 1007,6 hPa 0,0 l/m 1,8 km/h (1 Bft) N-NO 33 0 min 0,000 mm 0,9 UV-I 236 W/m 6,1 C 9,4 C 6,4 km/h (2 Bft) 100,00 %
25.04.2017 09:06 9,3 C 0,0 C 80 % 1007,7 hPa 0,0 l/m 1,1 km/h (1 Bft) N-NW 335 0 min 0,000 mm 0,9 UV-I 234 W/m 6,0 C 9,3 C 4,8 km/h (1 Bft) 88,68 %
25.04.2017 09:08 9,3 C 0,0 C 80 % 1007,6 hPa 0,0 l/m 0,9 km/h (0 Bft) N-NW 334 0 min 0,000 mm 0,9 UV-I 239 W/m 6,0 C 9,3 C 3,2 km/h (1 Bft) 92,11 %
25.04.2017 09:10 9,3 C 0,0 C 79 % 1007,6 hPa 0,0 l/m 1,1 km/h (1 Bft) N-NW 334 0 min 0,000 mm 1,0 UV-I 241 W/m 5,8 C 9,3 C 3,2 km/h (1 Bft) 95,74 %
25.04.2017 09:12 9,3 C 0,0 C 79 % 1007,6 hPa 0,0 l/m 1,0 km/h (0 Bft) N-NW 334 2 min 0,000 mm 1,2 UV-I 303 W/m 5,8 C 9,3 C 3,2 km/h (1 Bft) 96,23 %
25.04.2017 09:14 9,5 C 0,0 C 81 % 1007,5 hPa 0,0 l/m 1,8 km/h (1 Bft) N-NW 340 2 min 0,000 mm 1,3 UV-I 356 W/m 6,4 C 9,5 C 6,4 km/h (2 Bft) 97,56 %
25.04.2017 09:16 9,7 C 0,0 C 80 % 1007,6 hPa 0,0 l/m 3,2 km/h (1 Bft) N 11 2 min 0,000 mm 1,3 UV-I 357 W/m 6,4 C 9,7 C 4,8 km/h (1 Bft) 96,23 %
25.04.2017 09:18 9,9 C 0,0 C 77 % 1007,6 hPa 0,0 l/m 0,7 km/h (0 Bft) N 11 2 min 0,000 mm 1,5 UV-I 588 W/m 6,1 C 9,9 C 3,2 km/h (1 Bft) 97,56 %
25.04.2017 09:20 9,9 C 0,0 C 75 % 1007,6 hPa 0,0 l/m 0,2 km/h (0 Bft) N 11 2 min 0,000 mm 1,4 UV-I 522 W/m 5,7 C 9,9 C 1,6 km/h (1 Bft) 96,23 %
25.04.2017 09:22 9,9 C 0,0 C 73 % 1007,6 hPa 0,0 l/m 0,7 km/h (0 Bft) N 11 2 min 0,000 mm 1,4 UV-I 469 W/m 5,3 C 9,9 C 3,2 km/h (1 Bft) 97,56 %
25.04.2017 09:24 9,8 C 0,0 C 77 % 1007,6 hPa 0,0 l/m 1,2 km/h (1 Bft) N 11 2 min 0,000 mm 1,4 UV-I 437 W/m 6,0 C 9,8 C 3,2 km/h (1 Bft) 94,64 %
25.04.2017 09:26 9,9 C 0,0 C 75 % 1007,6 hPa 0,0 l/m 0,7 km/h (0 Bft) N 11 2 min 0,000 mm 1,4 UV-I 412 W/m 5,7 C 9,9 C 3,2 km/h (1 Bft) 97,73 %
25.04.2017 09:28 10,1 C 0,0 C 76 % 1007,6 hPa 0,0 l/m 1,7 km/h (1 Bft) N 11 2 min 0,000 mm 1,4 UV-I 397 W/m 6,1 C 10,1 C 3,2 km/h (1 Bft) 97,73 %
25.04.2017 09:30 10,2 C 0,0 C 76 % 1007,6 hPa 0,0 l/m 0,6 km/h (0 Bft) N 11 2 min 0,000 mm 1,5 UV-I 489 W/m 6,2 C 10,2 C 3,2 km/h (1 Bft) 96,23 %
25.04.2017 09:32 10,3 C 0,0 C 76 % 1007,5 hPa 0,0 l/m 3,5 km/h (1 Bft) NO 46 2 min 0,000 mm 1,7 UV-I 575 W/m 6,3 C 10,3 C 6,4 km/h (2 Bft) 92,11 %
25.04.2017 09:34 10,6 C 0,0 C 76 % 1007,7 hPa 0,0 l/m 1,7 km/h (1 Bft) O-NO 60 2 min 0,000 mm 1,7 UV-I 610 W/m 6,5 C 10,6 C 6,4 km/h (2 Bft) 96,23 %
25.04.2017 09:36 10,7 C 0,0 C 76 % 1007,6 hPa 0,0 l/m 3,6 km/h (1 Bft) NO 41 2 min 0,000 mm 1,6 UV-I 534 W/m 6,6 C 10,7 C 8,0 km/h (2 Bft) 95,74 %
25.04.2017 09:38 10,8 C 0,0 C 74 % 1007,5 hPa 0,0 l/m 3,2 km/h (1 Bft) NO 49 2 min 0,000 mm 1,6 UV-I 461 W/m 6,4 C 10,8 C 6,4 km/h (2 Bft) 97,62 %
25.04.2017 09:40 10,8 C 0,0 C 75 % 1007,5 hPa 0,0 l/m 0,7 km/h (0 Bft) NO 49 2 min 0,000 mm 1,6 UV-I 486 W/m 6,5 C 10,8 C 3,2 km/h (1 Bft) 91,49 %
25.04.2017 09:42 10,9 C 0,0 C 74 % 1007,5 hPa 0,0 l/m 3,7 km/h (1 Bft) O 81 2 min 0,000 mm 1,7 UV-I 526 W/m 6,5 C 10,9 C 6,4 km/h (2 Bft) 96,00 %
25.04.2017 09:44 10,8 C 0,0 C 75 % 1007,5 hPa 0,0 l/m 4,1 km/h (1 Bft) O-NO 73 2 min 0,000 mm 1,7 UV-I 538 W/m 6,5 C 10,8 C 6,4 km/h (2 Bft) 97,56 %
25.04.2017 09:46 11,2 C 0,0 C 76 % 1007,5 hPa 0,0 l/m 1,0 km/h (0 Bft) O-NO 73 2 min 0,000 mm 1,8 UV-I 573 W/m 7,1 C 11,2 C 3,2 km/h (1 Bft) 98,00 %
25.04.2017 09:48 11,4 C 0,0 C 77 % 1007,6 hPa 0,0 l/m 2,1 km/h (1 Bft) O-NO 72 2 min 0,000 mm 1,8 UV-I 600 W/m 7,5 C 11,4 C 4,8 km/h (1 Bft) 98,00 %
25.04.2017 09:50 11,6 C 0,0 C 77 % 1007,5 hPa 0,0 l/m 2,7 km/h (1 Bft) O-NO 72 2 min 0,000 mm 1,8 UV-I 581 W/m 7,7 C 11,6 C 4,8 km/h (1 Bft) 98,00 %
25.04.2017 09:52 11,7 C 0,0 C 75 % 1007,5 hPa 0,0 l/m 3,6 km/h (1 Bft) O-NO 70 2 min 0,000 mm 1,7 UV-I 537 W/m 7,4 C 11,7 C 8,0 km/h (2 Bft) 96,15 %
25.04.2017 09:54 11,7 C 0,0 C 73 % 1007,5 hPa 0,0 l/m 5,0 km/h (1 Bft) NO 47 2 min 0,000 mm 1,5 UV-I 461 W/m 7,0 C 11,7 C 8,0 km/h (2 Bft) 98,39 %
25.04.2017 09:56 11,6 C 0,0 C 74 % 1007,5 hPa 0,0 l/m 3,1 km/h (1 Bft) NO 47 0 min 0,000 mm 1,4 UV-I 338 W/m 7,1 C 11,6 C 4,8 km/h (1 Bft) 92,45 %
25.04.2017 09:58 11,6 C 0,0 C 75 % 1007,5 hPa 0,0 l/m 2,1 km/h (1 Bft) NO 47 2 min 0,000 mm 1,5 UV-I 343 W/m 7,3 C 11,6 C 3,2 km/h (1 Bft) 97,56 %
25.04.2017 10:00 11,7 C 0,0 C 75 % 1007,5 hPa 0,0 l/m 1,8 km/h (1 Bft) NO 47 2 min 0,203 mm 1,7 UV-I 463 W/m 7,4 C 11,7 C 6,4 km/h (2 Bft) 98,00 %
25.04.2017 10:02 11,8 C 0,0 C 77 % 1007,5 hPa 0,0 l/m 1,4 km/h (1 Bft) NO 47 2 min 0,000 mm 1,7 UV-I 489 W/m 7,9 C 11,8 C 4,8 km/h (1 Bft) 97,87 %
25.04.2017 10:04 11,9 C 0,0 C 74 % 1007,5 hPa 0,0 l/m 3,3 km/h (1 Bft) NO 47 2 min 0,000 mm 1,6 UV-I 402 W/m 7,4 C 11,9 C 6,4 km/h (2 Bft) 89,36 %
25.04.2017 10:06 12,1 C 0,0 C 75 % 1007,5 hPa 0,0 l/m 2,3 km/h (1 Bft) NO 47 0 min 0,000 mm 1,5 UV-I 280 W/m 7,8 C 12,1 C 4,8 km/h (1 Bft) 95,12 %
25.04.2017 10:08 11,9 C 0,0 C 74 % 1007,5 hPa 0,0 l/m 2,8 km/h (1 Bft) NO 47 0 min 0,000 mm 1,6 UV-I 309 W/m 7,4 C 11,9 C 4,8 km/h (1 Bft) 94,34 %
25.04.2017 10:10 11,9 C 0,0 C 74 % 1007,5 hPa 0,0 l/m 1,6 km/h (1 Bft) NO 47 2 min 0,000 mm 1,9 UV-I 389 W/m 7,4 C 11,9 C 3,2 km/h (1 Bft) 91,43 %
25.04.2017 10:12 12,0 C 0,0 C 73 % 1007,5 hPa 0,0 l/m 0,6 km/h (0 Bft) NO 47 2 min 0,000 mm 2,1 UV-I 544 W/m 7,3 C 12,0 C 1,6 km/h (1 Bft) 92,86 %
25.04.2017 10:14 12,2 C 0,0 C 74 % 1007,5 hPa 0,0 l/m 0,2 km/h (0 Bft) NO 47 2 min 0,000 mm 2,4 UV-I 716 W/m 7,7 C 12,2 C 1,6 km/h (1 Bft) 98,00 %
25.04.2017 10:16 12,3 C 0,0 C 71 % 1007,5 hPa 0,0 l/m 0,1 km/h (0 Bft) NO 47 2 min 0,000 mm 2,6 UV-I 761 W/m 7,2 C 12,3 C 1,6 km/h (1 Bft) 97,44 %
25.04.2017 10:18 12,4 C 0,0 C 72 % 1007,5 hPa 0,0 l/m 0,6 km/h (0 Bft) O 79 2 min 0,000 mm 2,5 UV-I 764 W/m 7,5 C 12,4 C 3,2 km/h (1 Bft) 90,00 %
25.04.2017 10:20 12,7 C 0,0 C 68 % 1007,5 hPa 0,0 l/m 0,8 km/h (0 Bft) O 97 2 min 0,000 mm 2,2 UV-I 707 W/m 6,9 C 12,7 C 3,2 km/h (1 Bft) 94,00 %
25.04.2017 10:22 12,7 C 0,0 C 67 % 1007,4 hPa 0,0 l/m 0,9 km/h (0 Bft) O 98 2 min 0,000 mm 1,8 UV-I 438 W/m 6,7 C 12,7 C 3,2 km/h (1 Bft) 96,55 %
25.04.2017 10:24 12,7 C 0,0 C 69 % 1007,4 hPa 0,0 l/m 1,8 km/h (1 Bft) SO 130 0 min 0,000 mm 1,9 UV-I 313 W/m 7,2 C 12,7 C 6,4 km/h (2 Bft) 92,45 %
25.04.2017 10:26 12,8 C 0,0 C 68 % 1007,5 hPa 0,0 l/m 2,2 km/h (1 Bft) SO 130 0 min 0,000 mm 2,0 UV-I 316 W/m 7,0 C 12,8 C 4,8 km/h (1 Bft) 96,43 %
25.04.2017 10:28 12,9 C 0,0 C 68 % 1007,5 hPa 0,0 l/m 1,7 km/h (1 Bft) SO 132 0 min 0,000 mm 2,1 UV-I 301 W/m 7,1 C 12,9 C 3,2 km/h (1 Bft) 96,00 %
25.04.2017 10:30 13,1 C 0,0 C 68 % 1007,5 hPa 0,0 l/m 2,4 km/h (1 Bft) SO 133 2 min 0,000 mm 2,8 UV-I 433 W/m 7,3 C 13,1 C 3,2 km/h (1 Bft) 94,74 %
25.04.2017 10:32 13,3 C 0,0 C 67 % 1007,5 hPa 0,0 l/m 2,7 km/h (1 Bft) SO 136 2 min 0,000 mm 2,8 UV-I 655 W/m 7,3 C 13,3 C 4,8 km/h (1 Bft) 96,23 %
25.04.2017 10:34 13,4 C 0,0 C 68 % 1007,6 hPa 0,0 l/m 2,6 km/h (1 Bft) S-SO 150 2 min 0,000 mm 2,9 UV-I 727 W/m 7,6 C 13,4 C 6,4 km/h (2 Bft) 95,12 %
25.04.2017 10:36 13,5 C 0,0 C 68 % 1007,6 hPa 0,0 l/m 1,6 km/h (1 Bft) S-SO 150 2 min 0,000 mm 2,6 UV-I 693 W/m 7,7 C 13,5 C 4,8 km/h (1 Bft) 96,00 %
25.04.2017 10:38 13,7 C 0,0 C 66 % 1007,6 hPa 0,0 l/m 4,4 km/h (1 Bft) S-SW 207 2 min 0,000 mm 2,7 UV-I 598 W/m 7,5 C 13,7 C 8,0 km/h (2 Bft) 96,23 %
25.04.2017 10:40 13,7 C 0,0 C 66 % 1007,5 hPa 0,0 l/m 2,7 km/h (1 Bft) W-SW 247 2 min 0,000 mm 2,6 UV-I 581 W/m 7,5 C 13,7 C 4,8 km/h (1 Bft) 100,00 %
25.04.2017 10:42 13,7 C 0,0 C 65 % 1007,6 hPa 0,0 l/m 2,3 km/h (1 Bft) W-SW 247 2 min 0,000 mm 2,7 UV-I 626 W/m 7,2 C 13,7 C 6,4 km/h (2 Bft) 97,87 %
25.04.2017 10:44 13,7 C 0,0 C 64 % 1007,6 hPa 0,0 l/m 1,8 km/h (1 Bft) W-SW 247 2 min 0,000 mm 2,9 UV-I 678 W/m 7,0 C 13,7 C 4,8 km/h (1 Bft) 100,00 %
25.04.2017 10:46 13,8 C 0,0 C 67 % 1007,5 hPa 0,0 l/m 0,4 km/h (0 Bft) W-SW 247 2 min 0,000 mm 2,6 UV-I 656 W/m 7,8 C 13,8 C 1,6 km/h (1 Bft) 100,00 %
25.04.2017 10:48 13,7 C 0,0 C 66 % 1007,5 hPa 0,0 l/m 0,1 km/h (0 Bft) W-SW 247 0 min 0,000 mm 2,6 UV-I 377 W/m 7,5 C 13,7 C 1,6 km/h (1 Bft) 97,87 %
25.04.2017 10:50 13,8 C 0,0 C 65 % 1007,5 hPa 0,0 l/m 1,5 km/h (1 Bft) W-SW 248 0 min 0,000 mm 2,7 UV-I 348 W/m 7,3 C 13,8 C 4,8 km/h (1 Bft) 94,74 %
25.04.2017 10:52 13,8 C 0,0 C 65 % 1007,5 hPa 0,0 l/m 1,6 km/h (1 Bft) W-NW 286 2 min 0,000 mm 3,1 UV-I 583 W/m 7,3 C 13,8 C 4,8 km/h (1 Bft) 100,00 %
25.04.2017 10:54 14,2 C 0,0 C 68 % 1007,6 hPa 0,0 l/m 1,3 km/h (1 Bft) W-NW 289 2 min 0,000 mm 3,1 UV-I 700 W/m 8,4 C 14,2 C 4,8 km/h (1 Bft) 100,00 %
25.04.2017 10:56 14,2 C 0,0 C 64 % 1007,6 hPa 0,0 l/m 3,2 km/h (1 Bft) W-NW 286 2 min 0,000 mm 3,1 UV-I 666 W/m 7,5 C 14,2 C 4,8 km/h (1 Bft) 97,37 %
25.04.2017 10:58 14,2 C 0,0 C 65 % 1007,5 hPa 0,0 l/m 0,8 km/h (0 Bft) W-NW 288 2 min 0,000 mm 3,1 UV-I 692 W/m 7,7 C 14,2 C 3,2 km/h (1 Bft) 94,64 %
25.04.2017 11:00 14,4 C 0,0 C 68 % 1007,5 hPa 0,0 l/m 1,0 km/h (0 Bft) W-NW 288 2 min 0,280 mm 3,2 UV-I 723 W/m 8,6 C 14,4 C 1,6 km/h (1 Bft) 97,87 %
25.04.2017 11:02 14,6 C 0,0 C 67 % 1007,5 hPa 0,0 l/m 1,5 km/h (1 Bft) NW 315 2 min 0,000 mm 3,2 UV-I 684 W/m 8,5 C 14,6 C 4,8 km/h (1 Bft) 95,12 %
25.04.2017 11:04 14,6 C 0,0 C 66 % 1007,6 hPa 0,0 l/m 3,6 km/h (1 Bft) N-NW 336 2 min 0,000 mm 3,2 UV-I 693 W/m 8,3 C 14,6 C 8,0 km/h (2 Bft) 98,21 %
25.04.2017 11:06 14,8 C 0,0 C 67 % 1007,6 hPa 0,0 l/m 1,5 km/h (1 Bft) NW 304 2 min 0,000 mm 3,3 UV-I 724 W/m 8,7 C 14,8 C 4,8 km/h (1 Bft) 100,00 %
25.04.2017 11:08 14,8 C 0,0 C 64 % 1007,6 hPa 0,0 l/m 5,2 km/h (1 Bft) W-NW 300 2 min 0,000 mm 3,3 UV-I 693 W/m 8,1 C 14,8 C 8,0 km/h (2 Bft) 98,21 %
25.04.2017 11:10 14,7 C 0,0 C 67 % 1007,6 hPa 0,0 l/m 2,3 km/h (1 Bft) NW 321 2 min 0,000 mm 3,4 UV-I 707 W/m 8,6 C 14,7 C 3,2 km/h (1 Bft) 95,12 %
25.04.2017 11:12 14,9 C 0,0 C 66 % 1007,6 hPa 0,0 l/m 1,3 km/h (1 Bft) NW 314 2 min 0,000 mm 3,3 UV-I 716 W/m 8,6 C 14,9 C 4,8 km/h (1 Bft) 100,00 %
25.04.2017 11:14 14,9 C 0,0 C 64 % 1007,6 hPa 0,0 l/m 2,3 km/h (1 Bft) NW 313 2 min 0,000 mm 3,5 UV-I 767 W/m 8,2 C 14,9 C 6,4 km/h (2 Bft) 98,00 %
25.04.2017 11:16 14,9 C 0,0 C 63 % 1007,6 hPa 0,0 l/m 5,1 km/h (1 Bft) N-NW 334 2 min 0,000 mm 3,6 UV-I 768 W/m 7,9 C 14,9 C 11,3 km/h (2 Bft) 100,00 %
25.04.2017 11:18 14,9 C 0,0 C 63 % 1007,6 hPa 0,0 l/m 4,9 km/h (1 Bft) N-NW 331 2 min 0,000 mm 3,6 UV-I 763 W/m 7,9 C 14,9 C 8,0 km/h (2 Bft) 100,00 %
25.04.2017 11:20 15,0 C 0,0 C 63 % 1007,6 hPa 0,0 l/m 5,0 km/h (1 Bft) N-NW 336 2 min 0,000 mm 3,6 UV-I 771 W/m 8,0 C 15,0 C 11,3 km/h (2 Bft) 98,11 %
25.04.2017 11:22 15,0 C 0,0 C 61 % 1007,6 hPa 0,0 l/m 5,4 km/h (1 Bft) W-NW 282 2 min 0,000 mm 3,6 UV-I 781 W/m 7,5 C 15,0 C 9,7 km/h (2 Bft) 100,00 %
25.04.2017 11:24 15,1 C 0,0 C 63 % 1007,6 hPa 0,0 l/m 2,5 km/h (1 Bft) NW 311 2 min 0,000 mm 3,7 UV-I 780 W/m 8,1 C 15,1 C 4,8 km/h (1 Bft) 100,00 %
25.04.2017 11:26 15,2 C 0,0 C 64 % 1007,6 hPa 0,0 l/m 2,9 km/h (1 Bft) N-NW 338 2 min 0,000 mm 3,7 UV-I 780 W/m 8,4 C 15,2 C 8,0 km/h (2 Bft) 92,11 %
25.04.2017 11:28 15,1 C 0,0 C 62 % 1007,6 hPa 0,0 l/m 3,4 km/h (1 Bft) W-NW 293 2 min 0,000 mm 3,7 UV-I 789 W/m 7,9 C 15,1 C 6,4 km/h (2 Bft) 97,14 %
25.04.2017 11:30 15,3 C 0,0 C 65 % 1007,6 hPa 0,0 l/m 4,5 km/h (1 Bft) NW 323 2 min 0,000 mm 3,7 UV-I 790 W/m 8,8 C 15,3 C 12,9 km/h (3 Bft) 100,00 %
25.04.2017 11:32 15,4 C 0,0 C 65 % 1007,7 hPa 0,0 l/m 6,9 km/h (2 Bft) W-NW 287 2 min 0,000 mm 3,8 UV-I 814 W/m 8,9 C 15,1 C 12,9 km/h (3 Bft) 95,24 %
25.04.2017 11:34 15,3 C 0,0 C 60 % 1007,7 hPa 0,0 l/m 4,7 km/h (1 Bft) NW 312 2 min 0,000 mm 3,9 UV-I 868 W/m 7,6 C 15,3 C 8,0 km/h (2 Bft) 94,55 %
25.04.2017 11:36 15,4 C 0,0 C 62 % 1007,6 hPa 0,0 l/m 2,5 km/h (1 Bft) NW 319 2 min 0,000 mm 3,4 UV-I 692 W/m 8,2 C 15,4 C 6,4 km/h (2 Bft) 95,24 %
25.04.2017 11:38 15,6 C 0,0 C 63 % 1007,6 hPa 0,0 l/m 6,6 km/h (2 Bft) W-NW 286 2 min 0,000 mm 3,7 UV-I 699 W/m 8,6 C 15,5 C 11,3 km/h (2 Bft) 100,00 %
25.04.2017 11:40 15,4 C 0,0 C 61 % 1007,5 hPa 0,0 l/m 2,9 km/h (1 Bft) N-NW 333 2 min 0,000 mm 2,7 UV-I 447 W/m 7,9 C 15,4 C 8,0 km/h (2 Bft) 100,00 %
25.04.2017 11:42 15,2 C 0,0 C 63 % 1007,6 hPa 0,0 l/m 2,4 km/h (1 Bft) NW 325 0 min 0,000 mm 2,8 UV-I 362 W/m 8,2 C 15,2 C 4,8 km/h (1 Bft) 98,53 %
25.04.2017 11:44 15,1 C 0,0 C 62 % 1007,6 hPa 0,0 l/m 5,5 km/h (1 Bft) NW 326 0 min 0,000 mm 2,7 UV-I 413 W/m 7,9 C 15,1 C 11,3 km/h (2 Bft) 96,23 %
25.04.2017 11:46 14,9 C 0,0 C 61 % 1007,5 hPa 0,0 l/m 3,9 km/h (1 Bft) N-NW 336 0 min 0,000 mm 2,8 UV-I 390 W/m 7,4 C 14,9 C 9,7 km/h (2 Bft) 95,74 %
25.04.2017 11:48 15,1 C 0,0 C 65 % 1007,5 hPa 0,0 l/m 4,3 km/h (1 Bft) NW 306 2 min 0,000 mm 3,7 UV-I 438 W/m 8,6 C 15,1 C 14,5 km/h (3 Bft) 98,00 %
25.04.2017 11:50 15,4 C 0,0 C 61 % 1007,5 hPa 0,0 l/m 6,4 km/h (2 Bft) W-NW 301 2 min 0,000 mm 4,1 UV-I 904 W/m 7,9 C 15,4 C 14,5 km/h (3 Bft) 97,37 %
25.04.2017 11:52 15,5 C 0,0 C 61 % 1007,4 hPa 0,0 l/m 5,2 km/h (1 Bft) W-NW 303 2 min 0,000 mm 4,1 UV-I 865 W/m 8,0 C 15,5 C 11,3 km/h (2 Bft) 96,00 %
25.04.2017 11:54 15,7 C 0,0 C 60 % 1007,4 hPa 0,0 l/m 5,0 km/h (1 Bft) W-NW 303 2 min 0,000 mm 4,1 UV-I 866 W/m 8,0 C 15,7 C 11,3 km/h (2 Bft) 98,00 %
25.04.2017 11:56 16,0 C 0,0 C 63 % 1007,5 hPa 0,0 l/m 4,6 km/h (1 Bft) N 5 2 min 0,000 mm 4,2 UV-I 852 W/m 9,0 C 16,0 C 12,9 km/h (3 Bft) 100,00 %
25.04.2017 11:58 16,1 C 0,0 C 60 % 1007,4 hPa 0,0 l/m 6,8 km/h (2 Bft) NW 306 2 min 0,000 mm 4,2 UV-I 844 W/m 8,3 C 15,9 C 12,9 km/h (3 Bft) 93,62 %
25.04.2017 12:00 16,1 C 0,0 C 59 % 1007,5 hPa 0,0 l/m 5,2 km/h (1 Bft) W-NW 286 2 min 0,406 mm 4,2 UV-I 838 W/m 8,1 C 16,1 C 11,3 km/h (2 Bft) 100,00 %
25.04.2017 12:02 16,3 C 0,0 C 62 % 1007,5 hPa 0,0 l/m 4,9 km/h (1 Bft) W 265 2 min 0,000 mm 4,2 UV-I 836 W/m 9,0 C 16,3 C 14,5 km/h (3 Bft) 100,00 %
25.04.2017 12:04 16,3 C 0,0 C 58 % 1007,5 hPa 0,0 l/m 4,7 km/h (1 Bft) NW 323 2 min 0,000 mm 4,2 UV-I 842 W/m 8,0 C 16,3 C 9,7 km/h (2 Bft) 100,00 %
25.04.2017 12:06 16,3 C 0,0 C 61 % 1007,3 hPa 0,0 l/m 6,4 km/h (2 Bft) W-NW 296 2 min 0,000 mm 4,3 UV-I 875 W/m 8,8 C 16,3 C 14,5 km/h (3 Bft) 97,37 %
25.04.2017 12:08 16,4 C 0,0 C 59 % 1007,3 hPa 0,0 l/m 8,1 km/h (2 Bft) W 260 2 min 0,000 mm 4,4 UV-I 917 W/m 8,4 C 15,5 C 16,1 km/h (3 Bft) 98,11 %
25.04.2017 12:10 16,5 C 0,0 C 62 % 1007,4 hPa 0,0 l/m 5,2 km/h (1 Bft) N-NW 339 2 min 0,000 mm 4,4 UV-I 936 W/m 9,2 C 16,5 C 16,1 km/h (3 Bft) 97,62 %
25.04.2017 12:12 16,4 C 0,0 C 61 % 1007,3 hPa 0,0 l/m 2,9 km/h (1 Bft) NW 322 2 min 0,000 mm 4,4 UV-I 941 W/m 8,9 C 16,4 C 8,0 km/h (2 Bft) 90,91 %
25.04.2017 12:14 16,6 C 0,0 C 61 % 1007,3 hPa 0,0 l/m 6,6 km/h (2 Bft) N-NW 344 2 min 0,000 mm 4,4 UV-I 929 W/m 9,0 C 16,5 C 12,9 km/h (3 Bft) 94,44 %
25.04.2017 12:16 16,6 C 0,0 C 61 % 1007,2 hPa 0,0 l/m 7,3 km/h (2 Bft) NW 325 2 min 0,000 mm 3,6 UV-I 616 W/m 9,0 C 16,1 C 14,5 km/h (3 Bft) 98,11 %
25.04.2017 12:18 16,7 C 0,0 C 62 % 1007,3 hPa 0,0 l/m 7,0 km/h (2 Bft) NW 325 2 min 0,000 mm 4,1 UV-I 577 W/m 9,4 C 16,4 C 14,5 km/h (3 Bft) 96,00 %
25.04.2017 12:20 16,8 C 0,0 C 63 % 1007,3 hPa 0,0 l/m 4,6 km/h (1 Bft) NO 42 2 min 0,000 mm 4,5 UV-I 660 W/m 9,7 C 16,8 C 8,0 km/h (2 Bft) 93,18 %
25.04.2017 12:22 16,9 C 0,0 C 58 % 1007,3 hPa 0,0 l/m 6,6 km/h (2 Bft) NW 309 2 min 0,000 mm 4,5 UV-I 900 W/m 8,6 C 16,8 C 14,5 km/h (3 Bft) 95,12 %
25.04.2017 12:24 16,9 C 0,0 C 59 % 1007,2 hPa 0,0 l/m 6,9 km/h (2 Bft) W-NW 295 2 min 0,000 mm 4,5 UV-I 917 W/m 8,8 C 16,7 C 12,9 km/h (3 Bft) 94,74 %
25.04.2017 12:26 17,0 C 0,0 C 59 % 1007,2 hPa 0,0 l/m 5,2 km/h (1 Bft) W-NW 296 2 min 0,000 mm 4,7 UV-I 932 W/m 8,9 C 17,0 C 11,3 km/h (2 Bft) 96,61 %
25.04.2017 12:28 17,1 C 0,0 C 60 % 1007,1 hPa 0,0 l/m 6,3 km/h (2 Bft) W-SW 258 2 min 0,000 mm 4,5 UV-I 965 W/m 9,3 C 17,1 C 17,7 km/h (3 Bft) 97,87 %
25.04.2017 12:30 17,2 C 0,0 C 58 % 1007,2 hPa 0,0 l/m 4,6 km/h (1 Bft) N-NW 340 2 min 0,000 mm 4,8 UV-I 1014 W/m 8,9 C 17,2 C 9,7 km/h (2 Bft) 91,07 %
25.04.2017 12:32 17,2 C 0,0 C 60 % 1007,1 hPa 0,0 l/m 2,0 km/h (1 Bft) N-NW 334 2 min 0,000 mm 4,8 UV-I 1021 W/m 9,4 C 17,2 C 6,4 km/h (2 Bft) 97,14 %
25.04.2017 12:34 17,3 C 0,0 C 59 % 1007,1 hPa 0,0 l/m 4,8 km/h (1 Bft) NW 304 2 min 0,000 mm 4,7 UV-I 977 W/m 9,2 C 17,3 C 14,5 km/h (3 Bft) 94,34 %
25.04.2017 12:36 17,5 C 0,0 C 60 % 1007,1 hPa 0,0 l/m 4,2 km/h (1 Bft) NW 319 2 min 0,000 mm 4,0 UV-I 972 W/m 9,6 C 17,5 C 12,9 km/h (3 Bft) 93,18 %
25.04.2017 12:38 17,4 C 0,0 C 61 % 1007,1 hPa 0,0 l/m 5,3 km/h (1 Bft) W-NW 296 2 min 0,000 mm 4,2 UV-I 932 W/m 9,8 C 17,4 C 14,5 km/h (3 Bft) 90,91 %
25.04.2017 12:40 17,5 C 0,0 C 60 % 1007,1 hPa 0,0 l/m 6,9 km/h (2 Bft) W 273 2 min 0,000 mm 4,6 UV-I 944 W/m 9,6 C 17,3 C 16,1 km/h (3 Bft) 98,21 %
25.04.2017 12:42 17,4 C 0,0 C 58 % 1007,0 hPa 0,0 l/m 7,0 km/h (2 Bft) W-NW 300 2 min 0,000 mm 4,0 UV-I 890 W/m 9,1 C 17,1 C 16,1 km/h (3 Bft) 95,74 %
25.04.2017 12:44 17,2 C 0,0 C 60 % 1007,0 hPa 0,0 l/m 5,0 km/h (1 Bft) N 9 0 min 0,000 mm 3,1 UV-I 430 W/m 9,4 C 17,2 C 12,9 km/h (3 Bft) 97,73 %
25.04.2017 12:46 17,1 C 0,0 C 57 % 1007,0 hPa 0,0 l/m 3,6 km/h (1 Bft) W-NW 289 2 min 0,000 mm 3,2 UV-I 496 W/m 8,5 C 17,1 C 9,7 km/h (2 Bft) 92,68 %
25.04.2017 12:48 17,1 C 0,0 C 59 % 1006,9 hPa 0,0 l/m 5,0 km/h (1 Bft) N-NO 12 0 min 0,000 mm 3,0 UV-I 447 W/m 9,0 C 17,1 C 14,5 km/h (3 Bft) 98,11 %
25.04.2017 12:50 16,9 C 0,0 C 59 % 1006,9 hPa 0,0 l/m 2,8 km/h (1 Bft) W-NW 286 2 min 0,000 mm 3,3 UV-I 517 W/m 8,8 C 16,9 C 9,7 km/h (2 Bft) 97,62 %
25.04.2017 12:52 16,9 C 0,0 C 60 % 1006,9 hPa 0,0 l/m 6,0 km/h (2 Bft) NW 311 2 min 0,000 mm 3,3 UV-I 633 W/m 9,1 C 16,9 C 12,9 km/h (3 Bft) 89,47 %
25.04.2017 12:54 16,9 C 0,0 C 56 % 1006,9 hPa 0,0 l/m 4,6 km/h (1 Bft) NW 304 2 min 0,000 mm 2,7 UV-I 458 W/m 8,1 C 16,9 C 11,3 km/h (2 Bft) 91,94 %
25.04.2017 12:56 16,8 C 0,0 C 59 % 1006,8 hPa 0,0 l/m 4,3 km/h (1 Bft) NW 306 0 min 0,000 mm 2,7 UV-I 370 W/m 8,7 C 16,8 C 9,7 km/h (2 Bft) 95,74 %
25.04.2017 12:58 16,6 C 0,0 C 58 % 1006,6 hPa 0,0 l/m 3,7 km/h (1 Bft) N-NO 29 2 min 0,000 mm 3,0 UV-I 452 W/m 8,3 C 16,6 C 6,4 km/h (2 Bft) 96,00 %
25.04.2017 13:00 16,7 C 0,0 C 63 % 1006,6 hPa 0,0 l/m 3,6 km/h (1 Bft) N-NW 329 2 min 0,000 mm 3,6 UV-I 496 W/m 9,6 C 16,7 C 9,7 km/h (2 Bft) 94,74 %
25.04.2017 13:02 16,8 C 0,0 C 60 % 1006,6 hPa 0,0 l/m 6,9 km/h (2 Bft) NW 322 2 min 0,432 mm 4,5 UV-I 597 W/m 9,0 C 16,5 C 14,5 km/h (3 Bft) 97,37 %
25.04.2017 13:04 17,2 C 0,0 C 62 % 1006,6 hPa 0,0 l/m 2,2 km/h (1 Bft) NW 321 2 min 0,000 mm 4,7 UV-I 928 W/m 9,9 C 17,2 C 6,4 km/h (2 Bft) 100,00 %
25.04.2017 13:06 17,6 C 0,0 C 58 % 1006,7 hPa 0,0 l/m 4,3 km/h (1 Bft) W-NW 302 2 min 0,000 mm 4,8 UV-I 945 W/m 9,2 C 17,6 C 9,7 km/h (2 Bft) 96,23 %
25.04.2017 13:08 17,7 C 0,0 C 58 % 1006,9 hPa 0,0 l/m 4,1 km/h (1 Bft) NW 309 2 min 0,000 mm 4,7 UV-I 973 W/m 9,3 C 17,7 C 8,0 km/h (2 Bft) 100,00 %
25.04.2017 13:10 17,7 C 0,0 C 61 % 1006,9 hPa 0,0 l/m 4,0 km/h (1 Bft) NW 307 2 min 0,000 mm 4,7 UV-I 995 W/m 10,1 C 17,7 C 9,7 km/h (2 Bft) 95,74 %
25.04.2017 13:12 17,9 C 0,0 C 61 % 1006,9 hPa 0,0 l/m 5,5 km/h (1 Bft) N-NW 334 2 min 0,000 mm 4,2 UV-I 964 W/m 10,3 C 17,9 C 17,7 km/h (3 Bft) 100,00 %
25.04.2017 13:14 17,9 C 0,0 C 54 % 1006,9 hPa 0,0 l/m 9,9 km/h (2 Bft) SW 236 2 min 0,000 mm 4,3 UV-I 821 W/m 8,5 C 16,4 C 19,3 km/h (3 Bft) 94,00 %
25.04.2017 13:16 17,9 C 0,0 C 58 % 1006,9 hPa 0,0 l/m 6,6 km/h (2 Bft) N-NW 329 2 min 0,000 mm 3,5 UV-I 671 W/m 9,5 C 17,8 C 14,5 km/h (3 Bft) 98,11 %
25.04.2017 13:18 17,8 C 0,0 C 55 % 1006,9 hPa 0,0 l/m 8,5 km/h (2 Bft) W-NW 284 2 min 0,000 mm 3,8 UV-I 550 W/m 8,6 C 16,8 C 14,5 km/h (3 Bft) 100,00 %
25.04.2017 13:20 17,6 C 0,0 C 59 % 1006,8 hPa 0,0 l/m 3,6 km/h (1 Bft) N-NW 345 2 min 0,000 mm 3,9 UV-I 649 W/m 9,5 C 17,6 C 8,0 km/h (2 Bft) 95,12 %
25.04.2017 13:22 17,6 C 0,0 C 57 % 1006,8 hPa 0,0 l/m 6,6 km/h (2 Bft) NW 323 2 min 0,000 mm 3,2 UV-I 884 W/m 9,0 C 17,5 C 14,5 km/h (3 Bft) 94,34 %
25.04.2017 13:24 17,4 C 0,0 C 58 % 1006,8 hPa 0,0 l/m 4,2 km/h (1 Bft) NW 310 0 min 0,000 mm 2,7 UV-I 389 W/m 9,1 C 17,4 C 9,7 km/h (2 Bft) 98,00 %
25.04.2017 13:26 17,1 C 0,0 C 56 % 1006,8 hPa 0,0 l/m 4,2 km/h (1 Bft) NW 317 0 min 0,000 mm 2,8 UV-I 395 W/m 8,3 C 17,1 C 11,3 km/h (2 Bft) 95,12 %
25.04.2017 13:28 16,9 C 0,0 C 57 % 1006,8 hPa 0,0 l/m 4,0 km/h (1 Bft) W-SW 244 0 min 0,000 mm 3,4 UV-I 419 W/m 8,3 C 16,9 C 6,4 km/h (2 Bft) 98,00 %
25.04.2017 13:30 17,0 C 0,0 C 61 % 1006,8 hPa 0,0 l/m 3,8 km/h (1 Bft) W 281 2 min 0,000 mm 3,5 UV-I 540 W/m 9,4 C 17,0 C 9,7 km/h (2 Bft) 100,00 %
25.04.2017 13:32 17,0 C 0,0 C 60 % 1006,9 hPa 0,0 l/m 6,5 km/h (2 Bft) N-NW 343 2 min 0,000 mm 3,3 UV-I 591 W/m 9,2 C 17,0 C 16,1 km/h (3 Bft) 100,00 %
25.04.2017 13:34 16,8 C 0,0 C 62 % 1006,9 hPa 0,0 l/m 5,1 km/h (1 Bft) N-NO 19 0 min 0,000 mm 2,6 UV-I 369 W/m 9,5 C 16,8 C 9,7 km/h (2 Bft) 97,62 %
25.04.2017 13:36 16,7 C 0,0 C 61 % 1006,9 hPa 0,0 l/m 5,5 km/h (1 Bft) N-NO 22 0 min 0,000 mm 2,9 UV-I 380 W/m 9,1 C 16,7 C 12,9 km/h (3 Bft) 100,00 %
25.04.2017 13:38 16,8 C 0,0 C 63 % 1006,8 hPa 0,0 l/m 4,9 km/h (1 Bft) W-NW 302 2 min 0,000 mm 4,1 UV-I 782 W/m 9,7 C 16,8 C 11,3 km/h (2 Bft) 97,73 %
25.04.2017 13:40 17,2 C 0,0 C 62 % 1006,8 hPa 0,0 l/m 8,4 km/h (2 Bft) W-NW 293 2 min 0,000 mm 4,4 UV-I 869 W/m 9,9 C 16,2 C 16,1 km/h (3 Bft) 100,00 %
25.04.2017 13:42 17,4 C 0,0 C 59 % 1006,8 hPa 0,0 l/m 9,6 km/h (2 Bft) W-SW 253 2 min 0,000 mm 4,6 UV-I 929 W/m 9,3 C 15,9 C 17,7 km/h (3 Bft) 97,56 %
25.04.2017 13:44 17,6 C 0,0 C 60 % 1006,7 hPa 0,0 l/m 9,1 km/h (2 Bft) W-NW 298 2 min 0,000 mm 4,3 UV-I 972 W/m 9,7 C 16,4 C 16,1 km/h (3 Bft) 98,11 %
25.04.2017 13:46 17,6 C 0,0 C 57 % 1006,7 hPa 0,0 l/m 4,9 km/h (1 Bft) NW 308 2 min 0,000 mm 4,2 UV-I 743 W/m 9,0 C 17,6 C 11,3 km/h (2 Bft) 95,45 %
25.04.2017 13:48 17,6 C 0,0 C 60 % 1006,7 hPa 0,0 l/m 5,7 km/h (1 Bft) N-NW 346 2 min 0,000 mm 4,4 UV-I 919 W/m 9,7 C 17,6 C 12,9 km/h (3 Bft) 97,56 %
25.04.2017 13:50 17,6 C 0,0 C 60 % 1006,7 hPa 0,0 l/m 6,1 km/h (2 Bft) W 275 2 min 0,000 mm 4,2 UV-I 839 W/m 9,7 C 17,6 C 14,5 km/h (3 Bft) 94,34 %
25.04.2017 13:52 17,6 C 0,0 C 62 % 1006,7 hPa 0,0 l/m 7,6 km/h (2 Bft) N 360 2 min 0,000 mm 4,2 UV-I 862 W/m 10,2 C 17,0 C 12,9 km/h (3 Bft) 94,29 %
25.04.2017 13:54 17,5 C 0,0 C 59 % 1006,8 hPa 0,0 l/m 8,3 km/h (2 Bft) W 267 2 min 0,000 mm 4,1 UV-I 842 W/m 9,4 C 16,6 C 16,1 km/h (3 Bft) 94,34 %
25.04.2017 13:56 17,4 C 0,0 C 61 % 1006,8 hPa 0,0 l/m 7,0 km/h (2 Bft) N-NW 329 2 min 0,000 mm 3,6 UV-I 863 W/m 9,8 C 17,1 C 14,5 km/h (3 Bft) 96,23 %
25.04.2017 13:58 17,4 C 0,0 C 61 % 1006,8 hPa 0,0 l/m 6,2 km/h (2 Bft) W 277 2 min 0,000 mm 3,1 UV-I 856 W/m 9,8 C 17,4 C 12,9 km/h (3 Bft) 97,37 %
25.04.2017 14:00 17,4 C 0,0 C 62 % 1006,8 hPa 0,0 l/m 4,6 km/h (1 Bft) W 277 2 min 0,457 mm 3,4 UV-I 783 W/m 10,0 C 17,4 C 11,3 km/h (2 Bft) 97,44 %
25.04.2017 14:02 17,4 C 0,0 C 62 % 1006,8 hPa 0,0 l/m 7,4 km/h (2 Bft) W-NW 292 2 min 0,000 mm 3,4 UV-I 751 W/m 10,0 C 16,9 C 14,5 km/h (3 Bft) 96,88 %
25.04.2017 14:04 17,3 C 0,0 C 62 % 1006,7 hPa 0,0 l/m 4,0 km/h (1 Bft) NW 304 2 min 0,000 mm 2,7 UV-I 533 W/m 9,9 C 17,3 C 8,0 km/h (2 Bft) 92,68 %
25.04.2017 14:06 17,2 C 0,0 C 63 % 1006,6 hPa 0,0 l/m 2,5 km/h (1 Bft) W-NW 288 0 min 0,000 mm 3,1 UV-I 432 W/m 10,1 C 17,2 C 4,8 km/h (1 Bft) 92,00 %
25.04.2017 14:08 17,2 C 0,0 C 60 % 1006,7 hPa 0,0 l/m 5,2 km/h (1 Bft) W 274 2 min 0,000 mm 3,5 UV-I 690 W/m 9,4 C 17,2 C 12,9 km/h (3 Bft) 94,00 %
25.04.2017 14:10 17,3 C 0,0 C 63 % 1006,7 hPa 0,0 l/m 4,1 km/h (1 Bft) W-NW 298 2 min 0,000 mm 3,5 UV-I 685 W/m 10,2 C 17,3 C 8,0 km/h (2 Bft) 94,87 %
25.04.2017 14:12 17,3 C 0,0 C 59 % 1006,6 hPa 0,0 l/m 7,7 km/h (2 Bft) W 270 2 min 0,000 mm 3,3 UV-I 626 W/m 9,2 C 16,7 C 12,9 km/h (3 Bft) 94,00 %
25.04.2017 14:14 17,4 C 0,0 C 60 % 1006,6 hPa 0,0 l/m 3,7 km/h (1 Bft) NW 326 2 min 0,000 mm 3,1 UV-I 606 W/m 9,6 C 17,4 C 8,0 km/h (2 Bft) 95,45 %
25.04.2017 14:16 17,4 C 0,0 C 61 % 1006,5 hPa 0,0 l/m 7,5 km/h (2 Bft) NW 314 2 min 0,000 mm 3,2 UV-I 596 W/m 9,8 C 16,9 C 12,9 km/h (3 Bft) 94,64 %
25.04.2017 14:18 17,3 C 0,0 C 60 % 1006,4 hPa 0,0 l/m 6,0 km/h (2 Bft) W-NW 283 2 min 0,000 mm 3,5 UV-I 676 W/m 9,5 C 17,3 C 11,3 km/h (2 Bft) 92,68 %
25.04.2017 14:20 17,3 C 0,0 C 60 % 1006,3 hPa 0,0 l/m 4,0 km/h (1 Bft) N-NW 337 2 min 0,000 mm 3,6 UV-I 704 W/m 9,5 C 17,3 C 8,0 km/h (2 Bft) 95,45 %
25.04.2017 14:22 17,4 C 0,0 C 63 % 1006,3 hPa 0,0 l/m 2,0 km/h (1 Bft) N-NW 341 2 min 0,000 mm 3,9 UV-I 819 W/m 10,3 C 17,4 C 4,8 km/h (1 Bft) 90,00 %
25.04.2017 14:24 17,6 C 0,0 C 61 % 1006,3 hPa 0,0 l/m 3,3 km/h (1 Bft) N-NW 338 2 min 0,000 mm 3,6 UV-I 795 W/m 10,0 C 17,6 C 9,7 km/h (2 Bft) 94,00 %
25.04.2017 14:26 17,7 C 0,0 C 65 % 1006,3 hPa 0,0 l/m 3,0 km/h (1 Bft) NO 51 2 min 0,000 mm 3,1 UV-I 584 W/m 11,0 C 17,7 C 12,9 km/h (3 Bft) 92,11 %
25.04.2017 14:28 17,4 C 0,0 C 60 % 1006,2 hPa 0,0 l/m 9,4 km/h (2 Bft) N 355 2 min 0,000 mm 3,4 UV-I 716 W/m 9,6 C 16,0 C 19,3 km/h (3 Bft) 96,00 %
25.04.2017 14:30 17,3 C 0,0 C 64 % 1006,1 hPa 0,0 l/m 8,9 km/h (2 Bft) NO 44 2 min 0,000 mm 3,6 UV-I 822 W/m 10,4 C 16,1 C 22,5 km/h (4 Bft) 92,68 %
25.04.2017 14:32 17,2 C 0,0 C 63 % 1006,1 hPa 0,0 l/m 5,3 km/h (1 Bft) NW 313 2 min 0,000 mm 3,6 UV-I 837 W/m 10,1 C 17,2 C 9,7 km/h (2 Bft) 92,45 %
25.04.2017 14:34 17,0 C 0,0 C 62 % 1006,1 hPa 0,0 l/m 7,6 km/h (2 Bft) N 5 2 min 0,000 mm 3,3 UV-I 803 W/m 9,7 C 16,4 C 14,5 km/h (3 Bft) 94,34 %
25.04.2017 14:36 16,8 C 0,0 C 63 % 1006,1 hPa 0,0 l/m 4,3 km/h (1 Bft) W-NW 294 2 min 0,000 mm 2,3 UV-I 613 W/m 9,7 C 16,8 C 8,0 km/h (2 Bft) 91,49 %
25.04.2017 14:38 16,5 C 0,0 C 64 % 1006,1 hPa 0,0 l/m 4,8 km/h (1 Bft) NW 313 0 min 0,000 mm 1,8 UV-I 244 W/m 9,7 C 16,5 C 8,0 km/h (2 Bft) 94,74 %
25.04.2017 14:40 16,3 C 0,0 C 64 % 1006,0 hPa 0,0 l/m 3,8 km/h (1 Bft) N-NW 333 0 min 0,000 mm 1,8 UV-I 230 W/m 9,5 C 16,3 C 12,9 km/h (3 Bft) 94,00 %
25.04.2017 14:42 16,1 C 0,0 C 64 % 1006,0 hPa 0,0 l/m 7,5 km/h (2 Bft) NW 311 0 min 0,000 mm 2,0 UV-I 266 W/m 9,3 C 15,5 C 12,9 km/h (3 Bft) 95,12 %
25.04.2017 14:44 15,9 C 0,0 C 65 % 1006,0 hPa 0,0 l/m 6,4 km/h (2 Bft) N-NW 333 0 min 0,000 mm 2,3 UV-I 278 W/m 9,3 C 15,9 C 14,5 km/h (3 Bft) 98,11 %
25.04.2017 14:46 15,8 C 0,0 C 65 % 1005,9 hPa 0,0 l/m 5,9 km/h (2 Bft) N-NO 24 0 min 0,000 mm 2,4 UV-I 275 W/m 9,2 C 15,8 C 14,5 km/h (3 Bft) 98,00 %
25.04.2017 14:48 15,8 C 0,0 C 65 % 1006,0 hPa 0,0 l/m 5,2 km/h (1 Bft) W-NW 285 0 min 0,000 mm 2,8 UV-I 274 W/m 9,2 C 15,8 C 9,7 km/h (2 Bft) 97,67 %
25.04.2017 14:50 16,1 C 0,0 C 65 % 1006,0 hPa 0,0 l/m 3,9 km/h (1 Bft) W 261 0 min 0,000 mm 3,3 UV-I 336 W/m 9,5 C 16,1 C 9,7 km/h (2 Bft) 96,30 %
25.04.2017 14:52 16,4 C 0,0 C 63 % 1005,9 hPa 0,0 l/m 5,8 km/h (2 Bft) N-NW 338 2 min 0,000 mm 3,3 UV-I 774 W/m 9,3 C 16,4 C 12,9 km/h (3 Bft) 95,74 %
25.04.2017 14:54 16,6 C 0,0 C 66 % 1005,9 hPa 0,0 l/m 4,3 km/h (1 Bft) NW 309 2 min 0,000 mm 3,3 UV-I 768 W/m 10,2 C 16,6 C 9,7 km/h (2 Bft) 94,74 %
25.04.2017 14:56 16,9 C 0,0 C 64 % 1005,9 hPa 0,0 l/m 4,6 km/h (1 Bft) NW 306 2 min 0,000 mm 3,3 UV-I 714 W/m 10,0 C 16,9 C 8,0 km/h (2 Bft) 98,21 %
25.04.2017 14:58 17,1 C 0,0 C 63 % 1005,9 hPa 0,0 l/m 6,3 km/h (2 Bft) N 355 2 min 0,000 mm 3,3 UV-I 744 W/m 10,0 C 17,1 C 17,7 km/h (3 Bft) 94,74 %
25.04.2017 15:00 17,2 C 0,0 C 64 % 1005,9 hPa 0,0 l/m 5,4 km/h (1 Bft) N-NW 338 2 min 0,356 mm 3,5 UV-I 825 W/m 10,3 C 17,2 C 17,7 km/h (3 Bft) 97,73 %
25.04.2017 15:02 17,3 C 0,0 C 63 % 1005,9 hPa 0,0 l/m 5,9 km/h (2 Bft) N-NW 338 2 min 0,000 mm 3,3 UV-I 801 W/m 10,2 C 17,3 C 12,9 km/h (3 Bft) 96,43 %
25.04.2017 15:04 17,3 C 0,0 C 63 % 1005,8 hPa 0,0 l/m 6,1 km/h (2 Bft) N-NW 332 2 min 0,000 mm 3,3 UV-I 783 W/m 10,2 C 17,3 C 19,3 km/h (3 Bft) 97,37 %
25.04.2017 15:06 17,3 C 0,0 C 61 % 1005,8 hPa 0,0 l/m 4,0 km/h (1 Bft) S 169 2 min 0,000 mm 3,1 UV-I 759 W/m 9,7 C 17,3 C 6,4 km/h (2 Bft) 96,43 %
25.04.2017 15:08 17,3 C 0,0 C 65 % 1005,7 hPa 0,0 l/m 3,5 km/h (1 Bft) NW 312 2 min 0,000 mm 3,0 UV-I 601 W/m 10,7 C 17,3 C 8,0 km/h (2 Bft) 97,37 %
25.04.2017 15:10 17,5 C 0,0 C 60 % 1005,8 hPa 0,0 l/m 6,8 km/h (2 Bft) W 279 2 min 0,000 mm 2,6 UV-I 570 W/m 9,6 C 17,3 C 12,9 km/h (3 Bft) 94,00 %
25.04.2017 15:12 17,3 C 0,0 C 60 % 1005,8 hPa 0,0 l/m 4,8 km/h (1 Bft) W-NW 282 2 min 0,000 mm 2,3 UV-I 502 W/m 9,5 C 17,3 C 12,9 km/h (3 Bft) 94,74 %
25.04.2017 15:14 17,2 C 0,0 C 61 % 1005,7 hPa 0,0 l/m 5,5 km/h (1 Bft) W-NW 292 2 min 0,000 mm 1,9 UV-I 422 W/m 9,6 C 17,2 C 11,3 km/h (2 Bft) 95,16 %
25.04.2017 15:16 17,1 C 0,0 C 66 % 1005,7 hPa 0,0 l/m 3,2 km/h (1 Bft) NW 313 0 min 0,000 mm 1,7 UV-I 304 W/m 10,7 C 17,1 C 4,8 km/h (1 Bft) 93,62 %
25.04.2017 15:18 16,8 C 0,0 C 63 % 1005,8 hPa 0,0 l/m 6,5 km/h (2 Bft) NW 309 0 min 0,000 mm 1,5 UV-I 243 W/m 9,7 C 16,8 C 17,7 km/h (3 Bft) 100,00 %
25.04.2017 15:20 16,6 C 0,0 C 61 % 1005,7 hPa 0,0 l/m 6,0 km/h (2 Bft) W-NW 300 0 min 0,000 mm 1,5 UV-I 227 W/m 9,0 C 16,6 C 14,5 km/h (3 Bft) 98,00 %
25.04.2017 15:22 16,3 C 0,0 C 64 % 1005,7 hPa 0,0 l/m 3,8 km/h (1 Bft) NW 313 0 min 0,000 mm 1,5 UV-I 236 W/m 9,5 C 16,3 C 12,9 km/h (3 Bft) 100,00 %
25.04.2017 15:24 16,2 C 0,0 C 64 % 1005,6 hPa 0,0 l/m 4,6 km/h (1 Bft) NW 306 0 min 0,000 mm 1,6 UV-I 252 W/m 9,4 C 16,2 C 12,9 km/h (3 Bft) 95,83 %
25.04.2017 15:26 16,1 C 0,0 C 64 % 1005,6 hPa 0,0 l/m 5,1 km/h (1 Bft) NW 310 0 min 0,000 mm 1,8 UV-I 265 W/m 9,3 C 16,1 C 8,0 km/h (2 Bft) 98,21 %
25.04.2017 15:28 16,2 C 0,0 C 67 % 1005,6 hPa 0,0 l/m 3,7 km/h (1 Bft) N-NW 344 0 min 0,000 mm 2,1 UV-I 330 W/m 10,1 C 16,2 C 8,0 km/h (2 Bft) 97,67 %
25.04.2017 15:30 16,3 C 0,0 C 62 % 1005,5 hPa 0,0 l/m 5,5 km/h (1 Bft) W-NW 292 2 min 0,000 mm 2,2 UV-I 528 W/m 9,0 C 16,3 C 9,7 km/h (2 Bft) 97,56 %
25.04.2017 15:32 16,6 C 0,0 C 68 % 1005,5 hPa 0,0 l/m 3,3 km/h (1 Bft) N-NW 335 2 min 0,000 mm 2,2 UV-I 537 W/m 10,7 C 16,6 C 6,4 km/h (2 Bft) 100,00 %
25.04.2017 15:34 16,7 C 0,0 C 62 % 1005,4 hPa 0,0 l/m 3,2 km/h (1 Bft) N-NW 336 2 min 0,000 mm 2,2 UV-I 475 W/m 9,4 C 16,7 C 6,4 km/h (2 Bft) 100,00 %
25.04.2017 15:36 16,7 C 0,0 C 64 % 1005,5 hPa 0,0 l/m 2,6 km/h (1 Bft) N 355 2 min 0,000 mm 2,2 UV-I 497 W/m 9,9 C 16,7 C 6,4 km/h (2 Bft) 98,21 %
25.04.2017 15:38 16,9 C 0,0 C 64 % 1005,4 hPa 0,0 l/m 3,2 km/h (1 Bft) N 360 2 min 0,000 mm 2,2 UV-I 489 W/m 10,0 C 16,9 C 6,4 km/h (2 Bft) 100,00 %
25.04.2017 15:40 16,9 C 0,0 C 61 % 1005,5 hPa 0,0 l/m 6,0 km/h (2 Bft) N-NW 336 2 min 0,000 mm 2,3 UV-I 540 W/m 9,3 C 16,9 C 14,5 km/h (3 Bft) 100,00 %
25.04.2017 15:42 17,1 C 0,0 C 62 % 1005,5 hPa 0,0 l/m 4,3 km/h (1 Bft) NW 307 2 min 0,000 mm 2,4 UV-I 624 W/m 9,8 C 17,1 C 12,9 km/h (3 Bft) 100,00 %
25.04.2017 15:44 17,2 C 0,0 C 65 % 1005,5 hPa 0,0 l/m 3,6 km/h (1 Bft) N-NW 327 2 min 0,000 mm 2,3 UV-I 622 W/m 10,6 C 17,2 C 9,7 km/h (2 Bft) 100,00 %
25.04.2017 15:46 17,3 C 0,0 C 61 % 1005,5 hPa 0,0 l/m 5,7 km/h (1 Bft) N-NW 344 2 min 0,000 mm 2,1 UV-I 661 W/m 9,7 C 17,3 C 11,3 km/h (2 Bft) 100,00 %
25.04.2017 15:48 17,3 C 0,0 C 61 % 1005,5 hPa 0,0 l/m 6,4 km/h (2 Bft) W-NW 295 2 min 0,000 mm 1,7 UV-I 498 W/m 9,7 C 17,3 C 14,5 km/h (3 Bft) 100,00 %
25.04.2017 15:50 17,1 C 0,0 C 59 % 1005,4 hPa 0,0 l/m 7,2 km/h (2 Bft) N-NW 343 2 min 0,000 mm 1,5 UV-I 359 W/m 9,0 C 16,7 C 14,5 km/h (3 Bft) 100,00 %
25.04.2017 15:52 16,8 C 0,0 C 62 % 1005,4 hPa 0,0 l/m 4,0 km/h (1 Bft) W-NW 297 0 min 0,000 mm 1,4 UV-I 328 W/m 9,5 C 16,8 C 12,9 km/h (3 Bft) 100,00 %
25.04.2017 15:54 16,7 C 0,0 C 61 % 1005,3 hPa 0,0 l/m 5,8 km/h (2 Bft) W-NW 303 0 min 0,000 mm 1,4 UV-I 327 W/m 9,1 C 16,7 C 14,5 km/h (3 Bft) 100,00 %
25.04.2017 15:56 16,6 C 0,0 C 61 % 1005,2 hPa 0,0 l/m 6,3 km/h (2 Bft) NW 308 0 min 0,000 mm 1,5 UV-I 333 W/m 9,0 C 16,6 C 16,1 km/h (3 Bft) 100,00 %
25.04.2017 15:58 16,5 C 0,0 C 61 % 1005,2 hPa 0,0 l/m 5,4 km/h (1 Bft) W-NW 294 2 min 0,000 mm 1,6 UV-I 349 W/m 9,0 C 16,5 C 11,3 km/h (2 Bft) 97,62 %
25.04.2017 16:00 16,5 C 0,0 C 62 % 1005,2 hPa 0,0 l/m 3,8 km/h (1 Bft) NW 305 2 min 0,000 mm 1,8 UV-I 365 W/m 9,2 C 16,5 C 6,4 km/h (2 Bft) 98,36 %
25.04.2017 16:02 16,6 C 0,0 C 63 % 1005,1 hPa 0,0 l/m 3,2 km/h (1 Bft) W-NW 294 2 min 0,279 mm 1,7 UV-I 406 W/m 9,5 C 16,6 C 6,4 km/h (2 Bft) 100,00 %
25.04.2017 16:04 16,6 C 0,0 C 61 % 1005,0 hPa 0,0 l/m 2,7 km/h (1 Bft) W-NW 285 2 min 0,000 mm 1,9 UV-I 349 W/m 9,0 C 16,6 C 4,8 km/h (1 Bft) 100,00 %
25.04.2017 16:06 16,9 C 0,0 C 64 % 1005,1 hPa 0,0 l/m 4,2 km/h (1 Bft) N-NW 348 2 min 0,000 mm 2,0 UV-I 604 W/m 10,0 C 16,9 C 9,7 km/h (2 Bft) 97,44 %
25.04.2017 16:08 17,1 C 0,0 C 61 % 1005,0 hPa 0,0 l/m 7,1 km/h (2 Bft) N-NO 30 2 min 0,000 mm 2,0 UV-I 542 W/m 9,5 C 16,7 C 12,9 km/h (3 Bft) 96,72 %
25.04.2017 16:10 17,1 C 0,0 C 59 % 1005,0 hPa 0,0 l/m 4,8 km/h (1 Bft) NW 321 2 min 0,000 mm 1,9 UV-I 536 W/m 9,0 C 17,1 C 14,5 km/h (3 Bft) 97,22 %
25.04.2017 16:12 17,1 C 0,0 C 61 % 1005,0 hPa 0,0 l/m 6,0 km/h (2 Bft) N-NW 338 2 min 0,000 mm 1,7 UV-I 458 W/m 9,5 C 17,1 C 16,1 km/h (3 Bft) 96,00 %
25.04.2017 16:14 17,1 C 0,0 C 59 % 1005,0 hPa 0,0 l/m 5,6 km/h (1 Bft) N-NW 348 2 min 0,000 mm 1,5 UV-I 433 W/m 9,0 C 17,1 C 9,7 km/h (2 Bft) 98,00 %
25.04.2017 16:16 17,1 C 0,0 C 60 % 1005,0 hPa 0,0 l/m 7,2 km/h (2 Bft) W-SW 248 0 min 0,000 mm 1,2 UV-I 302 W/m 9,3 C 16,7 C 14,5 km/h (3 Bft) 97,73 %
25.04.2017 16:18 16,9 C 0,0 C 61 % 1005,1 hPa 0,0 l/m 5,8 km/h (2 Bft) N-NW 338 0 min 0,000 mm 0,9 UV-I 200 W/m 9,3 C 16,9 C 11,3 km/h (2 Bft) 97,87 %
25.04.2017 16:20 16,7 C 0,0 C 59 % 1005,1 hPa 0,0 l/m 6,9 km/h (2 Bft) NW 321 0 min 0,000 mm 0,7 UV-I 149 W/m 8,6 C 16,4 C 17,7 km/h (3 Bft) 93,62 %
25.04.2017 16:22 16,4 C 0,0 C 61 % 1005,1 hPa 0,0 l/m 7,3 km/h (2 Bft) NW 317 0 min 0,000 mm 0,6 UV-I 141 W/m 8,9 C 15,9 C 14,5 km/h (3 Bft) 94,00 %
25.04.2017 16:24 16,2 C 0,0 C 61 % 1005,1 hPa 0,0 l/m 5,6 km/h (1 Bft) NW 323 0 min 0,000 mm 0,6 UV-I 138 W/m 8,7 C 16,2 C 12,9 km/h (3 Bft) 95,74 %
25.04.2017 16:26 16,1 C 0,0 C 62 % 1005,1 hPa 0,0 l/m 4,8 km/h (1 Bft) N-NW 340 0 min 0,000 mm 0,5 UV-I 125 W/m 8,8 C 16,1 C 8,0 km/h (2 Bft) 94,74 %
25.04.2017 16:28 16,0 C 0,0 C 62 % 1005,2 hPa 0,0 l/m 5,3 km/h (1 Bft) N-NW 348 0 min 0,000 mm 0,5 UV-I 117 W/m 8,7 C 16,0 C 14,5 km/h (3 Bft) 98,11 %
25.04.2017 16:30 15,9 C 0,0 C 62 % 1005,3 hPa 0,0 l/m 4,9 km/h (1 Bft) NW 320 0 min 0,000 mm 0,5 UV-I 118 W/m 8,6 C 15,9 C 11,3 km/h (2 Bft) 96,23 %
25.04.2017 16:32 15,8 C 0,0 C 63 % 1005,3 hPa 0,0 l/m 3,4 km/h (1 Bft) W-NW 300 0 min 0,000 mm 0,5 UV-I 114 W/m 8,8 C 15,8 C 8,0 km/h (2 Bft) 97,37 %
25.04.2017 16:34 15,8 C 0,0 C 62 % 1005,4 hPa 0,0 l/m 6,3 km/h (2 Bft) NW 309 0 min 0,000 mm 0,4 UV-I 110 W/m 8,5 C 15,8 C 12,9 km/h (3 Bft) 96,00 %
25.04.2017 16:36 15,7 C 17,2 C 64 % 1005,3 hPa 0,0 l/m 3,7 km/h (1 Bft) W 267 0 min 0,000 mm 0,2 UV-I 119 W/m 8,9 C 15,7 C 14,5 km/h (3 Bft) 98,11 %
25.04.2017 16:38 15,7 C 17,2 C 63 % 1005,3 hPa 0,0 l/m 7,5 km/h (2 Bft) N 355 0 min 0,000 mm 0,5 UV-I 134 W/m 8,7 C 15,1 C 16,1 km/h (3 Bft) 92,68 %
25.04.2017 16:40 15,6 C 17,2 C 63 % 1005,3 hPa 0,0 l/m 5,1 km/h (1 Bft) NW 307 0 min 0,000 mm 0,5 UV-I 136 W/m 8,6 C 15,6 C 12,9 km/h (3 Bft) 92,86 %
25.04.2017 16:42 15,6 C 16,7 C 64 % 1005,3 hPa 0,0 l/m 6,8 km/h (2 Bft) NW 322 0 min 0,000 mm 0,5 UV-I 143 W/m 8,8 C 15,4 C 14,5 km/h (3 Bft) 95,92 %
25.04.2017 16:44 15,5 C 16,7 C 64 % 1005,3 hPa 0,0 l/m 6,6 km/h (2 Bft) W 274 0 min 0,000 mm 0,6 UV-I 153 W/m 8,7 C 15,4 C 14,5 km/h (3 Bft) 100,00 %
25.04.2017 16:46 15,4 C 16,7 C 64 % 1005,4 hPa 0,0 l/m 5,8 km/h (2 Bft) W-NW 287 0 min 0,000 mm 0,6 UV-I 162 W/m 8,6 C 15,4 C 12,9 km/h (3 Bft) 100,00 %
25.04.2017 16:48 15,4 C 16,7 C 64 % 1005,4 hPa 0,0 l/m 7,9 km/h (2 Bft) N 355 0 min 0,000 mm 0,7 UV-I 178 W/m 8,6 C 14,6 C 16,1 km/h (3 Bft) 100,00 %
25.04.2017 16:50 15,4 C 16,7 C 64 % 1005,3 hPa 0,0 l/m 5,2 km/h (1 Bft) W-NW 288 0 min 0,000 mm 0,7 UV-I 182 W/m 8,6 C 15,4 C 14,5 km/h (3 Bft) 98,11 %
25.04.2017 16:52 15,4 C 16,7 C 64 % 1005,3 hPa 0,0 l/m 8,8 km/h (2 Bft) NW 323 0 min 0,000 mm 0,6 UV-I 162 W/m 8,6 C 14,1 C 20,9 km/h (4 Bft) 100,00 %
25.04.2017 16:54 15,4 C 16,7 C 64 % 1005,2 hPa 0,0 l/m 8,0 km/h (2 Bft) N-NW 345 0 min 0,000 mm 0,5 UV-I 143 W/m 8,6 C 14,5 C 19,3 km/h (3 Bft) 96,00 %
25.04.2017 16:56 15,3 C 16,1 C 64 % 1005,2 hPa 0,0 l/m 8,0 km/h (2 Bft) N-NW 327 0 min 0,000 mm 0,5 UV-I 138 W/m 8,5 C 14,4 C 14,5 km/h (3 Bft) 100,00 %
25.04.2017 16:58 15,3 C 16,1 C 64 % 1005,2 hPa 0,0 l/m 4,6 km/h (1 Bft) NW 309 0 min 0,000 mm 0,3 UV-I 133 W/m 8,5 C 15,3 C 9,7 km/h (2 Bft) 93,18 %
25.04.2017 17:00 15,2 C 16,7 C 65 % 1005,2 hPa 0,0 l/m 5,5 km/h (1 Bft) N-NW 332 0 min 0,000 mm 0,0 UV-I 128 W/m 8,7 C 15,2 C 16,1 km/h (3 Bft) 98,11 %
25.04.2017 17:02 15,2 C 16,1 C 65 % 1005,2 hPa 0,0 l/m 7,0 km/h (2 Bft) NW 304 0 min 0,152 mm 0,0 UV-I 113 W/m 8,7 C 14,9 C 16,1 km/h (3 Bft) 95,45 %
25.04.2017 17:04 15,2 C 16,1 C 65 % 1005,3 hPa 0,0 l/m 4,0 km/h (1 Bft) W-NW 287 0 min 0,000 mm 0,0 UV-I 93 W/m 8,7 C 15,2 C 14,5 km/h (3 Bft) 95,12 %
25.04.2017 17:06 15,1 C 16,1 C 65 % 1005,2 hPa 0,0 l/m 6,8 km/h (2 Bft) W-NW 294 0 min 0,000 mm 0,0 UV-I 92 W/m 8,6 C 14,9 C 17,7 km/h (3 Bft) 98,00 %
25.04.2017 17:08 15,1 C 16,1 C 67 % 1005,2 hPa 0,0 l/m 3,1 km/h (1 Bft) NW 306 0 min 0,000 mm 0,0 UV-I 97 W/m 9,0 C 15,1 C 8,0 km/h (2 Bft) 91,53 %
25.04.2017 17:10 15,0 C 16,1 C 68 % 1005,2 hPa 0,0 l/m 3,3 km/h (1 Bft) NW 315 0 min 0,000 mm 0,0 UV-I 99 W/m 9,1 C 15,0 C 11,3 km/h (2 Bft) 95,45 %
25.04.2017 17:12 14,9 C 16,1 C 67 % 1005,2 hPa 0,0 l/m 5,1 km/h (1 Bft) W-NW 299 0 min 0,000 mm 0,0 UV-I 98 W/m 8,8 C 14,9 C 14,5 km/h (3 Bft) 97,37 %
25.04.2017 17:14 14,9 C 16,1 C 66 % 1005,2 hPa 0,0 l/m 3,6 km/h (1 Bft) W-NW 292 0 min 0,000 mm 0,0 UV-I 100 W/m 8,6 C 14,9 C 6,4 km/h (2 Bft) 100,00 %
25.04.2017 17:16 15,0 C 16,1 C 66 % 1005,2 hPa 0,0 l/m 4,1 km/h (1 Bft) NW 316 0 min 0,000 mm 0,0 UV-I 92 W/m 8,7 C 15,0 C 9,7 km/h (2 Bft) 100,00 %
25.04.2017 17:18 14,9 C 16,1 C 68 % 1005,1 hPa 0,0 l/m 5,1 km/h (1 Bft) NW 311 0 min 0,000 mm 0,0 UV-I 87 W/m 9,0 C 14,9 C 12,9 km/h (3 Bft) 100,00 %
25.04.2017 17:20 14,9 C 15,6 C 66 % 1005,2 hPa 0,0 l/m 5,0 km/h (1 Bft) NW 324 0 min 0,000 mm 0,0 UV-I 81 W/m 8,6 C 14,9 C 11,3 km/h (2 Bft) 100,00 %
25.04.2017 17:22 14,8 C 15,6 C 66 % 1005,2 hPa 0,0 l/m 4,5 km/h (1 Bft) N-NW 331 0 min 0,000 mm 0,0 UV-I 73 W/m 8,5 C 14,8 C 9,7 km/h (2 Bft) 100,00 %
25.04.2017 17:24 14,8 C 15,6 C 66 % 1005,2 hPa 0,0 l/m 5,7 km/h (1 Bft) W-NW 290 0 min 0,000 mm 0,0 UV-I 68 W/m 8,5 C 14,8 C 11,3 km/h (2 Bft) 100,00 %
25.04.2017 17:26 14,8 C 15,6 C 66 % 1005,2 hPa 0,0 l/m 4,9 km/h (1 Bft) N-NW 346 0 min 0,000 mm 0,0 UV-I 56 W/m 8,5 C 14,8 C 12,9 km/h (3 Bft) 98,00 %
25.04.2017 17:28 14,7 C 15,6 C 65 % 1005,2 hPa 0,0 l/m 10,2 km/h (2 Bft) W-NW 302 0 min 0,000 mm 0,0 UV-I 50 W/m 8,2 C 12,7 C 22,5 km/h (4 Bft) 100,00 %
25.04.2017 17:30 14,7 C 15,0 C 65 % 1005,2 hPa 0,0 l/m 7,4 km/h (2 Bft) W-NW 298 0 min 0,000 mm 0,0 UV-I 42 W/m 8,2 C 14,1 C 14,5 km/h (3 Bft) 100,00 %
25.04.2017 17:32 14,7 C 15,0 C 65 % 1005,2 hPa 0,0 l/m 3,2 km/h (1 Bft) W-NW 300 0 min 0,000 mm 0,0 UV-I 33 W/m 8,2 C 14,7 C 6,4 km/h (2 Bft) 100,00 %
25.04.2017 17:34 14,6 C 15,0 C 65 % 1005,2 hPa 0,0 l/m 4,9 km/h (1 Bft) W-NW 298 0 min 0,000 mm 0,0 UV-I 31 W/m 8,1 C 14,6 C 11,3 km/h (2 Bft) 100,00 %
25.04.2017 17:36 14,6 C 15,0 C 66 % 1005,2 hPa 0,0 l/m 2,7 km/h (1 Bft) NW 313 0 min 0,000 mm 0,0 UV-I 30 W/m 8,3 C 14,6 C 6,4 km/h (2 Bft) 100,00 %
25.04.2017 17:38 14,4 C 15,0 C 66 % 1005,2 hPa 0,0 l/m 5,5 km/h (1 Bft) W-NW 296 0 min 0,000 mm 0,0 UV-I 26 W/m 8,1 C 14,4 C 9,7 km/h (2 Bft) 100,00 %
25.04.2017 17:40 14,4 C 14,4 C 67 % 1005,2 hPa 0,0 l/m 1,7 km/h (1 Bft) NW 318 0 min 0,000 mm 0,0 UV-I 26 W/m 8,4 C 14,4 C 6,4 km/h (2 Bft) 98,00 %
25.04.2017 17:43 14,3 C 14,4 C 67 % 1005,1 hPa 0,0 l/m 2,6 km/h (1 Bft) NW 317 0 min 0,000 mm 0,0 UV-I 22 W/m 8,3 C 14,3 C 6,4 km/h (2 Bft) 100,00 %
25.04.2017 17:44 14,2 C 14,4 C 68 % 1005,1 hPa 0,0 l/m 1,0 km/h (0 Bft) NW 317 0 min 0,000 mm 0,0 UV-I 19 W/m 8,4 C 14,2 C 3,2 km/h (1 Bft) 100,00 %
25.04.2017 17:46 14,1 C 14,4 C 68 % 1005,1 hPa 0,0 l/m 4,7 km/h (1 Bft) W-NW 295 0 min 0,000 mm 0,0 UV-I 19 W/m 8,3 C 14,1 C 12,9 km/h (3 Bft) 100,00 %
25.04.2017 17:48 14,1 C 14,4 C 68 % 1005,1 hPa 0,0 l/m 5,9 km/h (2 Bft) W-NW 286 0 min 0,000 mm 0,0 UV-I 17 W/m 8,3 C 14,1 C 12,9 km/h (3 Bft) 100,00 %
25.04.2017 17:50 14,2 C 14,4 C 66 % 1005,1 hPa 0,0 l/m 3,5 km/h (1 Bft) W 271 0 min 0,000 mm 0,0 UV-I 16 W/m 7,9 C 14,2 C 6,4 km/h (2 Bft) 98,00 %
25.04.2017 17:52 14,2 C 14,4 C 66 % 1005,1 hPa 0,0 l/m 7,0 km/h (2 Bft) NW 317 0 min 0,000 mm 0,0 UV-I 16 W/m 7,9 C 13,8 C 16,1 km/h (3 Bft) 100,00 %
25.04.2017 17:54 14,2 C 14,4 C 65 % 1005,1 hPa 0,0 l/m 4,1 km/h (1 Bft) W-SW 255 0 min 0,000 mm 0,0 UV-I 12 W/m 7,7 C 14,2 C 11,3 km/h (2 Bft) 100,00 %
25.04.2017 17:56 14,2 C 14,4 C 65 % 1005,2 hPa 0,0 l/m 5,3 km/h (1 Bft) W-SW 256 0 min 0,000 mm 0,0 UV-I 11 W/m 7,7 C 14,2 C 12,9 km/h (3 Bft) 98,21 %
25.04.2017 17:58 14,3 C 14,4 C 66 % 1005,4 hPa 0,0 l/m 8,9 km/h (2 Bft) W 265 0 min 0,000 mm 0,0 UV-I 10 W/m 8,0 C 12,9 C 14,5 km/h (3 Bft) 97,73 %
25.04.2017 18:00 14,3 C 13,9 C 66 % 1005,5 hPa 0,0 l/m 11,1 km/h (2 Bft) W 275 0 min 0,000 mm 0,0 UV-I 9 W/m 8,0 C 11,8 C 16,1 km/h (3 Bft) 97,37 %
25.04.2017 18:02 14,2 C 13,9 C 67 % 1005,7 hPa 0,0 l/m 12,6 km/h (3 Bft) W 269 0 min 0,051 mm 0,0 UV-I 9 W/m 8,2 C 11,1 C 17,7 km/h (3 Bft) 96,43 %
25.04.2017 18:04 14,2 C 13,9 C 68 % 1005,8 hPa 0,0 l/m 14,6 km/h (3 Bft) W 261 0 min 0,000 mm 0,0 UV-I 10 W/m 8,4 C 10,4 C 22,5 km/h (4 Bft) 100,00 %
25.04.2017 18:06 14,0 C 13,3 C 72 % 1005,8 hPa 0,2 l/m 11,7 km/h (2 Bft) W 278 0 min 0,000 mm 0,0 UV-I 15 W/m 9,0 C 11,2 C 16,1 km/h (3 Bft) 100,00 %
25.04.2017 18:08 13,7 C 12,8 C 74 % 1005,8 hPa 0,2 l/m 10,2 km/h (2 Bft) W 261 0 min 0,000 mm 0,0 UV-I 20 W/m 9,2 C 11,6 C 16,1 km/h (3 Bft) 100,00 %
25.04.2017 18:10 13,1 C 12,2 C 77 % 1005,8 hPa 0,6 l/m 7,9 km/h (2 Bft) W-SW 256 0 min 0,000 mm 0,0 UV-I 32 W/m 9,2 C 12,2 C 14,5 km/h (3 Bft) 98,11 %
25.04.2017 18:12 12,6 C 12,2 C 79 % 1005,7 hPa 0,4 l/m 10,5 km/h (2 Bft) W-NW 286 0 min 0,000 mm 0,0 UV-I 43 W/m 9,1 C 10,2 C 20,9 km/h (4 Bft) 100,00 %
25.04.2017 18:14 12,2 C 11,7 C 81 % 1006,0 hPa 0,2 l/m 5,9 km/h (2 Bft) W-SW 246 0 min 0,000 mm 0,0 UV-I 48 W/m 9,0 C 12,2 C 11,3 km/h (2 Bft) 96,92 %
25.04.2017 18:16 11,9 C 11,7 C 83 % 1006,2 hPa 0,2 l/m 12,6 km/h (3 Bft) W-SW 243 0 min 0,000 mm 0,0 UV-I 52 W/m 9,1 C 8,4 C 20,9 km/h (4 Bft) 98,00 %
25.04.2017 18:18 11,7 C 11,7 C 85 % 1006,2 hPa 0,0 l/m 13,6 km/h (3 Bft) W-SW 257 0 min 0,000 mm 0,0 UV-I 63 W/m 9,3 C 7,8 C 19,3 km/h (3 Bft) 96,00 %
25.04.2017 18:20 11,6 C 11,7 C 86 % 1006,2 hPa 0,2 l/m 6,6 km/h (2 Bft) SW 226 0 min 0,000 mm 0,0 UV-I 76 W/m 9,3 C 11,5 C 11,3 km/h (2 Bft) 97,37 %
25.04.2017 18:22 11,5 C 11,7 C 87 % 1006,3 hPa 0,0 l/m 10,3 km/h (2 Bft) W-SW 242 0 min 0,000 mm 0,0 UV-I 77 W/m 9,4 C 9,1 C 17,7 km/h (3 Bft) 98,00 %
25.04.2017 18:24 11,4 C 11,7 C 87 % 1006,2 hPa 0,0 l/m 10,5 km/h (2 Bft) W-SW 250 0 min 0,000 mm 0,0 UV-I 84 W/m 9,3 C 8,9 C 14,5 km/h (3 Bft) 94,00 %
25.04.2017 18:26 11,3 C 11,7 C 88 % 1006,2 hPa 0,0 l/m 10,6 km/h (2 Bft) SW 231 0 min 0,000 mm 0,0 UV-I 96 W/m 9,4 C 8,7 C 16,1 km/h (3 Bft) 97,56 %
25.04.2017 18:28 11,3 C 11,7 C 88 % 1006,1 hPa 0,0 l/m 6,9 km/h (2 Bft) W-SW 258 0 min 0,000 mm 0,0 UV-I 97 W/m 9,4 C 11,0 C 12,9 km/h (3 Bft) 93,18 %
25.04.2017 18:30 11,2 C 11,7 C 88 % 1006,1 hPa 0,0 l/m 4,3 km/h (1 Bft) W 269 0 min 0,000 mm 0,0 UV-I 92 W/m 9,3 C 11,2 C 6,4 km/h (2 Bft) 96,00 %
25.04.2017 18:32 11,2 C 11,7 C 90 % 1006,1 hPa 0,0 l/m 5,8 km/h (2 Bft) W 265 0 min 0,000 mm 0,0 UV-I 86 W/m 9,6 C 11,2 C 11,3 km/h (2 Bft) 95,12 %
25.04.2017 18:34 11,2 C 12,2 C 90 % 1006,0 hPa 0,0 l/m 2,9 km/h (1 Bft) W-NW 295 0 min 0,000 mm 0,0 UV-I 99 W/m 9,6 C 11,2 C 4,8 km/h (1 Bft) 96,30 %
25.04.2017 18:36 11,1 C 11,7 C 90 % 1006,0 hPa 0,0 l/m 3,9 km/h (1 Bft) W-NW 295 0 min 0,000 mm 0,0 UV-I 114 W/m 9,5 C 11,1 C 6,4 km/h (2 Bft) 95,74 %
25.04.2017 18:38 11,2 C 11,7 C 91 % 1005,9 hPa 0,0 l/m 3,1 km/h (1 Bft) W-NW 284 0 min 0,000 mm 0,0 UV-I 112 W/m 9,8 C 11,2 C 9,7 km/h (2 Bft) 95,12 %
25.04.2017 18:40 11,1 C 12,2 C 91 % 1005,9 hPa 0,0 l/m 1,5 km/h (1 Bft) W-NW 284 0 min 0,000 mm 0,0 UV-I 103 W/m 9,7 C 11,1 C 3,2 km/h (1 Bft) 96,23 %
25.04.2017 18:42 11,1 C 12,2 C 91 % 1005,8 hPa 0,0 l/m 1,4 km/h (1 Bft) W-NW 284 0 min 0,000 mm 0,0 UV-I 91 W/m 9,7 C 11,1 C 4,8 km/h (1 Bft) 94,00 %
25.04.2017 18:44 11,2 C 12,2 C 91 % 1005,8 hPa 0,0 l/m 0,0 km/h (0 Bft) W-NW 284 0 min 0,000 mm 0,0 UV-I 79 W/m 9,8 C 11,2 C 1,6 km/h (1 Bft) 94,87 %
25.04.2017 18:46 11,2 C 12,2 C 92 % 1005,7 hPa 0,0 l/m 0,3 km/h (0 Bft) W-NW 284 0 min 0,000 mm 0,0 UV-I 63 W/m 9,9 C 11,2 C 1,6 km/h (1 Bft) 97,87 %
25.04.2017 18:48 11,2 C 12,2 C 92 % 1005,8 hPa 0,0 l/m 1,3 km/h (1 Bft) W-NW 284 0 min 0,000 mm 0,0 UV-I 49 W/m 9,9 C 11,2 C 3,2 km/h (1 Bft) 97,87 %
25.04.2017 18:50 11,2 C 11,7 C 92 % 1005,8 hPa 0,0 l/m 3,2 km/h (1 Bft) W-NW 284 0 min 0,000 mm 0,0 UV-I 42 W/m 9,9 C 11,2 C 4,8 km/h (1 Bft) 96,00 %
25.04.2017 18:52 11,2 C 11,7 C 92 % 1005,7 hPa 0,0 l/m 1,7 km/h (1 Bft) W-NW 288 0 min 0,000 mm 0,0 UV-I 39 W/m 9,9 C 11,2 C 4,8 km/h (1 Bft) 96,00 %
25.04.2017 18:54 11,2 C 11,7 C 91 % 1005,7 hPa 0,0 l/m 2,6 km/h (1 Bft) W-NW 298 0 min 0,000 mm 0,0 UV-I 41 W/m 9,8 C 11,2 C 4,8 km/h (1 Bft) 92,00 %
25.04.2017 18:56 11,2 C 11,7 C 91 % 1005,6 hPa 0,0 l/m 1,3 km/h (1 Bft) W-NW 298 0 min 0,000 mm 0,0 UV-I 43 W/m 9,8 C 11,2 C 3,2 km/h (1 Bft) 94,74 %
25.04.2017 18:58 11,2 C 11,7 C 91 % 1005,6 hPa 0,0 l/m 2,2 km/h (1 Bft) W-NW 298 0 min 0,000 mm 0,0 UV-I 45 W/m 9,8 C 11,2 C 4,8 km/h (1 Bft) 97,87 %
25.04.2017 19:00 11,2 C 11,7 C 91 % 1005,5 hPa 0,0 l/m 0,7 km/h (0 Bft) W-NW 298 0 min 0,051 mm 0,0 UV-I 45 W/m 9,8 C 11,2 C 3,2 km/h (1 Bft) 97,87 %
25.04.2017 19:02 11,2 C 11,7 C 90 % 1005,5 hPa 0,0 l/m 1,9 km/h (1 Bft) W-NW 298 0 min 0,000 mm 0,0 UV-I 40 W/m 9,6 C 11,2 C 4,8 km/h (1 Bft) 98,00 %
25.04.2017 19:04 11,2 C 11,7 C 90 % 1005,6 hPa 0,0 l/m 1,5 km/h (1 Bft) W-NW 298 0 min 0,000 mm 0,0 UV-I 33 W/m 9,6 C 11,2 C 3,2 km/h (1 Bft) 97,87 %
25.04.2017 19:06 11,3 C 11,7 C 91 % 1005,6 hPa 0,0 l/m 0,0 km/h (0 Bft) W-NW 298 0 min 0,000 mm 0,0 UV-I 27 W/m 9,9 C 11,3 C 0,0 km/h (0 Bft) 98,00 %
25.04.2017 19:08 11,3 C 11,7 C 91 % 1005,6 hPa 0,0 l/m 0,4 km/h (0 Bft) W-NW 298 0 min 0,000 mm 0,0 UV-I 26 W/m 9,9 C 11,3 C 1,6 km/h (1 Bft) 97,56 %
25.04.2017 19:10 11,4 C 11,7 C 90 % 1005,6 hPa 0,0 l/m 0,5 km/h (0 Bft) W-NW 298 0 min 0,000 mm 0,0 UV-I 25 W/m 9,8 C 11,4 C 1,6 km/h (1 Bft) 96,43 %
25.04.2017 19:12 11,4 C 11,7 C 91 % 1005,6 hPa 0,0 l/m 1,6 km/h (1 Bft) W-NW 298 0 min 0,000 mm 0,0 UV-I 25 W/m 10,0 C 11,4 C 3,2 km/h (1 Bft) 97,56 %
25.04.2017 19:14 11,4 C 11,7 C 91 % 1005,7 hPa 0,0 l/m 1,7 km/h (1 Bft) W-NW 298 0 min 0,000 mm 0,0 UV-I 25 W/m 10,0 C 11,4 C 3,2 km/h (1 Bft) 97,87 %
25.04.2017 19:17 11,4 C 11,7 C 91 % 1005,7 hPa 0,0 l/m 0,7 km/h (0 Bft) W-NW 298 0 min 0,000 mm 0,0 UV-I 26 W/m 10,0 C 11,4 C 3,2 km/h (1 Bft) 97,40 %
25.04.2017 19:18 11,4 C 11,7 C 91 % 1005,7 hPa 0,0 l/m 1,1 km/h (1 Bft) W-NW 298 0 min 0,000 mm 0,0 UV-I 26 W/m 10,0 C 11,4 C 3,2 km/h (1 Bft) 90,91 %
25.04.2017 19:20 11,4 C 11,7 C 91 % 1005,6 hPa 0,0 l/m 0,2 km/h (0 Bft) W-NW 298 0 min 0,000 mm 0,0 UV-I 29 W/m 10,0 C 11,4 C 1,6 km/h (1 Bft) 97,92 %
25.04.2017 19:22 11,4 C 11,7 C 91 % 1005,6 hPa 0,0 l/m 0,0 km/h (0 Bft) W-NW 298 0 min 0,000 mm 0,0 UV-I 30 W/m 10,0 C 11,4 C 1,6 km/h (1 Bft) 94,23 %
25.04.2017 19:24 11,4 C 11,7 C 91 % 1005,5 hPa 0,0 l/m 1,4 km/h (1 Bft) W-NW 298 0 min 0,000 mm 0,0 UV-I 27 W/m 10,0 C 11,4 C 3,2 km/h (1 Bft) 97,62 %
25.04.2017 19:26 11,4 C 11,7 C 91 % 1005,6 hPa 0,0 l/m 0,9 km/h (0 Bft) W-NW 298 0 min 0,000 mm 0,0 UV-I 23 W/m 10,0 C 11,4 C 3,2 km/h (1 Bft) 98,08 %
25.04.2017 19:28 11,4 C 11,7 C 91 % 1005,7 hPa 0,0 l/m 0,2 km/h (0 Bft) W-NW 298 0 min 0,000 mm 0,0 UV-I 18 W/m 10,0 C 11,4 C 1,6 km/h (1 Bft) 97,56 %
25.04.2017 19:30 11,4 C 11,7 C 91 % 1005,6 hPa 0,0 l/m 1,6 km/h (1 Bft) W-NW 298 0 min 0,000 mm 0,0 UV-I 15 W/m 10,0 C 11,4 C 3,2 km/h (1 Bft) 100,00 %
25.04.2017 19:32 11,4 C 11,7 C 92 % 1005,6 hPa 0,0 l/m 2,3 km/h (1 Bft) W-NW 298 0 min 0,000 mm 0,0 UV-I 14 W/m 10,1 C 11,4 C 3,2 km/h (1 Bft) 100,00 %
25.04.2017 19:34 11,3 C 11,7 C 92 % 1005,6 hPa 0,0 l/m 1,1 km/h (1 Bft) W-NW 298 0 min 0,000 mm 0,0 UV-I 13 W/m 10,0 C 11,3 C 3,2 km/h (1 Bft) 100,00 %
25.04.2017 19:36 11,4 C 11,7 C 92 % 1005,6 hPa 0,0 l/m 2,5 km/h (1 Bft) W-NW 298 0 min 0,000 mm 0,0 UV-I 12 W/m 10,1 C 11,4 C 4,8 km/h (1 Bft) 100,00 %
25.04.2017 19:38 11,3 C 11,7 C 92 % 1005,6 hPa 0,0 l/m 3,0 km/h (1 Bft) W-NW 297 0 min 0,000 mm 0,0 UV-I 12 W/m 10,0 C 11,3 C 6,4 km/h (2 Bft) 98,11 %
25.04.2017 19:40 11,3 C 11,7 C 92 % 1005,6 hPa 0,0 l/m 4,0 km/h (1 Bft) W-NW 297 0 min 0,000 mm 0,0 UV-I 11 W/m 10,0 C 11,3 C 4,8 km/h (1 Bft) 100,00 %
25.04.2017 19:42 11,3 C 11,7 C 93 % 1005,7 hPa 0,0 l/m 3,8 km/h (1 Bft) W-NW 296 0 min 0,000 mm 0,0 UV-I 11 W/m 10,2 C 11,3 C 6,4 km/h (2 Bft) 97,87 %
25.04.2017 19:44 11,3 C 11,7 C 93 % 1005,7 hPa 0,0 l/m 2,6 km/h (1 Bft) W-NW 296 0 min 0,000 mm 0,0 UV-I 11 W/m 10,2 C 11,3 C 4,8 km/h (1 Bft) 100,00 %
25.04.2017 19:46 11,3 C 11,1 C 93 % 1005,7 hPa 0,0 l/m 0,7 km/h (0 Bft) W-NW 296 0 min 0,000 mm 0,0 UV-I 9 W/m 10,2 C 11,3 C 3,2 km/h (1 Bft) 98,00 %
25.04.2017 19:48 11,3 C 11,1 C 93 % 1005,7 hPa 0,0 l/m 0,2 km/h (0 Bft) W-NW 296 0 min 0,000 mm 0,0 UV-I 8 W/m 10,2 C 11,3 C 1,6 km/h (1 Bft) 100,00 %
25.04.2017 19:50 11,2 C 11,1 C 93 % 1005,8 hPa 0,0 l/m 0,8 km/h (0 Bft) W-NW 296 0 min 0,000 mm 0,0 UV-I 7 W/m 10,1 C 11,2 C 3,2 km/h (1 Bft) 100,00 %
25.04.2017 19:52 11,2 C 11,1 C 93 % 1005,8 hPa 0,0 l/m 0,5 km/h (0 Bft) W-NW 296 0 min 0,000 mm 0,0 UV-I 7 W/m 10,1 C 11,2 C 1,6 km/h (1 Bft) 100,00 %
25.04.2017 19:54 11,2 C 11,1 C 93 % 1005,8 hPa 0,0 l/m 0,6 km/h (0 Bft) W-NW 296 0 min 0,000 mm 0,0 UV-I 5 W/m 10,1 C 11,2 C 1,6 km/h (1 Bft) 100,00 %
25.04.2017 19:56 11,2 C 11,1 C 93 % 1005,8 hPa 0,0 l/m 0,4 km/h (0 Bft) W-NW 296 0 min 0,000 mm 0,0 UV-I 5 W/m 10,1 C 11,2 C 1,6 km/h (1 Bft) 100,00 %
25.04.2017 19:58 11,2 C 11,1 C 93 % 1005,8 hPa 0,0 l/m 0,3 km/h (0 Bft) W-NW 296 0 min 0,000 mm 0,0 UV-I 5 W/m 10,1 C 11,2 C 1,6 km/h (1 Bft) 100,00 %
25.04.2017 20:00 11,2 C 11,1 C 93 % 1005,9 hPa 0,0 l/m 0,5 km/h (0 Bft) W-NW 296 0 min 0,000 mm 0,0 UV-I 5 W/m 10,1 C 11,2 C 1,6 km/h (1 Bft) 100,00 %
25.04.2017 20:02 11,1 C 11,1 C 93 % 1005,9 hPa 0,0 l/m 1,2 km/h (1 Bft) W-NW 296 0 min 0,000 mm 0,0 UV-I 4 W/m 10,0 C 11,1 C 4,8 km/h (1 Bft) 100,00 %
25.04.2017 20:04 11,1 C 11,1 C 93 % 1005,9 hPa 0,0 l/m 0,7 km/h (0 Bft) W-SW 251 0 min 0,000 mm 0,0 UV-I 0 W/m 10,0 C 11,1 C 1,6 km/h (1 Bft) 100,00 %
25.04.2017 20:06 11,1 C 11,1 C 93 % 1005,9 hPa 0,0 l/m 0,8 km/h (0 Bft) W-SW 251 0 min 0,000 mm 0,0 UV-I 0 W/m 10,0 C 11,1 C 3,2 km/h (1 Bft) 100,00 %
25.04.2017 20:08 11,1 C 11,1 C 93 % 1005,9 hPa 0,0 l/m 1,3 km/h (1 Bft) W-SW 251 0 min 0,000 mm 0,0 UV-I 0 W/m 10,0 C 11,1 C 3,2 km/h (1 Bft) 100,00 %
25.04.2017 20:10 11,1 C 11,1 C 93 % 1005,9 hPa 0,0 l/m 0,3 km/h (0 Bft) W-SW 251 0 min 0,000 mm 0,0 UV-I 0 W/m 10,0 C 11,1 C 1,6 km/h (1 Bft) 100,00 %
25.04.2017 20:12 11,1 C 11,1 C 93 % 1005,9 hPa 0,0 l/m 1,2 km/h (1 Bft) W-SW 238 0 min 0,000 mm 0,0 UV-I 0 W/m 10,0 C 11,1 C 3,2 km/h (1 Bft) 100,00 %
25.04.2017 20:14 10,9 C 11,1 C 93 % 1005,8 hPa 0,0 l/m 2,9 km/h (1 Bft) S-SW 198 0 min 0,000 mm 0,0 UV-I 0 W/m 9,8 C 10,9 C 4,8 km/h (1 Bft) 97,87 %
25.04.2017 20:16 10,9 C 10,6 C 93 % 1005,8 hPa 0,0 l/m 3,0 km/h (1 Bft) S-SW 198 0 min 0,000 mm 0,0 UV-I 0 W/m 9,8 C 10,9 C 4,8 km/h (1 Bft) 97,87 %
25.04.2017 20:18 10,9 C 10,6 C 93 % 1005,8 hPa 0,0 l/m 2,0 km/h (1 Bft) S-SW 198 0 min 0,000 mm 0,0 UV-I 0 W/m 9,8 C 10,9 C 3,2 km/h (1 Bft) 97,87 %
25.04.2017 20:20 10,9 C 11,1 C 93 % 1005,8 hPa 0,0 l/m 0,4 km/h (0 Bft) S-SW 198 0 min 0,000 mm 0,0 UV-I 0 W/m 9,8 C 10,9 C 3,2 km/h (1 Bft) 97,87 %
25.04.2017 20:22 10,9 C 10,6 C 93 % 1005,8 hPa 0,0 l/m 0,4 km/h (0 Bft) S-SW 198 0 min 0,000 mm 0,0 UV-I 0 W/m 9,8 C 10,9 C 3,2 km/h (1 Bft) 97,56 %
25.04.2017 20:24 10,9 C 10,6 C 93 % 1005,8 hPa 0,0 l/m 0,3 km/h (0 Bft) S-SW 198 0 min 0,000 mm 0,0 UV-I 0 W/m 9,8 C 10,9 C 1,6 km/h (1 Bft) 98,00 %
25.04.2017 20:26 10,9 C 10,6 C 93 % 1005,8 hPa 0,0 l/m 1,5 km/h (1 Bft) S-SW 198 0 min 0,000 mm 0,0 UV-I 0 W/m 9,8 C 10,9 C 3,2 km/h (1 Bft) 96,00 %
25.04.2017 20:28 10,9 C 10,6 C 93 % 1005,8 hPa 0,0 l/m 1,8 km/h (1 Bft) S-SW 198 0 min 0,000 mm 0,0 UV-I 0 W/m 9,8 C 10,9 C 6,4 km/h (2 Bft) 96,00 %
25.04.2017 20:30 10,9 C 10,6 C 93 % 1005,8 hPa 0,0 l/m 2,0 km/h (1 Bft) S-SW 197 0 min 0,000 mm 0,0 UV-I 0 W/m 9,8 C 10,9 C 3,2 km/h (1 Bft) 94,74 %
25.04.2017 20:32 10,9 C 10,6 C 93 % 1005,9 hPa 0,0 l/m 2,1 km/h (1 Bft) S-SW 197 0 min 0,000 mm 0,0 UV-I 0 W/m 9,8 C 10,9 C 4,8 km/h (1 Bft) 96,23 %
25.04.2017 20:34 10,9 C 10,6 C 93 % 1005,9 hPa 0,0 l/m 1,2 km/h (1 Bft) S-SW 197 0 min 0,000 mm 0,0 UV-I 0 W/m 9,8 C 10,9 C 3,2 km/h (1 Bft) 95,12 %
25.04.2017 20:36 10,8 C 10,6 C 93 % 1005,9 hPa 0,0 l/m 1,4 km/h (1 Bft) S-SW 197 0 min 0,000 mm 0,0 UV-I 0 W/m 9,7 C 10,8 C 3,2 km/h (1 Bft) 98,00 %
25.04.2017 20:38 10,8 C 10,6 C 93 % 1005,9 hPa 0,0 l/m 1,2 km/h (1 Bft) S-SW 197 0 min 0,000 mm 0,0 UV-I 0 W/m 9,7 C 10,8 C 6,4 km/h (2 Bft) 95,74 %
25.04.2017 20:40 10,8 C 10,6 C 93 % 1005,9 hPa 0,0 l/m 1,1 km/h (1 Bft) S-SW 196 0 min 0,000 mm 0,0 UV-I 0 W/m 9,7 C 10,8 C 4,8 km/h (1 Bft) 97,78 %
25.04.2017 20:42 10,9 C 10,6 C 93 % 1005,9 hPa 0,0 l/m 2,2 km/h (1 Bft) S-SW 196 0 min 0,000 mm 0,0 UV-I 0 W/m 9,8 C 10,9 C 3,2 km/h (1 Bft) 96,00 %
25.04.2017 20:44 10,8 C 10,6 C 93 % 1005,9 hPa 0,0 l/m 0,2 km/h (0 Bft) S-SW 196 0 min 0,000 mm 0,0 UV-I 0 W/m 9,7 C 10,8 C 1,6 km/h (1 Bft) 97,96 %
25.04.2017 20:46 10,8 C 10,6 C 93 % 1005,9 hPa 0,0 l/m 1,7 km/h (1 Bft) S-SW 196 0 min 0,000 mm 0,0 UV-I 0 W/m 9,7 C 10,8 C 4,8 km/h (1 Bft) 93,75 %
25.04.2017 20:48 10,9 C 10,6 C 93 % 1006,0 hPa 0,0 l/m 2,3 km/h (1 Bft) S-SW 196 0 min 0,000 mm 0,0 UV-I 0 W/m 9,8 C 10,9 C 4,8 km/h (1 Bft) 100,00 %
25.04.2017 20:50 10,9 C 10,6 C 93 % 1005,9 hPa 0,0 l/m 2,2 km/h (1 Bft) S-SW 196 0 min 0,000 mm 0,0 UV-I 0 W/m 9,8 C 10,9 C 4,8 km/h (1 Bft) 96,77 %
25.04.2017 20:52 10,8 C 10,6 C 93 % 1005,9 hPa 0,0 l/m 1,4 km/h (1 Bft) S-SW 196 0 min 0,000 mm 0,0 UV-I 0 W/m 9,7 C 10,8 C 3,2 km/h (1 Bft) 100,00 %
25.04.2017 20:54 10,8 C 10,6 C 93 % 1005,9 hPa 0,0 l/m 0,7 km/h (0 Bft) S-SW 196 0 min 0,000 mm 0,0 UV-I 0 W/m 9,7 C 10,8 C 1,6 km/h (1 Bft) 100,00 %
25.04.2017 20:56 10,8 C 10,6 C 93 % 1005,9 hPa 0,0 l/m 0,0 km/h (0 Bft) S-SW 196 0 min 0,000 mm 0,0 UV-I 0 W/m 9,7 C 10,8 C 0,0 km/h (0 Bft) 100,00 %
25.04.2017 20:58 10,8 C 10,6 C 93 % 1006,0 hPa 0,0 l/m 0,0 km/h (0 Bft) S-SW 196 0 min 0,000 mm 0,0 UV-I 0 W/m 9,7 C 10,8 C 0,0 km/h (0 Bft) 100,00 %
25.04.2017 21:00 10,8 C 10,6 C 93 % 1006,0 hPa 0,0 l/m 0,0 km/h (0 Bft) S-SW 196 0 min 0,000 mm 0,0 UV-I 0 W/m 9,7 C 10,8 C 0,0 km/h (0 Bft) 100,00 %
25.04.2017 21:02 10,8 C 10,6 C 93 % 1006,0 hPa 0,0 l/m 0,0 km/h (0 Bft) S-SW 196 0 min 0,000 mm 0,0 UV-I 0 W/m 9,7 C 10,8 C 0,0 km/h (0 Bft) 100,00 %
25.04.2017 21:04 10,8 C 10,6 C 93 % 1006,0 hPa 0,0 l/m 0,0 km/h (0 Bft) S-SW 196 0 min 0,000 mm 0,0 UV-I 0 W/m 9,7 C 10,8 C 0,0 km/h (0 Bft) 100,00 %
25.04.2017 21:06 10,8 C 10,6 C 93 % 1006,1 hPa 0,0 l/m 0,0 km/h (0 Bft) S-SW 196 0 min 0,000 mm 0,0 UV-I 0 W/m 9,7 C 10,8 C 0,0 km/h (0 Bft) 100,00 %
25.04.2017 21:08 10,8 C 10,6 C 94 % 1006,1 hPa 0,0 l/m 0,0 km/h (0 Bft) S-SW 196 0 min 0,000 mm 0,0 UV-I 0 W/m 9,9 C 10,8 C 1,6 km/h (1 Bft) 100,00 %
25.04.2017 21:10 10,8 C 10,6 C 94 % 1006,2 hPa 0,0 l/m 0,0 km/h (0 Bft) S-SW 196 0 min 0,000 mm 0,0 UV-I 0 W/m 9,9 C 10,8 C 0,0 km/h (0 Bft) 97,87 %
25.04.2017 21:12 10,8 C 10,6 C 94 % 1006,2 hPa 0,0 l/m 0,0 km/h (0 Bft) S-SW 196 0 min 0,000 mm 0,0 UV-I 0 W/m 9,9 C 10,8 C 0,0 km/h (0 Bft) 100,00 %
25.04.2017 21:15 10,8 C 10,6 C 94 % 1006,3 hPa 0,0 l/m 0,0 km/h (0 Bft) S-SW 196 0 min 0,000 mm 0,0 UV-I 0 W/m 9,9 C 10,8 C 0,0 km/h (0 Bft) 100,00 %
25.04.2017 21:16 10,8 C 10,6 C 94 % 1006,3 hPa 0,0 l/m 0,0 km/h (0 Bft) S-SW 196 0 min 0,000 mm 0,0 UV-I 0 W/m 9,9 C 10,8 C 0,0 km/h (0 Bft) 100,00 %
25.04.2017 21:18 10,8 C 10,6 C 94 % 1006,3 hPa 0,0 l/m 0,0 km/h (0 Bft) S-SW 196 0 min 0,000 mm 0,0 UV-I 0 W/m 9,9 C 10,8 C 0,0 km/h (0 Bft) 100,00 %
25.04.2017 21:20 10,8 C 10,6 C 94 % 1006,3 hPa 0,0 l/m 0,0 km/h (0 Bft) S-SW 196 0 min 0,000 mm 0,0 UV-I 0 W/m 9,9 C 10,8 C 0,0 km/h (0 Bft) 100,00 %
25.04.2017 21:22 10,8 C 10,6 C 94 % 1006,3 hPa 0,0 l/m 0,0 km/h (0 Bft) S-SW 196 0 min 0,000 mm 0,0 UV-I 0 W/m 9,9 C 10,8 C 0,0 km/h (0 Bft) 100,00 %
25.04.2017 21:24 10,8 C 10,6 C 94 % 1006,3 hPa 0,0 l/m 0,0 km/h (0 Bft) S-SW 196 0 min 0,000 mm 0,0 UV-I 0 W/m 9,9 C 10,8 C 0,0 km/h (0 Bft) 97,87 %
25.04.2017 21:26 10,8 C 10,6 C 94 % 1006,3 hPa 0,0 l/m 0,0 km/h (0 Bft) S-SW 196 0 min 0,000 mm 0,0 UV-I 0 W/m 9,9 C 10,8 C 0,0 km/h (0 Bft) 100,00 %
25.04.2017 21:28 10,8 C 10,6 C 94 % 1006,2 hPa 0,0 l/m 0,0 km/h (0 Bft) S-SW 196 0 min 0,000 mm 0,0 UV-I 0 W/m 9,9 C 10,8 C 0,0 km/h (0 Bft) 96,23 %
25.04.2017 21:30 10,7 C 10,6 C 94 % 1006,2 hPa 0,0 l/m 0,0 km/h (0 Bft) S-SW 196 0 min 0,000 mm 0,0 UV-I 0 W/m 9,8 C 10,7 C 0,0 km/h (0 Bft) 98,00 %
25.04.2017 21:32 10,7 C 10,6 C 94 % 1006,1 hPa 0,0 l/m 0,0 km/h (0 Bft) S-SW 196 0 min 0,000 mm 0,0 UV-I 0 W/m 9,8 C 10,7 C 0,0 km/h (0 Bft) 98,00 %
25.04.2017 21:34 10,7 C 10,6 C 94 % 1006,2 hPa 0,0 l/m 0,0 km/h (0 Bft) S-SW 196 0 min 0,000 mm 0,0 UV-I 0 W/m 9,8 C 10,7 C 0,0 km/h (0 Bft) 100,00 %
25.04.2017 21:36 10,7 C 10,6 C 94 % 1006,3 hPa 0,0 l/m 0,0 km/h (0 Bft) S-SW 196 0 min 0,000 mm 0,0 UV-I 0 W/m 9,8 C 10,7 C 0,0 km/h (0 Bft) 100,00 %
25.04.2017 21:38 10,7 C 10,6 C 95 % 1006,3 hPa 0,0 l/m 0,0 km/h (0 Bft) S-SW 196 0 min 0,000 mm 0,0 UV-I 0 W/m 9,9 C 10,7 C 0,0 km/h (0 Bft) 100,00 %
25.04.2017 21:40 10,7 C 10,6 C 95 % 1006,3 hPa 0,0 l/m 0,0 km/h (0 Bft) S-SW 196 0 min 0,000 mm 0,0 UV-I 0 W/m 9,9 C 10,7 C 0,0 km/h (0 Bft) 100,00 %
25.04.2017 21:42 10,7 C 10,6 C 94 % 1006,3 hPa 0,0 l/m 1,6 km/h (1 Bft) S-SW 196 0 min 0,000 mm 0,0 UV-I 0 W/m 9,8 C 10,7 C 3,2 km/h (1 Bft) 100,00 %
25.04.2017 21:44 10,6 C 10,6 C 94 % 1006,1 hPa 0,0 l/m 3,0 km/h (1 Bft) S-SW 196 0 min 0,000 mm 0,0 UV-I 0 W/m 9,7 C 10,6 C 4,8 km/h (1 Bft) 100,00 %
25.04.2017 21:46 10,5 C 10,6 C 94 % 1006,2 hPa 0,0 l/m 2,1 km/h (1 Bft) S-SW 196 0 min 0,000 mm 0,0 UV-I 0 W/m 9,6 C 10,5 C 3,2 km/h (1 Bft) 95,74 %
25.04.2017 21:48 10,6 C 10,6 C 94 % 1006,2 hPa 0,0 l/m 0,1 km/h (0 Bft) S-SW 196 0 min 0,000 mm 0,0 UV-I 0 W/m 9,7 C 10,6 C 1,6 km/h (1 Bft) 97,87 %
25.04.2017 21:50 10,6 C 10,6 C 95 % 1006,3 hPa 0,0 l/m 0,0 km/h (0 Bft) S-SW 196 0 min 0,000 mm 0,0 UV-I 0 W/m 9,8 C 10,6 C 0,0 km/h (0 Bft) 98,00 %
25.04.2017 21:52 10,6 C 10,6 C 95 % 1006,1 hPa 0,0 l/m 0,5 km/h (0 Bft) S-SW 196 0 min 0,000 mm 0,0 UV-I 0 W/m 9,8 C 10,6 C 3,2 km/h (1 Bft) 100,00 %
25.04.2017 21:54 10,6 C 10,6 C 95 % 1006,1 hPa 0,0 l/m 2,1 km/h (1 Bft) S-SW 196 0 min 0,000 mm 0,0 UV-I 0 W/m 9,8 C 10,6 C 3,2 km/h (1 Bft) 97,56 %
25.04.2017 21:56 10,5 C 10,6 C 95 % 1006,1 hPa 0,0 l/m 1,2 km/h (1 Bft) S-SW 196 0 min 0,000 mm 0,0 UV-I 0 W/m 9,7 C 10,5 C 1,6 km/h (1 Bft) 100,00 %
25.04.2017 21:58 10,5 C 10,6 C 95 % 1006,1 hPa 0,0 l/m 1,7 km/h (1 Bft) S-SW 196 0 min 0,000 mm 0,0 UV-I 0 W/m 9,7 C 10,5 C 3,2 km/h (1 Bft) 97,87 %
25.04.2017 22:00 10,5 C 10,6 C 95 % 1006,1 hPa 0,0 l/m 1,6 km/h (1 Bft) S-SW 196 0 min 0,000 mm 0,0 UV-I 0 W/m 9,7 C 10,5 C 3,2 km/h (1 Bft) 100,00 %
25.04.2017 22:02 10,6 C 10,6 C 95 % 1006,0 hPa 0,0 l/m 2,6 km/h (1 Bft) S-SW 196 0 min 0,000 mm 0,0 UV-I 0 W/m 9,8 C 10,6 C 3,2 km/h (1 Bft) 98,00 %
25.04.2017 22:04 10,5 C 10,6 C 95 % 1006,0 hPa 0,0 l/m 1,7 km/h (1 Bft) S-SW 196 0 min 0,000 mm 0,0 UV-I 0 W/m 9,7 C 10,5 C 3,2 km/h (1 Bft) 97,87 %
25.04.2017 22:06 10,4 C 10,6 C 95 % 1006,0 hPa 0,0 l/m 1,2 km/h (1 Bft) S-SW 196 0 min 0,000 mm 0,0 UV-I 0 W/m 9,6 C 10,4 C 1,6 km/h (1 Bft) 98,00 %
25.04.2017 22:08 10,4 C 10,6 C 95 % 1006,0 hPa 0,0 l/m 1,1 km/h (1 Bft) S-SW 196 0 min 0,000 mm 0,0 UV-I 0 W/m 9,6 C 10,4 C 1,6 km/h (1 Bft) 100,00 %
25.04.2017 22:10 10,3 C 10,6 C 95 % 1005,9 hPa 0,0 l/m 0,6 km/h (0 Bft) S-SW 196 0 min 0,000 mm 0,0 UV-I 0 W/m 9,5 C 10,3 C 1,6 km/h (1 Bft) 100,00 %
25.04.2017 22:12 10,3 C 10,6 C 95 % 1006,0 hPa 0,0 l/m 0,0 km/h (0 Bft) S-SW 196 0 min 0,000 mm 0,0 UV-I 0 W/m 9,5 C 10,3 C 1,6 km/h (1 Bft) 100,00 %
25.04.2017 22:14 10,3 C 10,6 C 95 % 1006,0 hPa 0,0 l/m 1,5 km/h (1 Bft) S-SW 196 0 min 0,000 mm 0,0 UV-I 0 W/m 9,5 C 10,3 C 1,6 km/h (1 Bft) 100,00 %
25.04.2017 22:16 10,3 C 10,6 C 95 % 1006,0 hPa 0,0 l/m 1,6 km/h (1 Bft) S-SW 196 0 min 0,000 mm 0,0 UV-I 0 W/m 9,5 C 10,3 C 3,2 km/h (1 Bft) 95,74 %
25.04.2017 22:18 10,3 C 10,6 C 95 % 1005,9 hPa 0,0 l/m 0,8 km/h (0 Bft) S-SW 196 0 min 0,000 mm 0,0 UV-I 0 W/m 9,5 C 10,3 C 1,6 km/h (1 Bft) 95,74 %
25.04.2017 22:20 10,3 C 10,6 C 95 % 1005,9 hPa 0,0 l/m 0,0 km/h (0 Bft) S-SW 196 0 min 0,000 mm 0,0 UV-I 0 W/m 9,5 C 10,3 C 0,0 km/h (0 Bft) 94,34 %
25.04.2017 22:22 10,3 C 10,6 C 95 % 1006,0 hPa 0,0 l/m 0,0 km/h (0 Bft) S-SW 196 0 min 0,000 mm 0,0 UV-I 0 W/m 9,5 C 10,3 C 0,0 km/h (0 Bft) 97,14 %
25.04.2017 22:24 10,3 C 10,6 C 95 % 1006,0 hPa 0,0 l/m 0,6 km/h (0 Bft) S-SW 196 0 min 0,000 mm 0,0 UV-I 0 W/m 9,5 C 10,3 C 1,6 km/h (1 Bft) 91,49 %
25.04.2017 22:26 10,4 C 10,6 C 95 % 1006,0 hPa 0,0 l/m 0,9 km/h (0 Bft) S-SW 196 0 min 0,000 mm 0,0 UV-I 0 W/m 9,6 C 10,4 C 1,6 km/h (1 Bft) 94,34 %
25.04.2017 22:28 10,4 C 10,6 C 95 % 1006,0 hPa 0,0 l/m 0,0 km/h (0 Bft) S-SW 196 0 min 0,000 mm 0,0 UV-I 0 W/m 9,6 C 10,4 C 1,6 km/h (1 Bft) 95,74 %
25.04.2017 22:30 10,4 C 10,6 C 95 % 1006,0 hPa 0,0 l/m 0,0 km/h (0 Bft) S-SW 196 0 min 0,000 mm 0,0 UV-I 0 W/m 9,6 C 10,4 C 0,0 km/h (0 Bft) 96,00 %
25.04.2017 22:32 10,4 C 10,6 C 95 % 1006,0 hPa 0,0 l/m 0,0 km/h (0 Bft) S-SW 196 0 min 0,000 mm 0,0 UV-I 0 W/m 9,6 C 10,4 C 0,0 km/h (0 Bft) 92,11 %
25.04.2017 22:34 10,4 C 10,6 C 95 % 1006,0 hPa 0,0 l/m 0,0 km/h (0 Bft) S-SW 196 0 min 0,000 mm 0,0 UV-I 0 W/m 9,6 C 10,4 C 0,0 km/h (0 Bft) 94,00 %
25.04.2017 22:36 10,4 C 10,6 C 95 % 1006,0 hPa 0,0 l/m 0,0 km/h (0 Bft) S-SW 196 0 min 0,000 mm 0,0 UV-I 0 W/m 9,6 C 10,4 C 0,0 km/h (0 Bft) 94,00 %
25.04.2017 22:38 10,4 C 10,6 C 95 % 1006,0 hPa 0,0 l/m 0,0 km/h (0 Bft) S-SW 196 0 min 0,000 mm 0,0 UV-I 0 W/m 9,6 C 10,4 C 0,0 km/h (0 Bft) 94,87 %
25.04.2017 22:40 10,4 C 10,6 C 95 % 1006,0 hPa 0,0 l/m 0,0 km/h (0 Bft) S-SW 196 0 min 0,000 mm 0,0 UV-I 0 W/m 9,6 C 10,4 C 0,0 km/h (0 Bft) 96,00 %
25.04.2017 22:42 10,3 C 10,6 C 95 % 1006,0 hPa 0,0 l/m 0,0 km/h (0 Bft) S-SW 196 0 min 0,000 mm 0,0 UV-I 0 W/m 9,5 C 10,3 C 0,0 km/h (0 Bft) 94,34 %
25.04.2017 22:44 10,3 C 10,6 C 95 % 1006,0 hPa 0,0 l/m 0,0 km/h (0 Bft) S-SW 196 0 min 0,000 mm 0,0 UV-I 0 W/m 9,5 C 10,3 C 0,0 km/h (0 Bft) 93,62 %
25.04.2017 22:46 10,3 C 10,0 C 96 % 1006,0 hPa 0,0 l/m 0,0 km/h (0 Bft) S-SW 196 0 min 0,000 mm 0,0 UV-I 0 W/m 9,7 C 10,3 C 0,0 km/h (0 Bft) 93,62 %
25.04.2017 22:48 10,3 C 10,6 C 96 % 1006,0 hPa 0,0 l/m 0,0 km/h (0 Bft) S-SW 196 0 min 0,000 mm 0,0 UV-I 0 W/m 9,7 C 10,3 C 0,0 km/h (0 Bft) 94,74 %
25.04.2017 22:50 10,3 C 10,6 C 96 % 1006,0 hPa 0,0 l/m 0,0 km/h (0 Bft) S-SW 196 0 min 0,000 mm 0,0 UV-I 0 W/m 9,7 C 10,3 C 0,0 km/h (0 Bft) 95,74 %
25.04.2017 22:52 10,2 C 10,6 C 96 % 1006,0 hPa 0,0 l/m 0,0 km/h (0 Bft) S-SW 196 0 min 0,000 mm 0,0 UV-I 0 W/m 9,6 C 10,2 C 0,0 km/h (0 Bft) 98,00 %
25.04.2017 22:54 10,2 C 10,0 C 96 % 1005,9 hPa 0,0 l/m 0,0 km/h (0 Bft) S-SW 196 0 min 0,000 mm 0,0 UV-I 0 W/m 9,6 C 10,2 C 0,0 km/h (0 Bft) 98,00 %
25.04.2017 22:56 10,1 C 10,0 C 95 % 1005,9 hPa 0,0 l/m 0,0 km/h (0 Bft) S-SW 196 0 min 0,000 mm 0,0 UV-I 0 W/m 9,3 C 10,1 C 0,0 km/h (0 Bft) 97,37 %
25.04.2017 22:58 10,0 C 10,0 C 95 % 1005,8 hPa 0,0 l/m 0,0 km/h (0 Bft) S-SW 196 0 min 0,000 mm 0,0 UV-I 0 W/m 9,2 C 10,0 C 0,0 km/h (0 Bft) 98,00 %
25.04.2017 23:00 10,0 C 10,0 C 96 % 1005,9 hPa 0,0 l/m 0,0 km/h (0 Bft) S-SW 196 0 min 0,000 mm 0,0 UV-I 0 W/m 9,4 C 10,0 C 1,6 km/h (1 Bft) 98,00 %
25.04.2017 23:02 10,0 C 10,0 C 96 % 1005,9 hPa 0,0 l/m 0,0 km/h (0 Bft) S-SW 196 0 min 0,000 mm 0,0 UV-I 0 W/m 9,4 C 10,0 C 0,0 km/h (0 Bft) 96,00 %
25.04.2017 23:04 10,1 C 10,0 C 96 % 1005,9 hPa 0,0 l/m 0,0 km/h (0 Bft) S-SW 196 0 min 0,000 mm 0,0 UV-I 0 W/m 9,5 C 10,1 C 0,0 km/h (0 Bft) 97,87 %
25.04.2017 23:06 10,1 C 10,0 C 96 % 1006,0 hPa 0,0 l/m 0,0 km/h (0 Bft) S-SW 196 0 min 0,000 mm 0,0 UV-I 0 W/m 9,5 C 10,1 C 0,0 km/h (0 Bft) 93,62 %
25.04.2017 23:08 10,1 C 10,0 C 96 % 1005,9 hPa 0,0 l/m 0,0 km/h (0 Bft) S-SW 196 0 min 0,000 mm 0,0 UV-I 0 W/m 9,5 C 10,1 C 0,0 km/h (0 Bft) 95,74 %
25.04.2017 23:10 10,1 C 10,0 C 96 % 1005,9 hPa 0,0 l/m 0,0 km/h (0 Bft) S-SW 196 0 min 0,000 mm 0,0 UV-I 0 W/m 9,5 C 10,1 C 0,0 km/h (0 Bft) 98,00 %
25.04.2017 23:12 10,1 C 10,0 C 96 % 1005,8 hPa 0,0 l/m 0,0 km/h (0 Bft) S-SW 196 0 min 0,000 mm 0,0 UV-I 0 W/m 9,5 C 10,1 C 0,0 km/h (0 Bft) 97,87 %
25.04.2017 23:14 10,1 C 10,0 C 96 % 1005,8 hPa 0,0 l/m 0,0 km/h (0 Bft) S-SW 196 0 min 0,000 mm 0,0 UV-I 0 W/m 9,5 C 10,1 C 0,0 km/h (0 Bft) 97,37 %
25.04.2017 23:16 10,1 C 10,0 C 96 % 1005,8 hPa 0,0 l/m 0,0 km/h (0 Bft) S-SW 196 0 min 0,000 mm 0,0 UV-I 0 W/m 9,5 C 10,1 C 0,0 km/h (0 Bft) 97,44 %
25.04.2017 23:18 10,1 C 10,0 C 96 % 1005,8 hPa 0,0 l/m 0,0 km/h (0 Bft) S-SW 196 0 min 0,000 mm 0,0 UV-I 0 W/m 9,5 C 10,1 C 0,0 km/h (0 Bft) 98,00 %
25.04.2017 23:20 10,1 C 10,0 C 96 % 1005,9 hPa 0,0 l/m 0,0 km/h (0 Bft) S-SW 196 0 min 0,000 mm 0,0 UV-I 0 W/m 9,5 C 10,1 C 0,0 km/h (0 Bft) 100,00 %
25.04.2017 23:22 10,1 C 10,0 C 96 % 1005,9 hPa 0,0 l/m 0,0 km/h (0 Bft) S-SW 196 0 min 0,000 mm 0,0 UV-I 0 W/m 9,5 C 10,1 C 0,0 km/h (0 Bft) 100,00 %
25.04.2017 23:25 10,1 C 10,0 C 96 % 1005,9 hPa 0,0 l/m 0,0 km/h (0 Bft) S-SW 196 0 min 0,000 mm 0,0 UV-I 0 W/m 9,5 C 10,1 C 0,0 km/h (0 Bft) 100,00 %
25.04.2017 23:26 10,1 C 10,0 C 96 % 1005,9 hPa 0,0 l/m 0,0 km/h (0 Bft) S-SW 196 0 min 0,000 mm 0,0 UV-I 0 W/m 9,5 C 10,1 C 0,0 km/h (0 Bft) 100,00 %
25.04.2017 23:28 10,1 C 10,0 C 96 % 1005,8 hPa 0,0 l/m 0,0 km/h (0 Bft) S-SW 196 0 min 0,000 mm 0,0 UV-I 0 W/m 9,5 C 10,1 C 0,0 km/h (0 Bft) 100,00 %
25.04.2017 23:30 10,1 C 10,0 C 96 % 1005,9 hPa 0,0 l/m 0,1 km/h (0 Bft) S-SW 196 0 min 0,000 mm 0,0 UV-I 0 W/m 9,5 C 10,1 C 1,6 km/h (1 Bft) 98,00 %
25.04.2017 23:32 10,1 C 10,0 C 96 % 1005,8 hPa 0,0 l/m 1,5 km/h (1 Bft) S-SW 196 0 min 0,000 mm 0,0 UV-I 0 W/m 9,5 C 10,1 C 3,2 km/h (1 Bft) 97,87 %
25.04.2017 23:34 10,1 C 10,0 C 96 % 1005,9 hPa 0,0 l/m 2,6 km/h (1 Bft) S-SW 196 0 min 0,000 mm 0,0 UV-I 0 W/m 9,5 C 10,1 C 4,8 km/h (1 Bft) 100,00 %
25.04.2017 23:36 10,1 C 10,0 C 96 % 1005,9 hPa 0,0 l/m 2,7 km/h (1 Bft) S-SW 196 0 min 0,000 mm 0,0 UV-I 0 W/m 9,5 C 10,1 C 4,8 km/h (1 Bft) 100,00 %
25.04.2017 23:38 10,1 C 10,0 C 96 % 1005,9 hPa 0,0 l/m 1,5 km/h (1 Bft) S-SW 196 0 min 0,000 mm 0,0 UV-I 0 W/m 9,5 C 10,1 C 3,2 km/h (1 Bft) 98,00 %
25.04.2017 23:40 10,1 C 10,0 C 96 % 1005,9 hPa 0,0 l/m 0,7 km/h (0 Bft) S-SW 196 0 min 0,000 mm 0,0 UV-I 0 W/m 9,5 C 10,1 C 3,2 km/h (1 Bft) 98,00 %
25.04.2017 23:42 10,1 C 10,0 C 96 % 1005,9 hPa 0,0 l/m 1,2 km/h (1 Bft) S-SW 196 0 min 0,000 mm 0,0 UV-I 0 W/m 9,5 C 10,1 C 3,2 km/h (1 Bft) 100,00 %
25.04.2017 23:44 10,1 C 10,0 C 96 % 1005,9 hPa 0,0 l/m 1,0 km/h (0 Bft) S-SW 196 0 min 0,000 mm 0,0 UV-I 0 W/m 9,5 C 10,1 C 3,2 km/h (1 Bft) 100,00 %
25.04.2017 23:46 10,1 C 10,0 C 96 % 1005,8 hPa 0,0 l/m 0,6 km/h (0 Bft) S-SW 196 0 min 0,000 mm 0,0 UV-I 0 W/m 9,5 C 10,1 C 3,2 km/h (1 Bft) 100,00 %
25.04.2017 23:48 10,1 C 10,0 C 96 % 1005,9 hPa 0,0 l/m 1,5 km/h (1 Bft) S-SW 196 0 min 0,000 mm 0,0 UV-I 0 W/m 9,5 C 10,1 C 3,2 km/h (1 Bft) 100,00 %
25.04.2017 23:50 10,1 C 10,0 C 96 % 1005,8 hPa 0,0 l/m 3,9 km/h (1 Bft) S-SW 196 0 min 0,000 mm 0,0 UV-I 0 W/m 9,5 C 10,1 C 6,4 km/h (2 Bft) 97,87 %
25.04.2017 23:52 10,1 C 10,0 C 96 % 1005,8 hPa 0,0 l/m 4,5 km/h (1 Bft) S-SW 196 0 min 0,000 mm 0,0 UV-I 0 W/m 9,5 C 10,1 C 6,4 km/h (2 Bft) 100,00 %
25.04.2017 23:54 10,1 C 10,0 C 96 % 1005,8 hPa 0,0 l/m 3,8 km/h (1 Bft) S-SW 196 0 min 0,000 mm 0,0 UV-I 0 W/m 9,5 C 10,1 C 4,8 km/h (1 Bft) 100,00 %
25.04.2017 23:56 10,1 C 10,0 C 96 % 1005,7 hPa 0,0 l/m 3,3 km/h (1 Bft) S-SW 196 0 min 0,000 mm 0,0 UV-I 0 W/m 9,5 C 10,1 C 4,8 km/h (1 Bft) 100,00 %
25.04.2017 23:58 10,1 C 10,0 C 96 % 1005,7 hPa 0,0 l/m 2,9 km/h (1 Bft) S-SW 196 0 min 0,000 mm 0,0 UV-I 0 W/m 9,5 C 10,1 C 4,8 km/h (1 Bft) 100,00 %
_ Min-Zeit 06:32 00:00 13:14 16:04 - 00:02 - - - - - - 06:32 06:32 00:02 05:58
Minimum _ 2,2 C 0,0 C 54 % 1005,0 hPa - 0,0 km/h (0 Bft) - - - - - - 1,5 C 2,2 C 0,0 km/h (0 Bft) 85,37 %
_ Max-Zeit 13:14 16:36 07:06 00:00 18:10 18:04 - - 06:08 14:00 12:30 12:32 14:26 13:12 14:30 00:00
Maximum _ 18,0 C 17,2 C 96 % 1010,1 hPa 0,6 l/m 14,6 km/h
W (3 Bft)
- - 2 min 0,457 mm 4,8 UV-I 1021 W/m 11,0 C 17,9 C 22,5 km/h
N-NO (4 Bft)
100,00 %
Durchschnitt _ 10,1 C 3,6 C 82 % 1006,9 hPa #2,0 l/m 2,6 km/h (1 Bft) W-NW - #7:46 h #2,921 mm 2,5 UV-I 364 W/m 6,8 C 10,0 C 5,7 km/h (1 Bft) 97,05 %